     2              OBSERVATION DATA    GPS                 RINEX VERSION / TYPE
teqc 2003Nov3 UNAVCO Archive Ops 20031119 19:33:14UTC       PGM / RUN BY / DATE
                                                            COMMENT
L1 & L2: 9 8 7 6 5 4 1                                      COMMENT
L1 & L2: 9 8 7 6 5 4 1                                      COMMENT
L1 & L2: 9 8 7 6 5 4 1                                      COMMENT
L1 & L2: 9 8 7 6 5 4 1                                      COMMENT
L1 & L2: 9 8 7 6 5 4 1                                      COMMENT
L1 & L2: 9 8 7 6 5 4 1                                      COMMENT
L1 & L2: 9 8 7 6 5 4 1                                      COMMENT
L1 & L2: 9 8 7 6 5 4 1                                      COMMENT
L1 & L2: 9 8 7 6 5 4 1                                      COMMENT
L1 & L2: 9 8 7 6 5 4 1                                      COMMENT
L1 & L2: 9 8 7 6 5 4 1                                      COMMENT
L1 & L2: 9 8 7 6 5 4 1                                      COMMENT
L1 & L2: 9 8 7 6 5 4 1                                      COMMENT
L1 & L2: 9 8 7 6 5 4 1                                      COMMENT
L1 & L2: 9 8 7 6 5 4 1                                      COMMENT
L1 & L2: 9 8 7 6 5 4 1                                      COMMENT
L1 & L2: 9 8 7 6 5 4 1                                      COMMENT
L1 & L2: 9 8 7 6 5 4 1                                      COMMENT
L1 & L2: 9 8 7 6 5 4 1                                      COMMENT
L1 & L2: 9 8 7 6 5 4 1                                      COMMENT
L1 & L2: 9 8 7 6 5 4 1                                      COMMENT
L1 & L2: 9 8 7 6 5 4 1                                      COMMENT
L1 & L2: 9 8 7 6 5 4 1                                      COMMENT
L1 & L2: 9 8 7 6 5 4 1                                      COMMENT
L1 & L2: 9 8 7 6 5 4 1                                      COMMENT
L1 & L2: 9 8 7 6 5 4 1                                      COMMENT
Original Marker Name: SAIS                                  COMMENT
Campaign Name: Baja (Dixon) 1994                            COMMENT
4-Character Station Name: 3078                              COMMENT
6-Character Antenna Code: DMRCHT                            COMMENT
Vertical Measurement Point: BCR                             COMMENT
Vertical Offset to Rinex Ref. Point: 0.0348                 COMMENT
Radial Measurement Point: ECF                               COMMENT
Radial Offset to Rinex Ref. Point: 0.1897                   COMMENT
Antenna Height from Field Measurement: 1.0330 m             COMMENT
Additional Antenna Identification Info.:                    COMMENT
Turborogue and Ashtech Choke Ring                           COMMENT
Original XYZ: -2413087.5427 -4899097.6372 3284136.2347      COMMENT
New XYZ position is based on association with SCEC monument COMMENT
E1C2H6L5+0011. Position of that monument is believed to be  COMMENT
valid to within 1 m horizontally; vertical accuracy         COMMENT
should be no worse than 3-times this value.                 COMMENT
                                                            COMMENT
Revised Rinex header created by UCSD GPS archive for        COMMENT
GSAC on 09-Nov-2004 (2004:314) 21:56:40 GMT                 COMMENT
For assistance contact dagnew@ucsd.edu                      COMMENT
or anderson@python.ucsd.edu                                 COMMENT
                                                            COMMENT
3078S                                                       MARKER NAME
3078                                                        MARKER NUMBER
Mendez, I. / BenitezCICESE (ENSENADA)                       OBSERVER / AGENCY
T122 TURBOROGUE SNR-8000 93.06.08                           REC # / TYPE / VERS
122 DORNE-MARGOL. TYPE T                                    ANT # / TYPE
 -2413094.0000 -4899076.0000  3284137.0000                  APPROX POSITION XYZ
        0.9806        0.0000        0.0000                  ANTENNA: DELTA H/E/N
     1     1     0                                          WAVELENGTH FACT L1/2
     5    L1    L2    C1    P2    P1                        # / TYPES OF OBSERV
    30                                                      INTERVAL
  1995     2     8    19    20   30.000000                  TIME OF FIRST OBS
  1995     2     9    23    59   30.000000                  TIME OF LAST OBS
                                                            END OF HEADER
 95  2  8 19 20 30.0000000  0  2G19G29
        -0.25959         0.47957  22063249.0324   22063251.9534
        -1.19659        -0.96758  20563999.0764   20563999.3494
 95  2  8 19 21  0.0000000  0  3G18G19G29
        -0.59959         0.19157  21274074.9144   21274076.2854
    -61061.70049    -47579.80447  22051629.5214   22051633.2254
    -21499.33149    -16752.75048  20559908.0414   20559908.4524
 95  2  8 19 21 30.0000000  0  4G18G19G14G29
    -60824.10849    -47394.69247  21262500.5064   21262502.3634
   -113251.17049    -88246.86547  22041698.0894   22041701.1244
        -0.52859        -0.09157  21434964.0694   21434966.9824
    -34078.25649    -26554.50048  20557514.2254   20557514.7884
 95  2  8 19 22  0.0000000  0  4G18G19G14G29
   -119447.53749    -93075.22847  21251344.7704   21251346.5194
   -163209.12849   -127175.07347  22032191.6754   22032194.1234
     84209.18149     65617.83147  21450988.4634   21450991.4484
    -44376.05549    -34578.75248  20555554.7614   20555555.3134
 95  2  8 19 22 30.0000000  0  4G18G19G14G29
   -178335.74149   -138962.08247  21240138.9544   21240140.6644
   -213409.44849   -166292.11247  22022639.1464   22022640.7584
    168363.81849    131192.83247  21467002.8354   21467005.8234
    -54847.32149    -42738.16848  20553562.0104   20553562.4564
 95  2  8 19 23  0.0000000  0  4G18G19G14G29
   -236702.47249   -184442.59547  21229032.2614   21229033.6464
   -263087.34749   -205002.06447  22013185.9384   22013187.1984
    253253.46749    197340.56847  21483157.1124   21483160.2644
    -64715.02049    -50427.27148  20551684.4114   20551684.8024
 95  2  8 19 23 30.0000000  0  4G18G19G14G29
   -294831.18749   -229737.64347  21217970.8424   21217971.4234
   -312541.55549   -243537.71647  22003774.7934   22003777.2044
    338615.40149    263856.31747  21499400.4554   21499404.1344
    -74268.52649    -57871.53848  20549866.2554   20549866.8254
 95  2  8 19 24  0.0000000  0  4G18G19G14G29
   -352933.13249   -275011.83047  21206914.3624   21206915.2704
   -361979.85749   -282061.00047  21994366.7854   21994369.4444
    424230.14049    330569.06247  21515692.7404   21515695.8174
    -83702.53749    -65222.69448  20548070.9134   20548071.3424
 95  2  8 19 24 30.0000000  0  4G18G19G14G29
   -410980.92049   -320243.82347  21195867.7354   21195869.1284
   -411371.28349   -320547.76347  21984967.4714   21984970.0064
    510096.17949    397477.62148  21532032.9904   21532035.6684
    -92976.16949    -72448.88748  20546305.8834   20546306.8924
 95  2  8 19 25  0.0000000  0  4G18G19G14G29
   -468965.39149   -365426.48647  21184833.8374   21184835.4714
   -460700.26949   -358985.88547  21975580.0664   21975583.5254
    596197.77749    464569.73547  21548417.3144   21548420.3974
   -102096.09349    -79555.31348  20544570.5204   20544571.4954
 95  2  8 19 25 30.0000000  0  4G18G19G14G29
   -526825.43249   -410512.19847  21173823.9294   21173825.1724
   -509882.26449   -397309.45847  21966221.3344   21966224.4104
    682584.30949    531883.88147  21564855.9954   21564859.4004
   -110988.66449    -86484.57748  20542878.5124   20542879.3184
 95  2  8 19 26  0.0000000  0  4G18G19G14G29
   -584503.66749   -455456.23647  21162848.2774   21162849.2884
   -558852.58249   -435468.07647  21956902.6384   21956905.6084
    769289.31549    599446.18347  21581355.2124   21581359.1414
   -119592.03849    -93188.48948  20541241.5304   20541242.1554
 95  2  8 19 35  0.0000000  0  3G19G14G18
        -1.22059        -0.75257  21796451.3674   21796453.7744
        -0.67359        -0.59057  21890179.6664   21890183.3844
        -0.57359         0.42257  20972498.5244   20972499.7754
 95  2  8 19 35 30.0000000  0  4G19G14G22G18
    -50072.39549    -39017.17847  21786923.1274   21786925.5944
     88186.15049     68716.36447  21906960.3614   21906964.4794
         0.09159         0.97856  22836545.2554   22836547.2314
    -58624.89149    -45680.82647  20961343.1124   20961344.3014
 95  2  8 19 36  0.0000000  0  5G19G14G22G28G18
    -94955.06749    -73990.62147  21778382.4674   21778384.7154
    181687.16049    141574.23847  21924753.3344   21924756.7184
     91023.67749     70928.45246  22853866.1824   22853868.2154
         0.20558         0.71555  23967296.3084   23967301.0174
   -112036.12249    -87299.92747  20951179.0714   20951180.3594
 95  2  8 19 36 30.0000000  0  5G19G14G22G28G18
   -134681.74049   -104946.40147  21770822.6994   21770824.7864
    280464.05549    218543.19347  21943550.4124   21943553.7364
    187320.29448    145964.79446  22872190.8294   22872193.4964
    -48986.20248    -38170.40445  23957975.2234   23957977.3414
   -160262.82249   -124879.13847  20942001.1014   20942002.6744
 95  2  9  0 43 30.0000000  0  2G 7G27
         0.21259         0.30858  20172675.5274   20172676.4224
        -0.40359         0.34358  20641248.3704   20641248.7654
 95  2  9  0 44  0.0000000  0  4G12G 4G 7G27
        -0.38318        -0.16517  24148365.227    24148362.881
        -0.52658        -0.00455  24299012.3654   24299014.6914
    -35653.05549    -27781.44948  20165890.8894   20165891.7954
     40497.08749     31556.80948  20648954.9004   20648955.2604
 95  2  9  0 44 30.0000000  0  6G 2G15G12G 4G 7G27
        -0.52159         0.28058  21045244.3684   21045245.2414
        -0.73058        -0.59356  23591389.3964   23591390.5894
    -89626.621 8    -69838.767 7  24131310.014    24131307.655
   -110889.08048    -86406.58445  24277910.9954   24277916.2824
    -69587.75949    -54224.06448  20159433.2684   20159434.1944
     82696.54749     64439.48648  20656985.1944   20656985.7684
 95  2  9  0 45  0.0000000  0  6G 2G12G 4G15G 7G27
      3720.76949      2899.99548  21045952.6624   21045953.5234
   -171409.956 8   -133566.009 7  24115747.190    24115744.701
   -213954.16848   -166716.96045  24258297.5324   24258299.4534
     17204.16148     13405.83346  23594663.1234   23594665.7204
    -95142.43849    -74136.77948  20154570.1744   20154571.0344
    133261.04549    103840.38348  20666607.3044   20666607.7544
 95  2  9  0 45 30.0000000  0  6G 2G15G12G 4G 7G27
     18266.31249     14234.18848  21048720.6104   21048721.5084
     45662.37448     35581.04746  23600078.1794   23600080.1924
   -242539.976 8   -188991.952 7  24102211.455    24102209.305
   -306404.26848   -238755.96545  24240705.2234   24240708.2734
   -109510.81449    -85332.89148  20151836.1244   20151836.9534
    194989.46549    151940.43848  20678353.7974   20678354.1344
 95  2  9  0 46  0.0000000  0  6G 2G15G12G 4G 7G27
     39471.76149     30757.92048  21052755.9334   21052756.9654
     81216.55248     63285.58746  23606843.5734   23606845.0894
   -307172.940 8   -239355.244 7  24089912.254    24089909.948
   -392400.28848   -305765.78845  24224340.7014   24224342.9154
   -116866.95449    -91064.92348  20150436.2544   20150437.2024
    263704.72249    205484.77748  20691430.0104   20691430.2734
 95  2  9  0 46 30.0000000  0  6G 2G15G12G 4G 7G27
     68579.19549     53439.04248  21058294.8344   21058295.6874
    125104.42648     97483.91446  23615195.3764   23615197.0274
   -364070.051 8   -283690.602 7  24079084.947    24079082.818
   -470711.41148   -366787.37745  24209438.6864   24209442.5554
   -115976.93649    -90371.37648  20150605.5134   20150606.4784
    340646.68449    265439.53948  20706071.4334   20706071.9054
 95  2  9  0 47  0.0000000  0  6G 2G15G12G 4G 7G27
    107896.04049     84075.54848  21065776.6064   21065777.4914
    179637.90748    139977.53646  23625572.8454   23625574.8734
   -410918.274 8   -320195.659 7  24070169.846    24070167.718
   -539018.39748   -420013.54545  24196440.1124   24196442.6384
   -104520.35249    -81444.13748  20152785.6774   20152786.5694
    428117.53449    333598.61748  20722716.7224   20722717.2414
 95  2  9  0 47 30.0000000  0  6G 2G12G 4G15G 7G27
    153872.01749    119900.97548  21074525.3474   21074526.3844
   -451271.519 8   -351639.706 7  24062490.986    24062488.936
   -600856.19248   -468198.76045  24184672.5614   24184674.2744
    241262.21948    187996.45846  23637299.1814   23637301.2024
    -86039.91049    -67043.78748  20156302.3794   20156303.3594
    522558.33949    407188.85248  20740688.2064   20740688.8504
 95  2  9  0 48  0.0000000  0  6G 2G15G12G 4G 7G27
    203772.30249    158784.31448  21084021.1004   21084022.1004
    307231.38948    239401.02946  23649853.2074   23649853.6714
   -487874.809 8   -380161.695 7  24055525.561    24055523.306
   -658946.51348   -513463.88645  24173619.0754   24173618.6384
    -63276.88249    -49306.35048  20160634.1444   20160635.0534
    621239.32249    484083.12248  20759466.5364   20759466.8564
 95  2  9  0 48 30.0000000  0  6G 2G15G12G 4G 7G27
    260537.88349    203017.24248  21094823.2674   21094824.3644
    380490.41148    296485.98346  23663793.7584   23663794.9534
   -517781.558 8   -403465.598 7  24049834.342    24049832.120
   -710332.98848   -553505.24245  24163840.1564   24163841.0214
    -33282.71449    -25934.26448  20166341.8324   20166342.5204
    727114.22649    566583.02648  20779613.7704   20779614.3294
 95  2  9  0 49  0.0000000  0  6G 2G12G 4G15G 7G27
    323516.22049    252091.27648  21106807.6614   21106808.7794
   -541639.281 8   -422055.994 8  24045294.439    24045292.231
   -755650.08748   -588817.20645  24155216.3934   24155219.7384
    460390.45448    358745.79446  23678998.3294   23678999.6534
      3281.89949      2557.64748  20173299.6274   20173300.5104
    839528.50149    654178.54448  20801005.5414   20801005.9404
 95  2  9  0 49 30.0000000  0  6G 2G12G 4G15G 7G27
    389936.80449    303847.58048  21119447.2564   21119448.1064
   -562221.658 8   -438094.151 8  24041377.789    24041375.437
   -797677.97348   -621566.14045  24147218.8874   24147220.4744
    544156.58048    424018.10746  23694938.4284   23694939.3174
     43626.76449     33995.21148  20180977.1024   20180978.0224
    955720.61949    744717.83648  20823116.3064   20823116.6214
 95  2  9  0 50  0.0000000  0  6G 2G12G 4G15G 7G27
    459927.05349    358385.44848  21132765.8374   21132766.5554
   -579384.689 8   -451467.914 8  24038111.680    24038109.428
   -836287.04148   -651651.03545  24139871.8684   24139872.0764
    631931.84448    492414.44145  23711641.6344   23711643.9494
     87889.52449     68485.68348  20189400.1334   20189400.9594
   1075845.90949    838321.93048  20845975.3324   20845975.9064
 95  2  9  0 50 30.0000000  0  6G 2G12G 4G 7G27G15
    529827.42449    412853.27448  21146067.3914   21146068.4584
   -596788.632 8   -465029.386 8  24034799.808    24034797.446
   -875149.82048   -681933.64945  24132476.1284   24132478.3144
    132405.44549    103173.42548  20197871.2904   20197872.0234
   1196232.90049    932129.95448  20868884.3764   20868885.0234
    720055.04748    561081.87445  23728411.0044   23728410.3974
 95  2  9  0 51  0.0000000  0  6G 2G12G 4G15G 7G27
    591109.55749    460605.59048  21157728.9534   21157729.8524
   -622976.282 8   -485435.313 8  24029816.418    24029814.067
   -922816.55948   -719076.51445  24123405.3624   24123406.7264
    799981.75648    623362.43746  23743620.4874   23743621.4924
    168626.25649    131397.44748  20204763.7024   20204764.5024
   1308349.49049   1019493.51648  20890219.3734   20890220.0084
 95  2  9  0 51 30.0000000  0  6G 2G12G 4G15G 7G27
    649371.89949    506004.82448  21168815.9734   21168816.7804
   -652361.891 8   -508333.164 8  24024224.563    24024222.336
   -973708.29648   -758732.33445  24113720.4434   24113721.8504
    877296.26848    683607.51846  23758333.0354   23758334.8174
    202150.47249    157520.22448  20211143.3504   20211144.1154
   1417793.28949   1104774.37548  20911045.9614   20911046.5074
 95  2  9  0 52  0.0000000  0  6G 2G12G 4G15G 7G27
    699003.03249    544678.44248  21178260.3264   21178261.1734
   -690563.667 8   -538100.736 8  24016954.892    24016952.603
  -1033431.81448   -805270.10945  24102355.8534   24102358.2914
    946378.77948    737438.06146  23771478.7214   23771480.5504
    227374.33149    177175.18148  20215943.1834   20215944.0984
   1518928.88949   1183581.33148  20930291.3394   20930291.9434
 95  2  9  0 52 30.0000000  0  6G 2G12G 4G15G 7G27
    739089.97649    575915.02848  21185888.8794   21185889.6624
   -738513.022 8   -575463.840 8  24007830.341    24007828.212
  -1102896.13048   -859398.12045  24089137.2094   24089136.3624
   1006296.54348    784127.23946  23782880.8594   23782883.0594
    243361.08649    189632.40448  20218985.2734   20218986.0464
   1610793.32149   1255164.00048  20947772.4894   20947773.0274
 95  2  9  0 53  0.0000000  0  6G 2G12G 4G15G 7G27
    770815.13349    600635.93448  21191925.8254   21191926.4684
   -795018.270 8   -619493.870 8  23997077.837    23997075.541
  -1180897.85548   -920178.66245  24074293.7844   24074295.8104
   1058239.90248    824602.64745  23792765.4964   23792764.9424
    251302.15449    195820.26748  20220496.3464   20220497.2054
   1694566.50349   1320441.80748  20963714.0014   20963714.4864
 95  2  9  0 53 30.0000000  0  6G 2G27G12G 4G15G 7
    797706.24149    621590.04248  21197043.1614   21197043.9534
   1773764.92449   1382154.86248  20978785.0234   20978785.7264
   -856541.527 8   -667434.043 8  23985370.239    23985368.028
  -1263885.33548   -984844.13345  24058501.9514   24058502.6834
   1105745.24748    861619.76145  23801805.0114   23801806.5234
    254745.69149    198503.56448  20221151.7064   20221152.4634
 95  2  9  0 54  0.0000000  0  6G 2G27G12G 4G15G 7
    819531.03549    638596.38048  21201196.2814   21201196.9264
   1848164.48849   1440128.53547  20992942.8794   20992943.4584
   -923298.614 8   -719452.523 8  23972666.723    23972664.470
  -1352056.18748  -1053548.66745  24041723.1874   24041724.3784
   1148594.89148    895009.10845  23809959.4224   23809961.1714
    253472.53449    197511.51248  20220909.4204   20220910.1904
 95  2  9  0 54 30.0000000  0  6G 2G27G12G 4G15G 7
    836121.76549    651524.22848  21204353.1874   21204354.0894
   1917622.99649   1494252.02547  21006160.3904   21006160.9244
   -995448.403 8   -775673.102 8  23958937.227    23958934.721
  -1445572.21248  -1126418.19745  24023927.5204   24023930.9314
   1186628.14848    924645.43945  23817197.3254   23817198.5034
    247311.01349    192710.34548  20219737.0074   20219737.8754
 95  2  9  0 55  0.0000000  0  6G 2G27G12G 4G15G 7
    838841.61349    653643.59648  21204870.8384   21204871.6674
   1973533.88949   1537818.93547  21016799.7864   21016800.4064
  -1081620.895 8   -842820.461 8  23942538.991    23942536.547
  -1553084.19248  -1210193.67646  24003468.8824   24003470.6954
   1211213.95348    943803.22645  23821875.6984   23821877.0284
    227637.23549    177380.14848  20215993.1214   20215993.9524
 95  2  9  0 55 30.0000000  0  6G 2G27G12G 4G15G 7
    837765.94649    652805.42148  21204666.2304   21204667.0644
   2025978.77249   1578685.05247  21026779.7334   21026780.3764
  -1171744.956 8   -913046.967 8  23925388.952    23925386.505
  -1664522.74648  -1297028.83046  23982262.5344   23982265.2044
   1232421.73648    960328.77245  23825911.4384   23825912.2954
    204526.68449    159371.94748  20211595.2084   20211595.8204
 95  2  9  0 56  0.0000000  0  6G 2G27G12G 4G15G 7
    841962.51349    656075.48348  21205464.6424   21205465.3804
   2084030.15049   1623919.87447  21037826.5304   21037827.1694
  -1256752.058 8   -979286.232 8  23909212.500    23909210.126
  -1770828.13348  -1379864.12545  23962033.5124   23962034.7494
   1259318.16348    981287.05346  23831029.6844   23831029.8164
    187036.83649    145743.50848  20208266.9454   20208267.6324
 95  2  9  0 56 30.0000000  0  6G 2G27G12G 4G15G 7
    849639.83249    662057.81748  21206925.7034   21206926.4314
   2145901.41649   1672131.23247  21049600.2354   21049600.7254
  -1338436.383 8  -1042936.320 8  23893668.575    23893666.169
  -1873810.41848  -1460109.95946  23942436.4694   23942438.4214
   1290107.25848   1005278.58746  23836888.5584   23836889.1384
    173364.83649    135090.01348  20205665.3554   20205665.9814
 95  2  9  0 57  0.0000000  0  6G 2G27G12G 4G15G 7
    858080.55949    668635.01048  21208531.8344   21208532.5674
   2208878.98449   1721204.63547  21061584.6994   21061585.1974
  -1419506.878 8  -1106108.089 8  23878241.338    23878239.029
  -1976177.93448  -1539876.76646  23922956.5484   23922958.5584
   1322078.46948   1030191.22946  23842972.2164   23842973.2374
    160807.94849    125305.43448  20203275.8854   20203276.5024
 95  2  9  0 57 30.0000000  0  6G 2G27G12G 4G15G 7
    867456.75149    675941.13448  21210316.2854   21210316.8984
   2273137.05649   1771275.84247  21073812.5694   21073812.9744
  -1499791.581 8  -1168667.549 8  23862963.661    23862961.260
  -2077748.34748  -1619022.48846  23903628.1034   23903629.6404
   1355401.45648   1056157.21646  23849313.4574   23849315.0034
    149526.21349    116514.48148  20201129.1734   20201129.8514
 95  2  9  0 58  0.0000000  0  6G 2G27G12G 4G15G 7
    877961.56049    684126.70448  21212315.1824   21212315.9944
   2338880.73249   1822504.65647  21086323.2374   21086323.8094
  -1579086.195 8  -1230455.510 8  23847874.253    23847872.064
  -2178324.44348  -1697393.39946  23884489.7064   23884491.1894
   1390279.17448   1083334.67246  23855950.5194   23855951.9654
    139706.22849    108862.55548  20199260.4144   20199261.1594
 95  2  9  0 58 30.0000000  0  6G 2G27G12G 4G15G 7
    889287.85349    692952.40348  21214470.3474   21214471.1024
   2405799.08049   1874648.80747  21099057.3774   21099057.9294
  -1657699.756 8  -1291712.780 8  23832914.661    23832912.414
  -2278205.87648  -1775223.03546  23865483.1974   23865483.6694
   1426400.42948   1111481.13246  23862824.2444   23862824.3384
    131037.48549    102107.69948  20197610.8344   20197611.4144
 95  2  9  0 59  0.0000000  0  6G 2G27G12G 4G15G 7
    900191.38949    701448.68248  21216545.2384   21216546.0024
   2472625.64449   1926721.44247  21111774.0374   21111774.7044
  -1736880.238 8  -1353411.807 8  23817846.988    23817844.983
  -2378634.96548  -1853479.41046  23846371.7314   23846373.5714
   1462515.63148   1139622.86146  23869696.4814   23869697.3154
    122276.84549     95281.23948  20195943.6214   20195944.2494
 95  2  9  0 59 30.0000000  0  6G 2G27G12G 4G15G 7
    911166.19449    710000.48448  21218633.7614   21218634.5314
   2539836.10249   1979093.21647  21124563.8584   21124564.5654
  -1816141.139 8  -1415173.499 8  23802764.189    23802762.112
  -2479122.13548  -1931781.05046  23827249.6344   23827251.8204
   1499109.33448   1168137.43446  23876660.4314   23876661.1974
    113910.41349     88761.95748  20194351.5344   20194352.2194
 95  2  9  1  0  0.0000000  0  6G 2G27G12G 4G15G 7
    922543.91349    718866.23948  21220798.7824   21220799.6264
   2607736.17349   2032002.34647  21137484.7714   21137485.2744
  -1895156.577 8  -1476743.917 8  23787727.919    23787725.879
  -2579334.08448  -2009868.22346  23808179.4624   23808180.8094
   1536505.28348   1197277.17945  23883776.7554   23883779.1624
    106276.34049     82813.34548  20192898.7834   20192899.3694
 95  2  9  1  0 30.0000000  0  6G 2G27G12G 4G15G 7
    934221.75449    727965.85948  21223021.0934   21223021.8574
   2676191.37149   2085344.04547  21150511.3134   21150511.7664
  -1974046.040 8  -1538216.178 8  23772715.649    23772713.717
  -2679384.85548  -2087829.81346  23789140.7414   23789142.4414
   1574581.91748   1226947.28845  23891022.3854   23891023.3974
     99271.46949     77355.01648  20191565.7504   20191566.4954
 95  2  9  1  1  0.0000000  0  6G 2G27G12G 4G15G 7
    946204.91149    737303.39648  21225301.2784   21225301.9364
   2745204.90949   2139120.80947  21163644.2354   21163644.8184
  -2052802.113 8  -1599584.495 8  23757728.929    23757726.836
  -2779271.94648  -2165663.87946  23770132.7674   23770134.1494
   1613344.75848   1257152.13545  23898398.5134   23898397.9844
     92898.59149     72389.15648  20190353.0874   20190353.7024
 95  2  9  1  1 30.0000000  0  6G 2G27G12G 4G15G 7
    958479.19049    746867.78148  21227637.1484   21227637.8874
   2814765.48249   2193323.82747  21176881.0964   21176881.8204
  -2131438.219 8  -1660859.331 8  23742764.914    23742762.836
  -2878997.73748  -2243372.23446  23751155.6534   23751157.9824
   1652778.24448   1287879.56246  23905902.3484   23905903.4224
     87133.59049     67896.96948  20189255.9994   20189256.6584
 95  2  9  1  2  0.0000000  0  6G 2G27G12G 4G15G 7
    971007.11549    756629.81248  21230020.9214   21230021.7744
   2884839.57749   2247927.01147  21190215.7394   21190216.4944
  -2209983.691 8  -1722063.542 8  23727818.175    23727816.001
  -2978577.30048  -2320966.69046  23732205.9794   23732207.3394
   1692851.24148   1319105.30145  23913527.6084   23913529.6264
     81934.79449     63845.98248  20188266.7214   20188267.4894
 95  2  9  1  2 30.0000000  0  6G 2G27G12G 4G15G 7
    983742.53049    766553.52748  21232444.5534   21232445.4934
   2955401.30849   2302910.15447  21203643.1684   21203643.8814
  -2288468.249 8  -1783220.291 8  23712882.981    23712880.897
  -3078041.29348  -2398471.05446  23713278.6564   23713280.1414
   1733531.42148   1350804.17545  23921269.2374   23921267.6344
     77253.86049     60198.52748  20187376.0394   20187376.7314
 95  2  9  1  3  0.0000000  0  6G 2G27G12G 4G15G 7
    996613.52549    776582.88348  21234893.9204   21234894.6534
   3026401.00749   2358234.57947  21217153.9114   21217154.4994
  -2366951.963 8  -1844376.379 8  23697948.070    23697945.804
  -3177443.01648  -2475926.92346  23694363.5714   23694364.7194
   1774756.90748   1382927.95945  23929113.8544   23929113.3194
     73027.89149     56905.58048  20186571.7924   20186572.4134
 95  2  9  1  3 30.0000000  0  6G 2G27G12G 4G15G 7
   1009597.48649    786700.25948  21237364.5774   21237365.2764
   3097827.12549   2413891.28547  21230746.0554   21230746.5914
  -2445456.211 8  -1905548.468 8  23683009.195    23683006.981
  -3276802.06548  -2553349.53346  23675455.2144   23675457.1284
   1816504.21148   1415458.31445  23937057.9804   23937059.2414
     69244.27649     53957.31648  20185851.7074   20185852.4264
 95  2  9  1  4  0.0000000  0  5G 2G27G12G 4G 7
   1022718.13849    796924.15348  21239861.3924   21239862.1864
   3169710.15649   2469904.02347  21244424.7204   21244425.5034
  -2523954.815 8  -1966716.164 8  23668071.329    23668069.115
  -3376101.62948  -2630725.77546  23656559.8284   23656561.2154
     65932.15049     51376.45048  20185221.4494   20185222.1964
 95  2  9  1  4 30.0000000  0  5G 2G27G12G 4G 7
   1035953.71949    807237.60448  21242380.0214   21242380.7474
   3242029.86349   2526257.02047  21258186.8314   21258187.4164
  -2602476.693 8  -2027901.990 8  23653129.100    23653126.958
  -3475381.72048  -2708086.82046  23637667.6104   23637669.2044
     63071.84849     49147.66348  20184677.1594   20184677.8004
 95  2  9  1  5  0.0000000  0  6G 2G27G12G 4G 9G 7
   1049302.10049    817638.94148  21244919.9964   21244920.7444
   3314780.28549   2582945.64247  21272030.8284   21272031.3564
  -2681031.963 8  -2089113.836 8  23638180.395    23638178.367
  -3574646.17048  -2785435.69746  23618777.4254   23618778.6934
         0.04758         0.71455  25289390.7164   25289390.8914
     60664.83449     47272.09048  20184219.0904   20184219.8724
 95  2  9  1  5 30.0000000  0  6G 2G27G12G 4G 9G 7
   1062759.74049    828125.41148  21247481.0634   21247481.7834
   3387959.80049   2639968.61347  21285956.5434   21285957.0654
  -2759621.215 8  -2150352.166 8  23623225.298    23623223.206
  -3673887.66748  -2862766.67546  23599892.9074   23599894.0664
   -100424.87648    -78252.42245  25270281.4184   25270284.7654
     58694.35749     45736.67448  20183844.1914   20183844.9244
 95  2  9  1  6  0.0000000  0  6G 2G27G12G 4G 9G 7
   1076347.26349    838713.08348  21250066.5274   21250067.1614
   3461584.24549   2697338.29147  21299966.6054   21299967.0974
  -2838218.605 8  -2211596.841 8  23608268.622    23608266.544
  -3773076.53148  -2940056.64146  23581017.8864   23581020.1604
   -200860.12348   -156513.59245  25251168.5904   25251168.7244
     57167.80149     44547.15548  20183553.7084   20183554.3014
 95  2  9  1  6 30.0000000  0  6G 2G27G12G 4G 9G 7
   1090058.68649    849397.31148  21252675.8924   21252676.4494
   3535640.43349   2755044.38547  21314059.4604   21314060.1694
  -2916830.255 8  -2272852.627 8  23593309.275    23593307.327
  -3872226.89248  -3017316.60446  23562149.7324   23562151.3544
   -301301.55648   -234779.62045  25232054.9914   25232055.2314
     56078.85149     43698.61448  20183346.4304   20183347.0084
 95  2  9  1  7  0.0000000  0  6G 2G27G12G 4G 9G 7
   1103882.69449    860169.27448  21255306.4944   21255307.4044
   3610121.99449   2813081.93447  21328232.6524   21328233.2054
  -2995457.211 8  -2334120.340 8  23578347.089    23578345.097
  -3971347.67048  -3094553.55046  23543288.0874   23543289.7494
   -401756.79748   -313056.38545  25212939.2444   25212939.9214
     55412.11849     43179.07648  20183219.5454   20183220.1804
 95  2  9  1  7 30.0000000  0  6G 2G27G12G 4G 9G 7
   1117837.89949    871043.46748  21257962.1154   21257962.9304
   3685034.97949   2871455.66547  21342488.2794   21342488.9714
  -3074078.344 8  -2395383.516 8  23563385.923    23563383.913
  -4070427.80948  -3171758.78446  23524433.7374   23524434.3784
   -502232.02748   -391348.70945  25193820.1504   25193822.4584
     55175.08949     42994.38348  20183174.5984   20183175.4054
 95  2  9  1  8  0.0000000  0  6G 2G27G12G 4G 9G 7
   1131927.12349    882022.08848  21260643.2014   21260644.1554
   3760340.09449   2930134.95947  21356818.2864   21356818.6544
  -3152703.157 8  -2456649.560 8  23548424.040    23548421.983
  -4169485.11548  -3248946.23046  23505583.2154   23505584.1914
   -602739.89748   -469666.43745  25174693.1204   25174693.9604
     55374.86549     43150.06148  20183212.4424   20183213.1774
 95  2  9  1  8 30.0000000  0  6G 2G27G12G 4G 9G 7
   1146168.76249    893119.47148  21263353.0644   21263353.8614
   3836039.68649   2989121.63247  21371223.3594   21371223.8664
  -3231320.235 8  -2517909.577 8  23533463.676    23533461.619
  -4268496.25048  -3326097.69446  23486742.5954   23486744.5284
   -703259.68248   -547993.57645  25155564.4274   25155565.1074
     56032.39749     43662.42748  20183337.5194   20183338.3484
 95  2  9  1  9  0.0000000  0  6G 2G27G12G 4G 9G 7
   1160566.74749    904338.69048  21266093.1344   21266093.8674
   3912132.58149   3048414.79647  21385703.4844   21385703.8584
  -3309923.393 8  -2579158.751 8  23518505.967    23518503.870
  -4367429.29148  -3403188.32646  23467915.6784   23467916.7754
   -803782.55748   -626323.09045  25136436.3034   25136439.8204
     57147.51349     44531.36448  20183549.5944   20183550.3564
 95  2  9  1  9 30.0000000  0  6G 2G27G12G 4G 9G 7
   1175150.79249    915702.89348  21268868.3114   21268869.1324
   3988626.20049   3108020.21447  21400259.5834   21400260.3744
  -3388500.357 8  -2640387.514 8  23503553.234    23503551.160
  -4466253.74748  -3480194.36146  23449110.2404   23449110.9344
   -904278.58948   -704631.63045  25117312.6494   25117316.3504
     58740.32049     45772.53948  20183852.7124   20183853.5034
 95  2  9  1 10  0.0000000  0  6G 2G27G12G 4G 9G 7
   1189910.16049    927203.70348  21271676.9064   21271677.6364
   4065526.96449   3167942.88847  21414893.3324   21414893.8364
  -3467064.424 8  -2701606.230 8  23488602.993    23488600.860
  -4564969.98448  -3557116.07246  23430325.0404   23430325.9124
  -1004735.62348   -782909.85445  25098196.4074   25098197.0804
     60798.41449     47376.27048  20184244.2994   20184245.1044
 95  2  9  1 10 30.0000000  0  6G 2G27G12G 4G 9G 7
   1204810.33949    938814.23848  21274512.2774   21274513.0584
   4142842.80949   3228189.00847  21429606.1264   21429606.7104
  -3545639.358 8  -2762833.411 8  23473650.655    23473648.601
  -4663605.05048  -3633974.53346  23411555.6004   23411556.6684
  -1105184.31448   -861181.52745  25079080.7674   25079078.6514
     63284.16349     49313.22748  20184717.4104   20184718.0474
 95  2  9  1 11  0.0000000  0  6G 2G27G12G 4G 9G 7
   1219826.94949    950515.50348  21277369.8284   21277370.5694
   4220557.28249   3288745.72847  21444394.6674   21444395.1304
  -3624249.014 8  -2824087.654 8  23458691.620    23458689.775
  -4762199.39048  -3710801.25446  23392793.6574   23392794.7874
  -1205656.10748   -939471.21645  25059961.8914   25059961.6934
     66177.27949     51567.61048  20185268.0844   20185268.6944
 95  2  9  1 11 30.0000000  0  6G 2G27G12G 4G 9G 7
   1234992.42849    962332.77148  21280255.7584   21280256.3314
   4298702.44049   3349638.02547  21459265.2034   21459265.5064
  -3702865.782 8  -2885347.441 8  23443731.207    23443729.489
  -4860740.01648  -3787586.10346  23374041.7164   23374042.7524
  -1306116.77748  -1017752.17445  25040845.3674   25040847.2094
     69506.55149     54161.85248  20185901.6174   20185902.2524
 95  2  9  1 12  0.0000000  0  6G 2G27G12G 4G 9G 7
   1250289.93749    974252.91648  21283167.0284   21283167.5784
   4377260.81249   3410852.30547  21474214.5184   21474215.0894
  -3781491.630 8  -2946614.303 8  23428769.201    23428767.506
  -4959236.42648  -3864336.52746  23355298.5364   23355299.4854
  -1406575.59248  -1096031.74845  25021729.1044   25021729.3004
     73265.17549     57090.64648  20186616.8134   20186617.5204
 95  2  9  1 12 30.0000000  0  6G 2G27G12G 4G 9G 7
   1265737.68349    986290.12548  21286106.5274   21286107.2834
   4456227.53149   3472384.78447  21489241.2534   21489241.6684
  -3860100.381 8  -3007867.844 8  23413810.377    23413808.727
  -5057670.65048  -3941038.48146  23336567.2804   23336568.3784
  -1507021.27248  -1174301.08245  25002614.9054   25002614.9424
     77477.25749     60372.79148  20187418.1714   20187418.8384
 95  2  9  1 13  0.0000000  0  6G 2G27G12G 4G 9G 7
   1281293.01849    998411.17348  21289066.5134   21289067.2694
   4535539.29349   3534186.15647  21504333.9034   21504334.4864
  -3938727.549 8  -3069135.734 8  23398848.201    23398846.398
  -5156063.08548  -4017707.85946  23317843.5474   23317845.3164
  -1607483.57748  -1252583.32045  24983497.0884   24983500.2644
     82105.74049     63979.41748  20188299.1104   20188299.8774
 95  2  9  1 13 30.0000000  0  6G 2G27G12G 4G 9G 7
   1296985.76649   1010639.28848  21292052.7124   21292053.5264
   4615215.61649   3596271.58847  21519495.7444   21519496.3794
  -4017336.093 8  -3130389.113 8  23383889.344    23383887.721
  -5254354.62248  -4094298.61846  23299139.5334   23299140.4604
  -1707927.02548  -1330850.88445  24964382.4144   24964383.6924
     87171.69749     67926.94248  20189263.0304   20189263.7294
 95  2  9  1 14  0.0000000  0  6G 2G27G12G 4G 9G 7
   1312821.83849   1022979.08348  21295066.1774   21295066.9484
   4695268.45949   3658650.40647  21534729.1824   21534729.9244
  -4095907.251 8  -3191613.361 8  23368937.667    23368936.041
  -5352510.87348  -4170783.95446  23280460.8904   23280460.9824
  -1808351.86648  -1409103.98345  24945273.2424   24945273.1164
     92688.64049     72225.87948  20190312.9694   20190313.5384
 95  2  9  1 14 30.0000000  0  6G 2G27G12G 4G 9G 7
   1328783.52749   1035416.76548  21298103.6094   21298104.3334
   4775691.89149   3721318.00047  21550033.3184   21550033.8274
  -4174453.432 8  -3252818.146 8  23353990.829    23353989.204
  -5450536.44848  -4247167.46046  23261807.1734   23261809.0324
  -1908772.81048  -1487354.03945  24926163.6284   24926165.4774
     98644.95349     76867.17148  20191446.3684   20191447.0024
 95  2  9  1 15  0.0000000  0  6G 2G27G12G 4G 9G 7
   1344885.17349   1047963.50948  21301167.6324   21301168.4864
   4856514.01349   3784296.24047  21565413.4614   21565413.8894
  -4252968.314 8  -3313998.537 8  23339050.055    23339048.198
  -5548410.59548  -4323432.97646  23243182.1784   23243183.7174
  -2009170.70248  -1565586.14445  24907058.7414   24907057.3224
    105043.78249     81853.27948  20192663.9904   20192664.7194
 95  2  9  1 15 30.0000000  0  6G 2G27G12G 4G 9G 7
   1361118.44349   1060612.81448  21304256.5784   21304257.2294
   4937739.84649   3847589.05747  21580870.2174   21580870.7134
  -4331464.625 8  -3375164.464 8  23324112.656    23324110.888
  -5646159.65248  -4399601.01846  23224581.1624   23224582.2304
  -2109549.73648  -1643803.56145  24887956.8984   24887960.8854
    111862.64949     87166.69748  20193961.6014   20193962.3974
 95  2  9  1 16  0.0000000  0  6G 2G27G12G 4G 9G 7
   1377499.30349   1073377.12748  21307374.0114   21307374.7264
   5019397.99049   3911218.75847  21596409.2244   21596409.6664
  -4409932.904 8  -3436308.541 8  23309180.553    23309178.860
  -5743790.60748  -4475677.04046  23206003.0434   23206004.4274
  -2209897.47348  -1721996.56845  24868861.5494   24868864.7294
    119114.75049     92817.69648  20195341.4944   20195342.1824
 95  2  9  1 16 30.0000000  0  6G 2G27G12G 4G 9G 7
   1394026.50349   1086255.47448  21310519.0534   21310519.6574
   5101487.31349   3975184.44547  21612030.2774   21612030.7354
  -4488388.829 8  -3497442.990 8  23294250.810    23294249.177
  -5841329.78448  -4551681.53046  23187441.4394   23187443.1264
  -2310214.91048  -1800165.94445  24849772.0804   24849775.8874
    126782.45249     98792.53948  20196800.6124   20196801.2994
 95  2  9  1 17  0.0000000  0  6G 2G27G12G 4G 9G 7
   1410732.73649   1099273.32448  21313697.7824   21313698.6674
   5184040.50549   4039511.57947  21627739.5354   21627740.1074
  -4566807.099 8  -3558548.100 8  23279328.298    23279326.593
  -5938755.66348  -4627597.76046  23168902.3354   23168904.0934
  -2410473.74848  -1878289.70245  24830692.2584   24830694.9824
    134879.74449    105102.13248  20198341.5094   20198342.2244
 95  2  9  1 17 30.0000000  0  6G 2G27G12G 4G 9G 7
   1427565.81049   1112390.01448  21316901.1304   21316901.8314
   5266997.97649   4104153.73547  21643525.9724   21643526.4974
  -4645235.625 8  -3619661.203 8  23264403.760    23264402.187
  -6036127.21048  -4703471.63846  23150372.5904   23150373.1084
  -2510737.33948  -1956417.11845  24811612.9964   24811612.8274
    143361.55749    111711.35848  20199955.5224   20199956.2954
 95  2  9  1 18  0.0000000  0  6G 2G27G12G 4G 9G 7
   1444552.59949   1125626.48448  21320133.5844   21320134.4484
   5350373.77549   4169121.86347  21659391.9414   21659392.4894
  -4723649.320 8  -3680762.747 8  23249482.169    23249480.572
  -6133399.56648  -4779268.23346  23131862.7374   23131863.4544
  -2610997.28148  -2034541.68545  24792534.8314   24792533.9524
    152262.94449    118647.51648  20201649.5154   20201650.2964
 95  2  9  1 18 30.0000000  0  6G 2G27G12G 4G 9G 7
   1461649.65349   1138948.87948  21323387.2124   21323387.7604
   5434112.04049   4234372.44147  21675326.8664   21675327.5344
  -4802075.517 8  -3741874.035 8  23234558.145    23234556.572
  -6230588.14148  -4854999.54846  23113367.8894   23113369.6844
  -2711281.70848  -2112685.35445  24773450.8134   24773451.8354
    161545.51749    125880.69348  20203415.9664   20203416.6484
 95  2  9  1 19  0.0000000  0  6G 2G27G12G 4G 9G 7
   1478858.73149   1152358.56048  21326661.9474   21326662.4994
   5518205.88649   4299900.09047  21691329.3394   21691329.8454
  -4880497.271 8  -3802981.858 8  23219635.043    23219633.294
  -6327678.77848  -4930654.52746  23094891.7894   23094893.5184
  -2811584.23048  -2190843.11445  24754363.9964   24754362.5454
    171228.65149    133426.00148  20205258.5344   20205259.1574
 95  2  9  1 19 30.0000000  0  6G 2G27G12G 4G 9G 7
   1496202.87349   1165873.49248  21329962.3304   21329962.8304
   5602668.94149   4365715.41847  21707402.1894   21707402.8844
  -4958889.732 8  -3864066.856 8  23204717.387    23204715.680
  -6424636.66248  -5006206.06546  23076441.5784   23076443.3924
  -2911884.52648  -2268999.13945  24735277.2234   24735279.1294
    181335.82649    141301.73948  20207181.9174   20207182.6724
 95  2  9  1 20  0.0000000  0  6G 2G27G12G 4G 9G 7
   1513698.94249   1179506.80648  21333291.8384   21333292.3364
   5687502.53149   4431819.50347  21723545.7534   21723546.0814
  -5037235.604 8  -3925115.558 8  23189808.667    23189806.874
  -6521439.78048  -5081637.00246  23058020.4814   23058021.6434
  -3012142.37348  -2347122.05345  24716198.7784   24716200.2104
    191874.11549    149513.40548  20209187.2034   20209187.7744
 95  2  9  1 20 30.0000000  0  6G 2G27G12G 4G 9G 7
   1531337.06949   1193250.81148  21336648.1254   21336649.0394
   5772686.51349   4498196.61047  21739755.3634   21739756.0684
  -5115547.422 8  -3986137.720 8  23174906.455    23174904.583
  -6618117.54348  -5156970.26746  23039623.3244   23039624.4904
  -3112355.47048  -2425210.14245  24697128.7864   24697131.4314
    202828.10749    158048.99748  20211271.6584   20211272.3164
 95  2  9  1 21  0.0000000  0  6G 2G27G12G 4G 9G 7
   1549149.70449   1207130.79348  21340037.9634   21340038.8634
   5858243.91549   4564864.69447  21756036.3924   21756037.1934
  -5193816.537 8  -4047126.604 8  23160012.331    23160010.467
  -6714661.67548  -5232199.40346  23021251.4604   23021252.4564
  -3212509.68448  -2503252.30345  24678070.2474   24678072.4064
    214216.53549    166923.11048  20213438.7284   20213439.2704
 95  2  9  1 21 30.0000000  0  6G 2G27G12G 4G 9G 7
   1567155.29349   1221161.12848  21343464.1344   21343465.0754
   5944177.57549   4631825.97447  21772389.0724   21772390.0104
  -5272031.236 8  -4108073.082 8  23145128.471    23145126.583
  -6811041.75948  -5307300.69946  23002910.7474   23002911.8314
  -3312574.59648  -2581224.88345  24659027.8514   24659029.2094
    226040.70949    176136.76448  20215688.7654   20215689.4474
 95  2  9  1 22  0.0000000  0  6G 2G27G12G 4G 9G 7
   1585338.65749   1235329.98348  21346924.4104   21346925.0504
   6030472.65349   4699068.85847  21788810.6744   21788811.3414
  -5350201.772 8  -4168985.149 8  23130253.034    23130251.226
  -6907272.28248  -5382285.45646  22984598.6754   22984600.5144
  -3412561.60748  -2659136.74645  24640001.4104   24640000.1494
    238290.21749    185681.84148  20218019.9204   20218020.4814
 95  2  9  1 22 30.0000000  0  6G 2G27G12G 4G 9G 7
   1603687.52649   1249627.79848  21350416.0024   21350416.7694
   6117127.91149   4766592.42147  21805300.4194   21805301.3934
  -5428337.867 8  -4229870.379 8  23115384.232    23115382.325
  -7003362.79649  -5457161.13546  22966313.3894   22966314.2204
  -3512499.73148  -2737010.56245  24620983.7554   24620985.0724
    250951.78549    195547.99848  20220429.3414   20220429.9484
 95  2  9  1 23  0.0000000  0  6G 2G27G12G 4G 9G 7
   1622175.56949   1264034.06048  21353933.9764   21353935.0834
   6204121.51049   4834379.61247  21821854.7894   21821855.3164
  -5506453.972 8  -4290740.032 8  23100519.187    23100517.375
  -7099321.08749  -5531933.77246  22948053.3984   22948054.2904
  -3612404.75448  -2814858.57445  24601973.1774   24601971.8844
    263990.88649    205708.34048  20222910.5594   20222911.1354
 95  2  9  1 23 30.0000000  0  6G 2G27G12G 4G 9G 7
   1640797.26149   1278544.47548  21357477.6834   21357478.3964
   6291462.74449   4902437.69347  21838475.2844   21838475.7654
  -5584533.472 8  -4351581.160 8  23085661.166    23085659.360
  -7195132.52049  -5606591.98946  22929820.7964   22929821.7524
  -3712262.31748  -2892669.58345  24582970.5294   24582973.1964
    277415.06749    216168.75248  20225465.2654   20225465.8624
 95  2  9  1 24  0.0000000  0  6G 2G27G12G 4G 9G 7
   1659548.10749   1293155.53348  21361046.0124   21361046.5284
   6379154.42249   4970768.83447  21855162.5914   21855163.4074
  -5662586.352 8  -4412401.546 8  23070808.142    23070806.300
  -7290817.26949  -5681151.49246  22911612.6854   22911613.8014
  -3812100.36748  -2970465.43045  24563971.7894   24563970.9674
    291220.27349    226926.08448  20228092.1704   20228092.5584
 95  2  9  1 24 30.0000000  0  6G 2G27G12G 4G 9G 7
   1678453.09649   1307886.70748  21364643.7224   21364644.6124
   6467216.81749   5039388.85047  21871920.2904   21871921.0444
  -5740585.142 8  -4473179.779 8  23055965.383    23055963.584
  -7386348.27049  -5755591.18546  22893433.8714   22893435.2554
  -3911881.84648  -3048217.18645  24544983.8744   24544985.8054
    305440.53849    238006.83748  20230798.1524   20230798.7374
 95  2  9  1 25  0.0000000  0  6G 2G27G12G 4G 9G 7
   1697519.57849   1322743.71148  21368271.8444   21368272.2364
   6555654.21649   5108301.10047  21888749.4704   21888750.0234
  -5818522.197 8  -4533909.910 8  23041134.407    23041132.676
  -7481701.56949  -5829892.40746  22875288.7364   22875289.5124
  -4011598.67548  -3125918.58345  24526008.2194   24526010.2704
    320089.53649    249421.65148  20233585.7144   20233586.3004
 95  2  9  1 25 30.0000000  0  6G 2G27G12G 4G 9G 7
   1716766.31449   1337741.16948  21371934.4164   21371935.0164
   6644480.31249   5177516.22247  21905652.5714   21905652.8884
  -5896385.424 8  -4594582.509 8  23026317.465    23026315.722
  -7576847.42749  -5904032.00046  22857182.3954   22857183.4034
  -4111249.81048  -3203568.76545  24507044.9024   24507046.0574
    335192.92349    261190.53348  20236459.8064   20236460.3834
 95  2  9  1 26  0.0000000  0  6G 2G27G12G 4G 9G 7
   1736156.00149   1352850.01548  21375624.0034   21375624.8894
   6733650.78549   5246999.68747  21922621.1654   21922621.4924
  -5974215.272 8  -4655229.101 8  23011506.900    23011505.157
  -7671829.73849  -5978044.14246  22839108.5764   22839108.9524
  -4210871.65548  -3281196.13045  24488088.0434   24488090.9464
    350706.67449    273279.18748  20239412.0454   20239412.6434
 95  2  9  1 26 30.0000000  0  6G 2G27G12G 4G 9G 7
   1755679.56749   1368063.19548  21379339.3044   21379339.6764
   6823164.58549   5316750.66947  21939654.9424   21939655.7264
  -6052006.476 8  -4715845.582 8  22996703.713    22996701.963
  -7766638.82449  -6051921.30846  22821066.9554   22821067.9944
  -4310445.77448  -3358786.33045  24469140.1084   24469140.7344
    366619.99649    285679.19748  20242440.0584   20242440.6814
 95  2  9  1 27  0.0000000  0  6G 2G27G12G 4G 9G 7
   1775376.91949   1383411.79348  21383087.5544   21383088.2504
   6913058.03449   5386797.48547  21956761.2614   21956761.7474
  -6129728.928 8  -4776408.492 8  22981913.532    22981911.918
  -7861238.78249  -6125635.51246  22803064.6244   22803066.1524
  -4409947.28448  -3436319.91445  24450205.1944   24450207.0584
    382940.47049    298396.46448  20245545.7704   20245546.4204
 95  2  9  1 27 30.0000000  0  6G 2G27G12G 4G 9G 7
   1795227.97649   1398880.15748  21386865.0084   21386865.7734
   7003318.53149   5457130.30747  21973937.2564   21973938.3924
  -6207397.157 8  -4836929.153 8  22967133.724    22967132.055
  -7955659.04449  -6199209.70646  22785097.2414   22785098.1444
  -4509375.58248  -3513796.46545  24431284.5644   24431286.5754
    399642.35049    311410.92048  20248723.9524   20248724.6054
 95  2  9  1 28  0.0000000  0  6G 2G27G12G 4G 9G 7
   1815221.52749   1414459.56048  21390669.5574   21390670.2854
   7093949.92849   5527752.13247  21991183.8204   21991184.6224
  -6285017.188 8  -4897412.251 8  22952363.096    22952361.437
  -8049920.78149  -6272660.37846  22767159.9494   22767160.5834
  -4608726.38248  -3591212.59845  24412378.6154   24412378.7934
    416710.64249    324710.89148  20251971.9004   20251972.5334
 95  2  9  1 28 30.0000000  0  6G 2G27G12G 4G 9G 7
   1835380.40949   1430167.79148  21394505.6894   21394506.4624
   7184967.94249   5598675.23747  22008503.9114   22008504.8864
  -6362567.060 8  -4957840.687 8  22937605.752    22937604.111
  -8143987.55449  -6345959.13446  22749259.5354   22749260.1764
  -4707987.58748  -3668558.94945  24393489.9624   24393492.3984
    434150.83749    338300.66548  20255290.7074   20255291.4594
 95  2  9  1 29  0.0000000  0  6G 2G27G12G 4G 9G 7
   1855690.37349   1445993.74648  21398370.4294   21398371.3394
   7276349.10249   5669881.31447  22025893.2004   22025894.4224
  -6440059.106 8  -5018224.066 8  22922859.416    22922857.875
  -8237874.80249  -6419117.98046  22731393.2544   22731393.6224
  -4807182.52948  -3745853.65245  24374613.2974   24374615.2544
    451954.38249    352173.57048  20258678.5074   20258679.0714
 95  2  9  1 29 30.0000000  0  6G 2G27G12G 4G 9G 7
   1876139.29049   1461927.96748  21402261.9584   21402262.3984
   7368073.32649   5741354.71047  22043347.7294   22043348.5454
  -6517499.018 8  -5078566.822 8  22908123.015    22908121.542
  -8331596.93049  -6492148.17846  22713558.5664   22713559.2114
  -4906318.86048  -3823102.67545  24355748.1044   24355749.3204
    470125.71349    366333.06348  20262136.3264   20262136.9474
 95  2  9  1 30  0.0000000  0  6G 2G27G12G 4G 9G 7
   1896726.60649   1477970.03448  21406179.2154   21406179.9024
   7460113.91249   5813074.61147  22060862.3214   22060863.3574
  -6594894.637 8  -5138875.062 8  22893395.154    22893393.611
  -8425161.84049  -6565055.85646  22695753.5824   22695754.5564
  -5005413.54648  -3900319.27145  24336890.9194   24336891.5134
    488649.44349    380767.16048  20265661.3244   20265661.9914
 95  2  9  1 30 30.0000000  0  6G 2G27G12G 4G 9G 7
   1917148.59949   1493883.28148  21410065.7644   21410066.1914
   7552139.42449   5884782.76347  22078374.3084   22078375.7734
  -6672556.537 8  -5199390.801 8  22878616.552    22878615.049
  -8518878.94449  -6638082.12046  22677919.8724   22677920.8414
  -5104772.34148  -3977741.65546  24317983.6374   24317985.6374
    507217.03949    395235.43548  20269194.5344   20269195.1764
 95  2  9  1 31  0.0000000  0  6G 2G27G12G 4G 9G 7
   1937211.92149   1509517.04248  21413883.2184   21413884.0724
   7643945.28149   5956319.75747  22095844.3184   22095845.5124
  -6750689.938 8  -5260273.942 8  22863748.273    22863746.784
  -8612955.77349  -6711388.69546  22660017.4294   22660018.6254
  -5204583.16148  -4055516.25646  24298990.3494   24298991.3044
    525640.34549    409591.27148  20272700.4334   20272701.0464
 95  2  9  1 31 30.0000000  0  6G 2G27G12G 4G 9G 7
   1958248.10749   1525908.88548  21417886.7044   21417887.2874
   7736851.92249   6028714.53147  22113523.9914   22113524.9404
  -6827980.548 8  -5320500.354 8  22849040.341    22849038.875
  -8706069.19949  -6783944.56046  22642298.4954   22642299.3914
  -5303515.02948  -4132605.95446  24280164.3514   24280165.3164
    545235.13149    424859.94248  20276429.1824   20276429.8434
 95  2  9  1 32  0.0000000  0  6G 2G27G12G 4G 9G 7
   1979728.42749   1542646.79648  21421974.0354   21421974.6764
   7830338.14749   6101560.93347  22131313.7124   22131314.8424
  -6904951.518 8  -5380477.695 8  22834393.132    22834391.734
  -8798727.14349  -6856145.50146  22624666.3194   22624666.9194
  -5402086.54248  -4209414.87345  24261406.1634   24261407.8154
    565471.34449    440628.42548  20280279.9464   20280280.5554
 95  2  9  1 32 30.0000000  0  6G 2G27G12G 4G 9G 7
   2001412.72449   1559543.65348  21426100.6964   21426101.2734
   7924181.50849   6174685.62447  22149171.8464   22149172.6854
  -6981829.675 8  -5440382.715 8  22819763.686    22819762.222
  -8891146.47349  -6928160.51346  22607079.4574   22607079.9534
  -5500525.50148  -4286120.50546  24242674.0724   24242676.2444
    586134.65649    456729.72748  20284212.2444   20284212.7274
 95  2  9  1 33  0.0000000  0  6G 2G27G12G 4G 9G 7
   2023235.79549   1576548.66348  21430253.2634   21430253.8954
   8018331.50149   6248049.24647  22167087.5344   22167088.3584
  -7058668.323 8  -5500256.951 8  22805141.789    22805140.281
  -8983377.58249  -7000028.86546  22589528.5724   22589529.6384
  -5598899.15048  -4362775.26646  24223954.1904   24223954.4164
    607170.13349    473121.03548  20288215.0484   20288215.5934
 95  2  9  1 33 30.0000000  0  6G 2G12G 4G27G 9G 7
   2045155.01549   1593628.59348  21434424.4984   21434425.1554
  -7135477.754 8  -5560108.422 8  22790525.345    22790523.885
  -9075433.15349  -7071760.42847  22572010.6574   22572011.5054
   8112771.82749   6321639.11147  22185059.2154   22185060.0704
  -5697235.01048  -4439400.55546  24205241.0524   24205242.0464
    628557.86649    489786.82148  20292284.8914   20292285.4314
 95  2  9  1 34  0.0000000  0  6G 2G12G 4G27G 9G 7
   2067140.35749   1610760.03748  21438608.2564   21438608.4454
  -7212258.907 8  -5619937.855 8  22775914.374    22775912.894
  -9167313.25549  -7143355.26847  22554526.4634   22554527.0184
   8207499.87949   6395453.15747  22203085.3224   22203086.1554
  -5795544.46448  -4516005.27946  24186533.7314   24186535.9024
    650289.83449    506720.84248  20296420.3704   20296420.9204
 95  2  9  1 34 30.0000000  0  6G 2G12G 4G27G 9G 7
   2089230.19149   1627972.90147  21442811.6994   21442812.3994
  -7288978.670 8  -5679719.454 8  22761315.030    22761313.591
  -9258994.91349  -7214795.46146  22537080.1174   22537080.8244
   8302547.57049   6469516.26447  22221172.3794   22221173.3204
  -5893798.77348  -4592567.01646  24167836.7874   24167836.5334
    672391.47349    523942.90848  20300626.1974   20300626.7734
 95  2  9  1 35  0.0000000  0  6G 2G12G 4G27G 9G 7
   2111423.48849   1645266.39748  21447035.2014   21447035.5904
  -7365645.875 8  -5739460.101 8  22746725.768    22746724.274
  -9350485.63249  -7286086.88747  22519669.7234   22519670.7984
   8397904.76949   6543820.56147  22239318.6034   22239319.3964
  -5992005.82648  -4669091.96146  24149148.3514   24149147.4324
    694833.71049    541430.36748  20304896.6114   20304897.2244
 95  2  9  1 35 30.0000000  0  6G 2G12G 4G27G 9G 7
   2133752.55149   1662665.68048  21451283.9474   21451284.5304
  -7442232.766 8  -5799138.167 8  22732151.661    22732150.289
  -9441750.72149  -7357202.49947  22502302.3554   22502303.4424
   8493592.02849   6618382.03747  22257527.0834   22257528.0054
  -6090133.34748  -4745554.95446  24130475.5484   24130476.2364
    717637.12549    559199.27348  20309236.0594   20309236.7874
 95  2  9  1 36  0.0000000  0  6G 2G12G 4G27G 9G 7
   2156269.07949   1680211.04148  21455568.8364   21455569.2494
  -7518711.034 8  -5858731.590 8  22717598.385    22717596.937
  -9532758.63549  -7428117.71047  22484984.2224   22484985.0034
   8589634.29649   6693220.15447  22275803.4554   22275804.3464
  -6188148.12648  -4821930.06146  24111823.5364   24111823.7184
    740818.98749    577263.07648  20313647.4354   20313648.0414
 95  2  9  1 36 30.0000000  0  6G 2G12G 4G27G 9G 7
   2179000.12049   1697923.55347  21459894.2034   21459895.0104
  -7595084.040 8  -5918242.994 8  22703065.012    22703063.607
  -9623517.32949  -7498838.72647  22467713.6634   22467714.4164
   8686011.27049   6768319.06147  22294143.3394   22294144.3764
  -6286056.79248  -4898222.51046  24093192.1824   24093194.6544
    764367.80649    595612.82248  20318128.5884   20318129.1604
 95  2  9  1 37  0.0000000  0  6G 2G12G 4G27G 9G 7
   2201955.87449   1715811.16347  21464262.5324   21464263.3254
  -7671343.978 8  -5977666.291 8  22688553.210    22688551.818
  -9714011.17249  -7569353.35747  22450493.1034   22450494.1164
   8782726.71349   6843681.72647  22312547.7244   22312548.5444
  -6383848.10148  -4974423.47446  24074583.0924   24074584.5314
    788290.98949    614254.27448  20322681.0184   20322681.5824
 95  2  9  1 37 30.0000000  0  6G 2G12G 4G27G 9G 7
   2225117.26749   1733859.01747  21468669.9114   21468670.6104
  -7747511.839 8  -6037017.833 8  22674058.887    22674057.592
  -9804261.64049  -7639678.35147  22433319.0944   22433318.8614
   8879748.91349   6919283.42647  22331010.4504   22331011.0104
  -6481530.01948  -5050539.22846  24055995.0884   24055995.7814
    812563.98549    633168.31148  20327300.1014   20327300.6534
 95  2  9  1 38  0.0000000  0  6G 2G12G 4G27G 9G 7
   2248461.42249   1752049.27447  21473112.1694   21473113.1474
  -7823613.840 8  -6096318.059 8  22659577.062    22659575.873
  -9894302.94149  -7709840.34947  22416184.5874   22416186.0724
   8977053.48549   6995105.14847  22349527.0134   22349527.8644
  -6579116.37748  -5126580.51046  24037424.5534   24037426.5834
    837150.70149    652326.80748  20331978.6274   20331979.1614
 95  2  9  1 38 30.0000000  0  6G 2G12G 4G27G 9G 7
   2271996.11449   1770388.00047  21477590.7794   21477591.3014
  -7899630.273 8  -6155551.615 8  22645111.717    22645110.365
  -9984119.99749  -7779827.61447  22399093.1664   22399093.9134
   9074655.87749   7071158.93647  22368100.0414   22368100.4344
  -6676581.96148  -5202527.66846  24018877.4514   24018878.7284
    862078.07149    671750.73848  20336722.0904   20336722.7394
 95  2  9  1 39  0.0000000  0  6G 2G12G 4G27G 9G 7
   2295666.05949   1788832.11747  21482094.9474   21482095.6464
  -7975578.523 8  -6214732.042 8  22630659.143    22630657.835
 -10073718.13549  -7849644.29147  22382043.2054   22382044.3644
   9172534.90249   7147428.27347  22386726.1154   22386727.0444
  -6773931.80348  -5278384.64046  24000352.0984   24000352.9844
    887336.15349    691432.36348  20341528.6394   20341529.3374
 95  2  9  1 39 30.0000000  0  6G 2G12G 4G27G 9G 7
   2319455.90249   1807369.66647  21486621.7274   21486622.6384
  -8051461.616 8  -6273861.694 8  22616219.127    22616217.705
 -10163102.64349  -7919294.50647  22365033.8104   22365035.0324
   9270681.28649   7223905.97847  22405402.6394   22405403.0694
  -6871169.50748  -5354154.24046  23981848.3314   23981849.4544
    912921.08249    711368.67648  20346397.3334   20346398.0724
 95  2  9  1 40  0.0000000  0  6G 2G12G 4G27G 9G 7
   2343394.83449   1826023.38447  21491177.5114   21491178.2854
  -8127248.764 8  -6332916.594 8  22601797.235    22601795.903
 -10252245.12449  -7988756.11647  22348070.3134   22348071.3474
   9369133.18249   7300621.73747  22424137.2084   22424137.7164
  -6968281.08748  -5429825.53346  23963369.0764   23963370.9904
    938871.85149    731590.06748  20351335.5384   20351336.1224
 95  2  9  1 40 30.0000000  0  6G 2G12G 4G27G 9G 7
   2367470.20449   1844783.40947  21495758.6634   21495759.5164
  -8202939.761 8  -6391896.563 8  22587393.727    22587392.385
 -10341132.05849  -8058018.60447  22331155.6174   22331156.6194
   9467882.41049   7377569.18146  22442928.4234   22442929.7364
  -7065274.05848  -5505404.42746  23944911.8124   23944912.6564
    965198.42549    752104.30048  20356345.3304   20356345.9464
 95  2  9  1 41  0.0000000  0  6G 2G12G 4G27G 9G 7
   2391682.00649   1863649.74247  21500365.8634   21500366.8474
  -8278550.352 8  -6450813.871 8  22573005.520    22573004.064
 -10429775.26649  -8127091.17347  22314287.4904   22314288.6964
   9566906.60449   7454730.88046  22461772.1464   22461773.1234
  -7162161.75048  -5580901.27146  23926474.3944   23926475.6914
    991873.62649    772890.19348  20361421.4654   20361422.0304
 95  2  9  1 41 30.0000000  0  6G 2G12G 4G27G 9G 7
   2416069.94049   1882653.33347  21505006.9814   21505007.5904
  -8354068.896 8  -6509659.453 8  22558634.749    22558633.307
 -10518178.08149  -8195976.42947  22297465.1404   22297465.9924
   9666229.43349   7532125.28147  22480672.8874   22480673.3884
  -7258943.62248  -5656315.67146  23908057.7014   23908058.3414
   1018893.28049    793944.48948  20366563.2274   20366563.6864
 95  2  9  1 42  0.0000000  0  6G 2G12G 4G27G 9G 7
   2440644.37349   1901802.25547  21509683.3884   21509684.1714
  -8429483.606 8  -6568424.121 8  22544283.844    22544282.352
 -10606325.13649  -8264662.38547  22280691.5634   22280692.0664
   9765851.48649   7609752.83046  22499630.3334   22499631.0194
  -7355603.87448  -5731635.32046  23889664.0514   23889666.2194
   1046272.97649    815279.32748  20371773.3914   20371773.9964
 95  2  9  1 42 30.0000000  0  6G 2G12G 4G27G 9G 7
   2465426.49249   1921113.00447  21514399.2844   21514399.9194
  -8504767.712 8  -6627087.024 8  22529957.677    22529956.266
 -10694184.95249  -8333124.52547  22263972.2044   22263972.4714
   9865775.37349   7687615.57146  22518645.0714   22518645.0934
  -7452112.10748  -5806836.49246  23871298.9014   23871300.0704
   1074025.75149    836904.86748  20377054.4574   20377054.9864
 95  2  9  1 43  0.0000000  0  6G 2G12G 4G27G 9G 7
   2490407.38449   1940578.64247  21519152.8374   21519153.3934
  -8579943.075 8  -6685665.203 8  22515652.239    22515650.838
 -10781795.25349  -8401392.23547  22247300.3484   22247300.9134
   9965979.15949   7765696.41646  22537713.1874   22537713.9404
  -7548492.25848  -5881937.85046  23852957.7044   23852959.3304
   1102108.50849    858787.54348  20382398.5154   20382399.0834
 95  2  9  1 43 30.0000000  0  6G 2G12G 4G27G 9G 7
   2515586.15949   1960198.48047  21523944.1994   21523944.8354
  -8654989.747 8  -6744143.100 8  22501371.310    22501369.940
 -10869132.09049  -8469446.85547  22230680.7824   22230681.3854
  10066476.49549   7844006.02346  22556837.6494   22556839.0784
  -7644730.81748  -5956928.89746  23834645.0554   23834646.0354
   1130543.95549    880945.05348  20387809.4964   20387810.1494
 95  2  9  1 44  0.0000000  0  6G 2G12G 4G27G 9G 7
   2540941.66849   1979956.02647  21528769.3994   21528770.1714
  -8729915.971 8  -6802527.131 8  22487113.269    22487111.915
 -10956196.26149  -8537289.02447  22214112.8894   22214113.4804
  10167238.21849   7922521.66046  22576011.3094   22576012.6524
  -7740828.24348  -6031809.96346  23816358.0164   23816359.2384
   1159327.60749    903373.89048  20393286.8964   20393287.5024
 95  2  9  1 44 30.0000000  0  6G 2G12G 4G27G 9G 7
   2566471.57549   1999849.47047  21533627.6024   21533628.3414
  -8804719.686 8  -6860815.704 8  22472878.634    22472877.259
 -11042992.09849  -8604922.09947  22197596.1194   22197596.4314
  10268275.09949   8001251.69546  22595238.3604   22595239.5734
  -7836792.42948  -6106587.22146  23798096.3394   23798095.9784
   1188439.09549    926058.17848  20398826.6134   20398827.0874
 95  2  9  1 45  0.0000000  0  6G 2G12G 4G27G 9G 7
   2592181.14849   2019882.90547  21538519.6584   21538520.5564
  -8879392.920 8  -6919002.606 8  22458668.728    22458667.438
 -11129502.51649  -8672332.77647  22181133.5964   22181134.1424
  10369606.49049   8080211.22646  22614521.1024   22614522.2654
  -7932615.43048  -6181254.44646  23779861.9434   23779861.7214
   1217888.63949    949005.88548  20404430.7454   20404431.1584
 95  2  9  1 45 30.0000000  0  6G 2G12G 4G27G 9G 7
   2618070.34849   2040056.31247  21543446.3014   21543447.1174
  -8953926.327 8  -6977080.556 8  22444485.479    22444484.113
 -11215698.32349  -8739498.30447  22164731.2284   22164731.3564
  10471234.22249   8159401.66446  22633860.4174   22633861.4184
  -8028278.64048  -6255797.15446  23761658.1454   23761658.9544
   1247695.98049    972232.38648  20410102.8814   20410103.3644
 95  2  9  1 46  0.0000000  0  6G 2G12G 4G27G 9G 7
   2644147.48749   2060376.17747  21548408.8084   21548409.6714
  -9028320.517 8  -7035050.028 8  22430328.711    22430327.378
 -11301574.52849  -8806414.78647  22148389.3494   22148389.7124
  10573159.90149   8238824.26046  22653255.9534   22653256.7004
  -8123781.32148  -6330214.77046  23743484.5804   23743486.2394
   1277849.09449    995728.32748  20415840.7794   20415841.2734
 95  2  9  1 46 30.0000000  0  6G 2G12G 4G27G 9G 7
   2670406.87549   2080838.04647  21553405.8134   21553406.8174
  -9102585.140 9  -7092918.535 8  22416196.551    22416195.279
 -11387133.81649  -8873084.32347  22132107.8314   22132108.0794
  10675373.91149   8318471.53646  22672706.4554   22672707.2974
  -8219127.62148  -6404510.56046  23725340.9714   23725341.9284
   1308330.53949   1019480.11248  20421641.1654   20421641.7494
 95  2  9  1 47  0.0000000  0  6G 2G12G 4G27G 9G 7
   2696848.74949   2101442.11047  21558437.3504   21558438.0734
  -9176732.750 9  -7150695.867 8  22402086.694    22402085.469
 -11472383.82749  -8939512.86347  22115885.2614   22115885.4424
  10777851.26049   8398323.99146  22692207.3964   22692208.3424
  -8314312.37348  -6478680.43046  23707227.5944   23707228.0814
   1339132.23549   1043481.44348  20427502.5324   20427503.0394
 95  2  9  1 47 30.0000000  0  6G 2G12G 4G27G 9G 7
   2723475.23849   2122190.04247  21563504.2864   21563504.9614
  -9250763.084 9  -7208381.817 8  22387999.175    22387997.947
 -11557335.85249  -9005709.20947  22099719.5314   22099720.1454
  10880588.23349   8478378.74046  22711757.3364   22711758.4364
  -8409326.47748  -6552717.33246  23689146.8514   23689147.8774
   1370246.48949   1067726.31848  20433423.3764   20433423.8484
 95  2  9  1 48  0.0000000  0  6G 2G12G 4G27G 9G 7
   2750283.56249   2143079.65847  21568605.6404   21568606.5284
  -9324667.484 9  -7265969.630 8  22373935.630    22373934.384
 -11641989.21849  -9071672.83747  22083610.5634   22083610.8104
  10983595.23649   8558643.91346  22731359.0784   22731359.6674
  -8504187.55448  -6626635.00846  23671095.0794   23671095.4954
   1401678.37449   1092218.69948  20439404.6134   20439405.1994
 95  2  9  1 48 30.0000000  0  5G 2G12G 4G 9G 7
   2777266.69949   2164105.48147  21573740.2234   21573741.1564
  -9398449.197 9  -7323461.840 8  22359895.350    22359894.155
 -11726361.18549  -9137417.18747  22067554.9174   22067555.2984
  -8598900.97848  -6700437.61646  23653071.7904   23653072.2924
   1433425.57649   1116956.78448  20445445.8774   20445446.4294
 95  2  9  1 49  0.0000000  0  5G 2G12G 4G 9G 7
   2804415.65549   2185260.51647  21578906.9974   21578907.3364
  -9472113.396 9  -7380862.487 8  22345877.477    22345876.363
 -11810455.46949  -9202945.16247  22051552.2114   22051552.6604
  -8693490.50048  -6774143.68646  23635072.3614   23635073.3534
   1465487.91349   1141940.43448  20451547.1764   20451547.7184
 95  2  9  1 49 30.0000000  0  5G 2G12G 4G 9G 7
   2831692.95749   2206515.55747  21584097.5284   21584098.0324
  -9545676.532 9  -7438184.377 8  22331878.867    22331877.725
 -11894284.44649  -9268266.40247  22035600.0334   22035600.9274
  -8787991.27548  -6847780.61146  23617089.1644   23617089.5464
   1497853.20849   1167160.16048  20457706.1114   20457706.6564
 95  2  9  1 50  0.0000000  0  5G 2G12G 4G 9G 7
   2859143.05149   2227905.24747  21589320.9664   21589321.4494
  -9619095.207 9  -7495393.700 8  22317907.687    22317906.552
 -11977807.14749  -9333348.98747  22019706.2554   22019707.0914
  -8882359.00948  -6921313.84946  23599131.2434   23599131.0374
   1530559.30049   1192645.44148  20463929.9104   20463930.4764
 95  2  9  1 50 30.0000000  0  5G 2G12G 4G 9G 7
   2886807.24249   2249461.76547  21594585.4324   21594585.7044
  -9692344.592 9  -7552471.113 8  22303968.802    22303967.637
 -12060999.23949  -9398173.94847  22003875.3584   22003875.9154
  -8976537.34348  -6994699.51446  23581209.8114   23581210.0404
   1563614.83949   1218403.01848  20470220.0894   20470220.6254
 95  2  9  1 51  0.0000000  0  5G12G 4G 2G 9G 7
  -9765424.084 9  -7609416.142 8  22290062.228    22290060.998
 -12143846.21749  -9462730.00147  21988110.1754   21988110.5124
   2914684.57749   2271184.37447  21599890.2934   21599890.5584
  -9070519.95048  -7067932.66346  23563325.5574   23563325.8204
   1597010.81349   1244425.86848  20476574.9364   20476575.5764
 95  2  9  1 51 30.0000000  0  5G12G 4G 2G 9G 7
  -9838333.236 9  -7666228.450 8  22276188.047    22276186.831
 -12226355.55949  -9527022.95047  21972409.2344   21972409.3584
   2942776.95249   2293074.54447  21605236.2014   21605236.5664
  -9164285.74148  -7140996.87546  23545482.4944   23545483.4254
   1630725.30449   1270696.90848  20482990.5784   20482991.2504
 95  2  9  1 52  0.0000000  0  5G12G 4G 2G 9G 7
  -9911058.328 9  -7722897.335 8  22262348.956    22262347.682
 -12308518.82049  -9591046.22947  21956773.8654   21956774.3414
   2971120.00049   2315160.04647  21610629.4264   21610629.8694
  -9257814.26448  -7213876.20446  23527684.4134   23527685.2444
   1664755.60349   1297214.03048  20489466.3904   20489466.8804
 95  2  9  1 52 30.0000000  0  5G12G 4G 2G 9G 7
  -9983637.338 9  -7779452.376 8  22248537.619    22248536.353
 -12390354.69149  -9654814.39747  21941201.0944   21941201.4264
   2999672.04249   2337408.39847  21616062.3914   21616063.4654
  -9351153.23748  -7286607.82146  23509922.8784   23509923.5584
   1699068.75449   1323951.56248  20495996.0964   20495996.7444
 95  2  9  1 53  0.0000000  0  5G12G 4G 2G 9G 7
 -10056065.960 9  -7835890.225 8  22234754.831    22234753.642
 -12471858.20949  -9718323.58947  21925691.2744   21925691.8404
   3028424.85349   2359813.19047  21621534.2014   21621535.2594
  -9444315.57048  -7359201.80746  23492194.4924   23492194.6324
   1733677.31149   1350919.28548  20502581.9204   20502582.4194
 95  2  9  1 53 30.0000000  0  5G12G 4G 2G 9G 7
 -10128377.875 9  -7892237.142 8  22220994.291    22220993.125
 -12553063.64749  -9781600.51047  21910238.3264   21910238.5774
   3057343.10749   2382346.90347  21627037.3284   21627037.8334
  -9537340.85948  -7431689.00046  23474492.4474   23474493.3674
   1768555.55849   1378097.15548  20509218.9204   20509219.4314
 95  2  9  1 54  0.0000000  0  5G12G 4G 2G 9G 7
 -10200565.482 9  -7948487.202 8  22207257.394    22207256.208
 -12633951.78049  -9844630.17647  21894845.8584   21894846.2384
   3086427.75249   2405010.27547  21632571.6084   21632572.3704
  -9630238.08348  -7504076.41146  23456814.5934   23456814.8414
   1803730.24949   1405506.01548  20515912.5204   20515912.9934
 95  2  9  1 54 30.0000000  0  5G12G 4G 2G 9G 7
 -10272602.865 9  -8004620.198 8  22193549.158    22193547.957
 -12714487.08249  -9907384.91847  21879520.5454   21879520.9334
   3115683.30649   2427806.81147  21638138.8364   21638139.9964
  -9722979.67748  -7576342.54046  23439166.7724   23439167.4324
   1839239.19449   1433175.33348  20522669.6404   20522670.0404
 95  2  9  1 55  0.0000000  0  5G12G 4G 2G 9G 7
 -10344487.408 9  -8060634.096 8  22179869.990    22179868.752
 -12794682.56949  -9969874.86747  21864259.7504   21864260.0994
   3145108.95049   2450735.88747  21643738.7224   21643739.2544
  -9815556.39448  -7648480.20346  23421549.6474   23421550.8464
   1875072.92849   1461097.73348  20529488.3864   20529488.9194
 95  2  9  1 55 30.0000000  0  5G12G 4G 2G 9G 7
 -10416225.064 9  -8116533.543 8  22166218.696    22166217.497
 -12874544.04949 -10032104.55347  21849062.4724   21849062.9834
   3174700.98549   2473794.62347  21649369.6934   21649370.0574
  -9907968.59848  -7720489.68046  23403964.4054   23403965.3464
   1911212.03149   1489258.08248  20536365.4774   20536366.0544
 95  2  9  1 56  0.0000000  0  5G12G 4G 2G 9G 7
 -10487785.180 9  -8172294.655 8  22152601.213    22152600.038
 -12954045.39449 -10094053.61247  21833933.9844   21833934.4184
   3204488.08749   2497005.36447  21655037.8934   21655038.0994
 -10000172.83448  -7792337.10346  23386418.9634   23386419.8544
   1947670.33949   1517667.16548  20543303.2624   20543303.8804
 95  2  9  1 56 30.0000000  0  5G12G 4G 2G 9G 7
 -10559152.433 9  -8227905.485 8  22139020.474    22139019.297
 -13033188.68649 -10155723.67247  21818873.5864   21818873.9624
   3234486.10249   2520380.44847  21660746.3454   21660746.8594
 -10092142.81448  -7864001.99646  23368916.9824   23368916.3504
   1984438.16549   1546317.42848  20550299.9894   20550300.4994
 95  2  9  1 57  0.0000000  0  5G12G 4G 2G 9G 7
 -10630303.647 9  -8283347.965 8  22125480.844    22125479.674
 -13111964.19349 -10217107.14347  21803883.0904   21803883.3874
   3264729.08149   2543946.40947  21666501.8224   21666502.2354
 -10183856.48248  -7935467.15846  23351464.3094   23351465.0844
   2021516.22049   1575209.43048  20557355.7194   20557356.1964
 95  2  9  1 57 30.0000000  0  5G12G 4G 2G 9G 7
 -10701249.831 9  -8338630.680 8  22111980.227    22111979.002
 -13190372.55349 -10278204.53147  21788962.2924   21788962.4474
   3295202.85749   2567692.21147  21672300.1774   21672300.7024
 -10275320.51048  -8006737.80946  23334059.5324   23334060.3184
   2058889.97049   1604331.83948  20564467.6654   20564468.2504
 95  2  9  1 58  0.0000000  0  5G12G 4G 2G 9G 7
 -10771989.170 9  -8393752.218 8  22098518.897    22098517.769
 -13268410.83249 -10339013.54347  21774112.1464   21774112.2614
   3325908.83649   2591618.95147  21678143.1454   21678144.2214
 -10366530.46348  -8077810.46646  23316702.9244   23316703.2764
   2096564.36949   1633688.52148  20571636.7774   20571637.3774
 95  2  9  1 58 30.0000000  0  5G12G 4G 2G 9G 7
 -10842542.161 9  -8448728.552 8  22085093.155    22085091.921
 -13346090.47949 -10399543.09847  21759330.1804   21759330.4204
   3356831.78049   2615714.75147  21684027.6474   21684028.4794
 -10457514.71749  -8148707.26846  23299389.5874   23299389.1254
   2134515.81349   1663261.08748  20578858.8154   20578859.4274
 95  2  9  1 59  0.0000000  0  5G12G 4G 2G 9G 7
 -10912940.564 9  -8503584.423 8  22071696.750    22071695.553
 -13423414.02549 -10459795.16347  21744616.0354   21744616.0784
   3387933.61649   2639949.95947  21689946.6654   21689947.4634
 -10548300.63349  -8219449.50746  23282113.3724   23282113.8954
   2172724.98149   1693034.47548  20586129.7684   20586130.2694
 95  2  9  1 59 30.0000000  0  5G12G 4G 2G 9G 7
 -10983177.357 9  -8558314.361 8  22058331.137    22058329.924
 -13500355.28049 -10519749.34747  21729974.4104   21729974.6044
   3419213.96849   2664324.26347  21695898.8294   21695899.3014
 -10638879.94849  -8290030.78546  23264876.7444   23264877.0894
   2211212.75049   1723024.95448  20593453.6984   20593454.2114
 95  2  9  2  0  0.0000000  0  5G12G 4G 2G 9G 7
 -11053275.512 9  -8612936.273 8  22044991.800    22044990.655
 -13576943.82349 -10579428.68847  21715400.2134   21715400.4524
   3450658.08649   2688826.17047  21701882.4874   21701883.4354
 -10729282.03248  -8360473.94346  23247673.1204   23247673.0504
   2249949.91549   1753209.76548  20600825.0664   20600825.6484
 95  2  9  2  0 30.0000000  0  5G12G 4G 2G 9G 7
 -11123240.629 9  -8667454.526 8  22031677.900    22031676.768
 -13653177.11049 -10638831.20747  21700893.5134   21700893.9714
   3482253.38849   2713445.89247  21707894.8004   21707895.4474
 -10819515.55548  -8430785.75746  23230502.3434   23230502.8024
   2288920.75349   1783576.65848  20608241.0014   20608241.6514
 95  2  9  2  1  0.0000000  0  5G12G 4G 2G 9G 7
 -11193079.777 9  -8721874.620 8  22018387.881    22018386.832
 -13729079.02149 -10697975.50847  21686449.6984   21686449.6634
   3513983.37049   2738170.55247  21713932.7204   21713933.4684
 -10909588.27348  -8500972.25746  23213362.3464   23213362.2284
   2328116.69749   1814118.95848  20615699.7804   20615700.4224
 95  2  9  2  1 30.0000000  0  5G12G 4G 2G 9G 7
 -11262756.802 9  -8776168.381 8  22005128.745    22005127.730
 -13804644.30449 -10756857.51047  21672070.1774   21672070.3744
   3545890.28849   2763033.08247  21720004.5164   21720005.4514
 -10999472.12349  -8571011.60046  23196258.2664   23196258.8484
   2367559.10749   1844853.31348  20623205.3994   20623206.0274
 95  2  9  2  2  0.0000000  0  5G12G 4G 2G 9G 7
 -11332248.963 9  -8830318.100 8  21991904.797    21991903.775
 -13879867.41649 -10815472.88847  21657755.5664   21657755.8254
   3577993.51049   2788048.58347  21726113.6004   21726113.9854
 -11089145.51148  -8640886.92246  23179193.8944   23179193.9944
   2407250.52749   1875781.69648  20630758.2994   20630758.9144
 95  2  9  2  2 30.0000000  0  5G12G 4G 2G 9G 7
 -11401531.731 9  -8884304.649 8  21978720.752    21978719.715
 -13954719.78149 -10873799.37047  21643511.4854   21643511.8324
   3610300.07849   2813222.54647  21732261.4054   21732262.2994
 -11178584.08849  -8710579.29346  23162174.3444   23162174.6414
   2447234.80749   1906938.28348  20638367.0814   20638367.4884
 95  2  9  2  3  0.0000000  0  5G12G 4G 2G 9G 7
 -11470613.181 9  -8938134.322 8  21965574.971    21965573.929
 -14029219.32749 -10931850.93047  21629334.5314   21629334.7274
   3642797.54449   2838545.24947  21738445.1954   21738446.1904
 -11267796.91949  -8780095.74046  23145197.4114   23145197.3924
   2487512.00049   1938323.11248  20646031.6514   20646032.1824
 95  2  9  2  3 30.0000000  0  5G12G 4G 2G 9G 7
 -11539472.973 9  -8991791.282 8  21952471.355    21952470.349
 -14103324.21449 -10989594.96547  21615232.9774   21615233.2054
   3675505.26549   2864031.78647  21744669.4934   21744670.0824
 -11356762.21949  -8849419.30846  23128268.0644   23128268.0654
   2528106.36249   1969955.09148  20653756.5924   20653757.1114
 95  2  9  2  4  0.0000000  0  5G12G 4G 2G 9G 7
 -11608110.393 9  -9045274.970 8  21939410.055    21939409.061
 -14177008.39049 -11047011.17247  21601211.3094   21601211.5884
   3708429.98549   2889687.41847  21750934.8884   21750935.5114
 -11445477.17549  -8918547.79546  23111386.3534   23111386.5544
   2569024.37249   2001839.27148  20661542.9374   20661543.4254
 95  2  9  2  4 30.0000000  0  5G12G 4G 2G 9G 7
 -11676537.346 9  -9098594.667 8  21926388.841    21926387.831
 -14250272.85949 -11104100.33747  21587269.6234   21587269.6084
   3741565.33949   2915507.17647  21757240.3774   21757240.7334
 -11533948.19049  -8987486.20146  23094550.4794   23094551.0634
   2610258.20249   2033969.54548  20669389.5284   20669389.8844
 95  2  9  2  5  0.0000000  0  5G12G 4G 2G 9G 7
 -11744731.686 9  -9151733.107 8  21913411.848    21913410.836
 -14323094.27749 -11160844.27047  21573412.2944   21573412.1874
   3774946.01549   2941518.10347  21763592.1564   21763592.8934
 -11622150.42449  -9056215.16146  23077766.3394   23077766.4194
   2651801.03649   2066340.59948  20677294.8334   20677295.3734
 95  2  9  2  5 30.0000000  0  5G12G 4G 2G 9G 7
 -11812698.738 9  -9204694.421 8  21900478.113    21900477.104
 -14395480.75349 -11217249.28547  21559637.5334   21559637.3574
   3808579.75149   2967726.21647  21769992.6134   21769993.1224
 -11710094.65749  -9124743.09246  23061030.6014   23061030.4244
   2693633.50949   2098937.34348  20685255.3724   20685255.7144
 95  2  9  2  6  0.0000000  0  5G12G 4G 2G 9G 7
 -11880409.086 9  -9257455.701 8  21887593.247    21887592.228
 -14467424.63949 -11273309.42347  21545947.1934   21545947.2004
   3842499.87649   2994157.48447  21776447.4724   21776447.9554
 -11797754.33449  -9193049.27646  23044349.5134   23044349.6424
   2735772.61449   2131773.01948  20693274.1114   20693274.5044
 95  2  9  2  6 30.0000000  0  5G12G 4G 2G 9G 7
 -11947874.212 9  -9310025.908 8  21874755.022    21874754.002
 -14538957.36349 -11329049.18047  21532334.6204   21532334.8044
   3876665.81149   3020780.28247  21782948.9364   21782949.5114
 -11885145.10449  -9261145.93646  23027719.6734   23027719.9224
   2778193.89049   2164828.57248  20701346.5224   20701346.7164
 95  2  9  2  7  0.0000000  0  5G12G 4G 2G 9G 7
 -12015108.344 9  -9362416.122 8  21861960.744    21861959.765
 -14610095.84049 -11384481.73247  21518797.4044   21518797.5034
   3911057.29849   3047578.84047  21789493.2794   21789493.6354
 -11972296.83249  -9329056.32746  23011135.1604   23011135.1034
   2820876.24549   2198087.56148  20709468.7284   20709469.0644
 95  2  9  2  7 30.0000000  0  5G12G 4G 2G 9G 7
 -12082113.098 9  -9414627.604 8  21849210.211    21849209.181
 -14680841.70449 -11439608.35547  21505334.9714   21505335.3644
   3945665.71349   3074546.43747  21796079.1414   21796079.8664
 -12059207.38249  -9396778.78446  22994596.9844   22994596.9134
   2863809.38649   2231541.96048  20717638.6354   20717638.9674
 95  2  9  2  8  0.0000000  0  5G12G 4G 2G 9G 7
 -12148849.598 9  -9466630.051 8  21836510.642    21836509.632
 -14751136.14049 -11494383.20847  21491958.5154   21491958.5784
   3980514.26749   3101701.15447  21802710.8494   21802711.2074
 -12145832.35149  -9464278.72446  22978112.5214   22978112.9844
   2907016.08849   2265209.52148  20725860.5684   20725860.8734
 95  2  9  2  8 30.0000000  0  5G12G 4G 2G 9G 7
 -12215349.660 9  -9518448.266 8  21823856.070    21823855.043
 -14820989.49949 -11548814.36447  21478665.6334   21478665.8564
   4015563.16249   3129011.97247  21809380.0634   21809380.7424
 -12232200.03149  -9531578.17146  22961677.5544   22961678.0044
   2950462.30549   2299063.72048  20734128.1774   20734128.6414
 95  2  9  2  9  0.0000000  0  6G12G 4G 2G 9G 5G 7
 -12281608.935 9  -9570078.859 8  21811247.386    21811246.362
 -14890387.36549 -11602890.58847  21465459.7194   21465459.8294
   4050846.06649   3156505.14147  21816094.4854   21816094.7814
 -12318291.97249  -9598662.76446  22945294.7374   22945295.5114
        -0.22658         0.20455  25243054.7714   25243052.9334
   2994149.88949   2333106.00048  20742441.5214   20742442.0004
 95  2  9  2  9 30.0000000  0  6G12G 4G 2G 9G 5G 7
 -12345912.389 9  -9620185.437 8  21799010.806    21799009.776
 -14957614.39749 -11655275.25547  21452666.7134   21452666.5834
   4088079.57449   3185518.26647  21823179.6234   21823180.3234
 -12402376.88749  -9664183.43746  22929293.5884   22929293.9124
    -73852.76548    -57547.21245  25229000.9294   25229003.3074
   3039788.51649   2368668.57748  20751126.1144   20751126.6314
 95  2  9  2 10  0.0000000  0  6G12G 4G 2G 9G 5G 7
 -12401133.872 9  -9663215.148 8  21788502.523    21788501.457
 -15015548.14549 -11700418.40347  21441642.4484   21441642.2784
   4134388.84949   3221603.41647  21831992.3664   21831993.1964
 -12477330.27649  -9722588.64647  22915030.8054   22915030.8634
   -138942.38148   -108266.31345  25216615.0274   25216616.1124
   3094521.13249   2411317.38148  20761541.5894   20761542.0304
 95  2  9  2 10 30.0000000  0  6G12G 4G 2G 9G 5G 7
 -12463065.588 9  -9711473.609 8  21776717.231    21776716.269
 -15079997.27349 -11750638.47447  21429378.0644   21429377.9064
   4173985.79349   3252458.17647  21839527.2494   21839527.6154
 -12558930.31849  -9786173.06447  22899502.6094   22899502.9314
   -211067.79048   -164467.85245  25202889.9064   25202891.3554
   3142573.87049   2448761.08648  20770685.7314   20770686.3314
 95  2  9  2 11  0.0000000  0  6G12G 4G 2G 9G 5G 7
 -12531985.705 9  -9765177.581 8  21763602.259    21763601.157
 -15151245.19549 -11806156.30447  21415820.0264   21415819.9584
   4206599.06549   3277871.11447  21845733.0014   21845733.8704
 -12647455.90549  -9855154.00547  22882656.6734   22882657.2784
   -290488.39348   -226354.00545  25187776.5124   25187781.9844
   3183662.02749   2480777.84448  20778504.4324   20778505.0994
 95  2  9  2 11 30.0000000  0  6G12G 4G 2G 9G 5G 7
 -12602475.483 9  -9820104.675 8  21750188.464    21750187.411
 -15223865.81849 -11862743.77647  21402000.7934   21402000.7044
   4237619.61049   3302042.96647  21851636.2534   21851636.9574
 -12737507.94949  -9925324.41347  22865520.3654   22865520.5934
   -371771.81248   -289691.66645  25172308.9234   25172311.3524
   3223203.56549   2511589.43748  20786028.8384   20786029.4504
 95  2  9  2 12  0.0000000  0  6G12G 4G 2G 9G 5G 7
 -12670347.845 9  -9872992.216 8  21737272.793    21737271.725
 -15293676.91449 -11917142.00347  21388716.2334   21388716.4724
   4271226.80749   3328230.39647  21858031.5454   21858032.1064
 -12824899.94149  -9993422.04547  22848890.4274   22848890.7104
   -450734.02548   -351220.60545  25157282.6394   25157282.8804
   3265376.53749   2544451.49748  20794053.9314   20794054.5554
 95  2  9  2 12 30.0000000  0  6G12G 4G 2G 9G 5G 7
 -12736792.185 9  -9924767.007 8  21724628.850    21724627.795
 -15361863.27249 -11970274.19847  21375740.7674   21375740.6484
   4306227.78049   3355503.88347  21864692.0034   21864692.5544
 -12910830.86849 -10060381.19447  22832537.9684   22832538.3134
   -528561.63948   -411865.41745  25142472.6894   25142474.5234
   3308971.83849   2578421.86848  20802349.9654   20802350.3974
 95  2  9  2 13  0.0000000  0  6G12G 4G 2G 9G 5G 7
 -12802340.585 9  -9975843.662 8  21712155.305    21712154.360
 -15428959.55549 -12022556.99047  21362972.6144   21362972.6964
   4342080.28049   3383440.88647  21871514.7104   21871514.9104
 -12995848.58149 -10126628.74547  22816359.8204   22816359.6504
   -605789.68948   -472043.07545  25127776.5844   25127778.6584
   3353443.18149   2613074.87548  20810812.7194   20810813.2914
 95  2  9  2 13 30.0000000  0  6G12G 4G 2G 9G 5G 7
 -12867272.695 9 -10026440.093 8  21699799.203    21699798.160
 -15495258.17549 -12074218.22747  21350356.4764   21350356.4834
   4378498.86149   3411819.00047  21878444.9434   21878445.3744
 -13080228.57349 -10192379.37847  22800302.5044   22800302.4154
   -682721.54148   -531989.91745  25113136.9024   25113137.8584
   3398510.67849   2648192.41848  20819388.8824   20819389.4444
 95  2  9  2 14  0.0000000  0  6G12G 4G 2G 9G 5G 7
 -12931698.644 9 -10076642.121 8  21687539.301    21687538.321
 -15560875.84349 -12125348.85947  21337869.7154   21337869.6684
   4415393.29149   3440567.89847  21885465.7534   21885466.0524
 -13164067.90749 -10257708.71647  22784348.3554   22784348.5514
   -759469.40248   -591793.34545  25098532.5024   25098533.3104
   3444061.46549   2683686.54448  20828056.9074   20828057.3554
 95  2  9  2 14 30.0000000  0  6G12G 4G 2G 9G 5G 7
 -12995716.991 9 -10126526.537 8  21675357.037    21675356.060
 -15625900.22749 -12176017.19247  21325496.0214   21325496.0164
   4452671.99549   3469616.23847  21892559.4694   21892560.1124
 -13247478.37349 -10322703.87047  22768475.8464   22768475.9684
   -836124.35548   -651524.44845  25083945.0044   25083947.5374
   3490005.18849   2719486.85248  20836799.6874   20836800.1234
 95  2  9  2 15  0.0000000  0  6G12G 4G 2G 9G 5G 7
 -13059392.794 9 -10176144.036 8  21663239.862    21663238.904
 -15690394.82949 -12226272.70347  21313223.0214   21313222.8514
   4490281.69149   3498922.49147  21899716.6274   21899716.7494
 -13330519.99249 -10387411.60947  22752673.1024   22752673.3994
   -912758.51448   -711239.34245  25069362.1074   25069362.6314
   3536273.55649   2755540.12748  20845604.0294   20845604.4754
 95  2  9  2 15 30.0000000  0  6G12G 4G 2G 9G 5G 7
 -13122757.420 9 -10225519.055 8  21651181.998    21651180.990
 -15754379.37949 -12276130.77147  21301047.3834   21301047.3394
   4528211.65049   3528478.30947  21906934.0284   21906934.6304
 -13413226.30949 -10451858.07047  22736934.8584   22736934.9304
   -989402.66048   -770961.92245  25054777.4444   25054778.8564
   3582835.54349   2791822.19848  20854464.6454   20854465.0604
 95  2  9  2 16  0.0000000  0  6G12G 4G 2G 9G 5G 7
 -13185829.271 9 -10274665.940 8  21639179.794    21639178.805
 -15817859.83949 -12325596.04447  21288967.1694   21288967.1074
   4566439.17449   3558265.99247  21914208.7104   21914209.1744
 -13495625.59749 -10516065.29947  22721255.0574   22721255.1554
  -1066065.47448   -830699.17745  25040188.5324   25040190.5264
   3629672.16249   2828318.27148  20863377.2204   20863377.6824
 95  2  9  2 16 30.0000000  0  6G12G 4G 2G 9G 5G 7
 -13248625.196 9 -10323597.822 8  21627230.090    21627229.131
 -15880850.78049 -12374679.86048  21276980.4214   21276980.5044
   4604923.64449   3588253.89147  21921532.0074   21921532.8674
 -13577737.95149 -10580048.92847  22705629.2724   22705629.4464
  -1142772.22048   -890470.53645  25025591.9194   25025593.4904
   3676756.91149   2865007.69148  20872337.2734   20872337.6634
 95  2  9  2 17  0.0000000  0  6G12G 4G 2G 9G 5G 7
 -13311158.064 9 -10372324.718 8  21615330.422    21615329.486
 -15943370.72449 -12423396.69347  21265083.3194   21265083.0384
   4643635.79749   3618419.20747  21928898.7034   21928899.1714
 -13659553.82249 -10643801.53647  22690060.0254   22690060.4134
  -1219542.92348   -950291.82845  25010982.8144   25010983.5194
   3724070.32349   2901875.29248  20881340.4584   20881341.0104
 95  2  9  2 17 30.0000000  0  6G12G 4G 2G 9G 5G 7
 -13373427.367 9 -10420846.235 8  21603480.987    21603480.064
 -16005421.10149 -12471747.62147  21253275.5244   21253275.4064
   4682549.91549   3648741.89547  21936303.6014   21936303.9304
 -13741066.87249 -10707318.17547  22674549.0044   22674548.6974
  -1296371.95548  -1010158.56245  24996362.5394   24996363.0014
   3771612.34949   2938921.03448  20890387.5124   20890387.8484
 95  2  9  2 18  0.0000000  0  6G12G 4G 2G 9G 5G 7
 -13435438.600 9 -10469166.654 9  21591680.581    21591679.685
 -16067008.34749 -12519737.66347  21241555.8444   21241555.7074
   4721631.72449   3679195.25447  21943740.8544   21943741.5034
 -13822268.34049 -10770592.02947  22659096.9524   22659096.6604
  -1373273.39948  -1070081.70945  24981729.1634   24981728.4744
   3819363.39749   2976129.64748  20899474.4094   20899474.7274
 95  2  9  2 18 30.0000000  0  6G12G 4G 2G 9G 5G 7
 -13497171.015 9 -10517269.821 9  21579933.316    21579932.411
 -16128116.49449 -12567354.38147  21229927.3874   21229927.3364
   4760903.66649   3709796.75947  21951214.2654   21951214.0664
 -13903126.56249 -10833598.41447  22643710.0684   22643710.3824
  -1450230.18048  -1130047.95245  24967084.6124   24967088.1114
   3867331.89449   3013507.69648  20908602.5564   20908602.8994
 95  2  9  2 19  0.0000000  0  6G12G 4G 2G 9G 5G 7
 -13558604.596 9 -10565140.143 9  21568242.931    21568241.982
 -16188738.72649 -12614592.45948  21218391.2814   21218391.2714
   4800411.13349   3740581.78847  21958731.9244   21958731.8754
 -13983629.91549 -10896328.27847  22628390.9914   22628390.8144
  -1527222.20048  -1190041.68845  24952433.2664   24952437.8514
   3915534.42349   3051068.11148  20917775.1734   20917775.5844
 95  2  9  2 19 30.0000000  0  6G12G 4G 2G 9G 5G 7
 -13619727.978 9 -10612768.751 9  21556611.511    21556610.548
 -16248870.28349 -12661448.18348  21206948.7054   21206948.7434
   4840177.41949   3771568.48547  21966299.1714   21966299.8194
 -14063784.92849 -10958786.70947  22613137.7574   22613137.6924
  -1604237.23048  -1250053.35745  24937777.5884   24937778.9034
   3963976.32349   3088815.04848  20926993.3554   20926993.8054
 95  2  9  2 20  0.0000000  0  6G12G 4G 2G 9G 5G 7
 -13680548.637 9 -10660161.464 9  21545037.705    21545036.747
 -16308525.80749 -12707932.96648  21195596.5974   21195596.4524
   4880214.29649   3802766.05047  21973918.2234   21973919.0044
 -14143604.98449 -11020984.13147  22597948.1804   22597948.7364
  -1681293.81248  -1310097.34045  24923114.3994   24923113.1134
   4012651.45349   3126743.72248  20936255.9474   20936256.2034
 95  2  9  2 20 30.0000000  0  6G12G 4G 2G 9G 5G 7
 -13741070.834 9 -10707321.605 9  21533520.696    21533519.741
 -16367714.84649 -12754054.26148  21184333.2124   21184333.1854
   4920538.57849   3834187.56447  21981591.7914   21981592.3014
 -14223103.84949 -11082931.26647  22582819.8684   22582820.2124
  -1758389.56648  -1370171.86645  24908443.6454   24908444.6634
   4061562.05149   3164855.87948  20945563.1914   20945563.5094
 95  2  9  2 21  0.0000000  0  6G12G 4G 2G 9G 5G 7
 -13801299.516 9 -10754253.026 9  21522059.566    21522058.571
 -16426435.61249 -12799810.67848  21173158.9584   21173159.0264
   4961141.99649   3865826.58747  21989318.1934   21989318.7174
 -14302288.12249 -11144633.28447  22567751.9544   22567752.0884
  -1835526.63348  -1430278.59645  24893764.6364   24893767.6584
   4110695.94649   3203142.03548  20954913.0524   20954913.2524
 95  2  9  2 21 30.0000000  0  6G12G 4G 2G 9G 5G 7
 -13861270.546 9 -10800983.675 9  21510647.410    21510646.413
 -16484703.07549 -12845213.87448  21162070.9334   21162070.8764
   5001962.38449   3897634.67447  21997086.0424   21997086.4494
 -14381173.41049 -11206102.31647  22552740.7374   22552740.8024
  -1912743.86848  -1490447.78245  24879070.8314   24879072.0684
   4160014.65349   3241572.20148  20964297.9734   20964298.4794
 95  2  9  2 22  0.0000000  0  6G12G 4G 2G 9G 5G 7
 -13920957.101 9 -10847492.666 9  21499289.401    21499288.451
 -16542478.34749 -12890233.54048  21151076.7374   21151076.4984
   5043015.85549   3929624.39147  22004898.1814   22004898.2234
 -14459724.04349 -11267310.58347  22537792.9184   22537793.3914
  -1990011.32648  -1550656.16145  24864367.0184   24864368.0274
   4209536.18449   3280160.41448  20973721.5254   20973722.0774
 95  2  9  2 22 30.0000000  0  6G12G 4G 7G 2G 9G 5
 -13980397.425 9 -10893809.789 9  21487978.271    21487977.313
 -16599789.34749 -12934891.43848  21140170.8444   21140170.7954
   4259208.86449   3318866.40848  20983174.0834   20983174.6834
   5084252.15549   3961756.56847  22012745.0354   22012745.5564
 -14537971.31149 -11328282.46547  22522902.8574   22522902.9764
  -2067361.28448  -1610928.72845  24849647.7984   24849649.0324
 95  2  9  2 23  0.0000000  0  6G12G 4G 7G 2G 9G 5
 -14039571.729 9 -10939919.626 9  21476717.813    21476716.839
 -16656615.20849 -12979171.30348  21129357.1684   21129357.0774
   4309046.73949   3357701.11948  20992658.0554   20992658.4214
   5125667.67649   3994028.39447  22020626.0704   22020626.6954
 -14615893.40649 -11389000.95947  22508074.7844   22508075.1954
  -2144791.40948  -1671263.84445  24834913.4574   24834911.2174
 95  2  9  2 23 30.0000000  0  6G12G 4G 7G 2G 9G 5
 -14098464.084 9 -10985809.769 9  21465510.986    21465509.982
 -16712953.35949 -13023071.13948  21118636.3844   21118636.1984
   4359078.48449   3396686.90648  21002178.7804   21002179.1804
   5167272.91249   4026448.04247  22028543.7364   22028544.3824
 -14693488.46949 -11449464.63347  22493308.9434   22493308.6574
  -2222296.95248  -1731657.82446  24820164.1144   24820165.4814
 95  2  9  2 24  0.0000000  0  6G12G 4G 7G 2G 9G 5
 -14157064.876 9 -11031472.725 9  21454359.609    21454358.642
 -16768813.11049 -13066598.19348  21108006.5174   21108006.2804
   4409313.14149   3435830.80848  21011738.2704   21011738.6264
   5209097.45649   4059038.59047  22036502.5734   22036503.0154
 -14770765.25149 -11509680.29647  22478603.8704   22478603.9654
  -2299868.90548  -1792103.29845  24805402.4174   24805406.0174
 95  2  9  2 24 30.0000000  0  6G12G 4G 7G 2G 9G 5
 -14215356.026 9 -11076894.396 9  21443267.165    21443266.226
 -16824182.22149 -13109742.93348  21097470.1264   21097470.0494
   4459769.24449   3475147.26448  21021339.6474   21021339.9124
   5251158.04149   4091813.07347  22044506.3134   22044506.9124
 -14847719.36549 -11569644.52547  22463959.8904   22463959.5704
  -2377502.19748  -1852596.77345  24790629.9244   24790632.9314
 95  2  9  2 25  0.0000000  0  6G12G 4G 7G 2G 9G 5
 -14273324.127 9 -11122064.347 9  21432236.203    21432235.257
 -16879051.30649 -13152498.04148  21087028.9584   21087028.8534
   4510461.54349   3514647.76848  21030985.9684   21030986.4454
   5293470.35149   4124783.70247  22052558.0974   22052558.4844
 -14924341.20449 -11629349.84247  22449379.1554   22449379.7424
  -2455195.39948  -1913136.84245  24775845.1344   24775847.8734
 95  2  9  2 25 30.0000000  0  6G12G 4G 7G 2G 9G 5
 -14330960.462 9 -11166975.781 9  21421268.388    21421267.445
 -16933418.08849 -13194861.73648  21076683.3184   21076683.1904
   4561390.44449   3554332.63248  21040677.2964   21040677.7834
   5336058.01149   4157968.88447  22060662.2614   22060662.4604
 -15000615.28149 -11688784.17247  22434864.7584   22434864.6784
  -2532931.92648  -1973710.72345  24761052.4914   24761052.3464
 95  2  9  2 26  0.0000000  0  6G12G 4G 7G 2G 9G 5
 -14388267.079 9 -11211630.277 9  21410363.287    21410362.349
 -16987265.69149 -13236820.88448  21066436.3894   21066436.2954
   4612535.87149   3594186.21648  21050410.0124   21050410.4074
   5378919.21649   4191367.21947  22068818.3074   22068818.7384
 -15076527.60249 -11747936.61647  22420419.1584   22420419.3334
  -2610722.71048  -2034326.86145  24746249.4904   24746249.7874
 95  2  9  2 26 30.0000000  0  6G12G 4G 7G 2G 9G 5
 -14445245.557 9 -11256029.079 9  21399520.631    21399519.664
 -17040580.55449 -13278364.91248  21056290.8194   21056290.7514
   4663883.40749   3634197.29248  21060181.2424   21060181.6314
   5422035.33749   4224964.18947  22077022.9914   22077023.6814
 -15152073.06949 -11806803.19947  22406042.9814   22406043.4284
  -2688581.58948  -2094996.07345  24731432.9744   24731434.2134
 95  2  9  2 27  0.0000000  0  6G12G 4G 7G 2G 9G 5
 -14501916.669 9 -11300188.385 9  21388736.455    21388735.507
 -17093384.95049 -13319511.17948  21046242.6704   21046242.3334
   4715398.94949   3674339.28148  21069984.3634   21069984.6544
   5465395.08549   4258751.01147  22085274.3474   22085274.8794
 -15227261.20549 -11865391.34147  22391735.0684   22391734.8994
  -2766519.72748  -2155727.01245  24716601.8714   24716603.1624
 95  2  9  2 27 30.0000000  0  6G12G 4G 7G 2G 9G 5
 -14558264.170 9 -11344095.519 9  21378013.871    21378012.942
 -17145662.51749 -13360246.93048  21036294.4034   21036294.1824
   4767095.12849   3714622.02548  21079821.8534   21079822.0414
   5509008.58849   4292735.55047  22093573.7964   22093574.4434
 -15302083.19349 -11923694.17647  22377497.1494   22377497.3054
  -2844505.51448  -2216495.10045  24701761.2284   24701764.2864
 95  2  9  2 28  0.0000000  0  6G12G 4G 7G 2G 9G 5
 -14614288.779 9 -11387751.043 9  21367352.754    21367351.797
 -17197411.85749 -13400571.06848  21026446.9344   21026446.7804
   4818968.98749   3755043.21848  21089693.0274   21089693.1814
   5552873.64349   4326916.11047  22101921.1404   22101921.5674
 -15376555.82149 -11981724.77947  22363325.3914   22363325.3914
  -2922533.53548  -2277296.09945  24686913.3724   24686914.3134
 95  2  9  2 28 30.0000000  0  6G12G 4G 7G 2G 9G 5
 -14669975.709 9 -11431143.438 9  21356755.857    21356754.948
 -17248634.20949 -13440484.56848  21016699.6954   21016699.5254
   4871034.74349   3795613.93648  21099600.8614   21099601.1654
   5597006.42849   4361305.28647  22110319.0974   22110319.6184
 -15450669.81449 -12039475.92847  22349222.2414   22349222.0234
  -3000571.15948  -2338104.60445  24672063.3624   24672062.6564
 95  2  9  2 29  0.0000000  0  6G12G 4G 7G 2G 9G 5
 -14725351.574 9 -11474293.451 9  21346218.166    21346217.287
 -17299376.05349 -13480023.64748  21007043.7984   21007043.6054
   4923275.70849   3836321.18148  21109541.7774   21109541.9854
   5641374.39149   4395877.71747  22118762.4534   22118763.0914
 -15524444.31549 -12096962.53747  22335183.4874   22335183.5034
  -3078637.87748  -2398935.76845  24657207.6674   24657207.6974
 95  2  9  2 29 30.0000000  0  6G12G 4G 7G 2G 9G 5
 -14780417.714 9 -11517202.132 9  21335739.463    21335738.543
 -17349644.34849 -13519193.72848  20997478.0334   20997477.5804
   4975701.36749   3877172.34448  21119517.9784   21119518.3774
   5685962.24349   4430621.48247  22127247.0214   22127248.0564
 -15597880.81449 -12154185.77247  22321208.8334   22321208.9574
  -3156748.52348  -2459801.18545  24642343.6474   24642344.0574
 95  2  9  2 30  0.0000000  0  6G12G 7G 2G 9G 5G 4
 -14835183.799 9 -11559877.004 9  21325317.808    21325316.886
   5028292.65349   3918152.56448  21129525.8354   21129526.1364
   5730760.49449   4465529.20047  22135771.8054   22135772.0214
 -15670972.11849 -12211140.01947  22307299.8934   22307300.3394
  -3234937.90148  -2520727.95345  24627465.1604   24627467.3974
 -17399452.09649 -13558004.93848  20987999.8574   20987999.5554
 95  2  9  2 30 30.0000000  0  6G12G 7G 2G 9G 5G 4
 -14889618.405 9 -11602293.570 9  21314959.287    21314958.308
   5081071.18749   3959278.69148  21139569.3784   21139569.7034
   5775791.87049   4500618.58247  22144340.9134   22144341.5394
 -15743677.06349 -12267793.21247  22293464.4634   22293464.5294
  -3313183.49348  -2581698.50145  24612574.9544   24612573.9024
 -17448759.65149 -13596426.39248  20978616.8684   20978616.5864
 95  2  9  2 31  0.0000000  0  6G12G 7G 2G 9G 5G 4
 -14943755.405 9 -11644478.229 9  21304657.290    21304656.392
   5133995.21049   4000518.19648  21149640.4564   21149640.7594
   5821019.05649   4535860.52547  22152947.3894   22152947.9134
 -15816034.71549 -12324175.78147  22279695.3134   22279695.3374
  -3391531.01548  -2642748.51745  24597666.1824   24597667.8094
 -17497598.06749 -13634482.27748  20969323.1724   20969322.9034
 95  2  9  2 31 30.0000000  0  6G12G 7G 2G 9G 5G 4
 -14997563.074 9 -11686406.278 9  21294418.100    21294417.118
   5187074.58249   4041878.75048  21159741.2104   21159741.4064
   5866481.06849   4571285.46547  22161598.7764   22161599.1524
 -15888024.75249 -12380271.90147  22265995.8644   22265995.7024
  -3469949.14048  -2703853.52045  24582743.9434   24582743.8254
 -17545913.48949 -13672130.63648  20960129.1114   20960128.7624
 95  2  9  2 32  0.0000000  0  6G12G 7G 2G 9G 5G 4
 -15051018.961 9 -11728060.211 9  21284245.729    21284244.823
   5240319.95349   4083368.65448  21169873.3344   21169873.5364
   5912207.90949   4606916.76747  22170300.1784   22170300.3564
 -15959623.76949 -12436063.33347  22252371.2524   22252371.0184
  -3548405.94748  -2764988.66245  24567813.8494   24567815.0374
 -17593676.53949 -13709348.57948  20951040.2224   20951039.9334
 95  2  9  2 32 30.0000000  0  6G12G 7G 2G 9G 5G 4
 -15104128.466 9 -11769444.240 9  21274139.338    21274138.436
   5293734.76649   4124990.59148  21180037.8414   21180038.2254
   5958192.98649   4642749.28747  22179050.8654   22179051.2454
 -16030847.29149 -12491562.17047  22238817.8974   22238817.7854
  -3626900.75548  -2826153.42545  24552876.1924   24552876.7704
 -17640888.49449 -13746137.10048  20942055.9864   20942055.6704
 95  2  9  2 33  0.0000000  0  6G12G 7G 2G 9G 5G 4
 -15156895.856 9 -11810561.686 9  21264098.067    21264097.125
   5347326.60249   4166750.46848  21190236.1404   21190236.4094
   6004429.17349   4678777.47047  22187849.2374   22187849.9864
 -16101696.64649 -12546769.45047  22225335.6554   22225335.9304
  -3705451.48248  -2887361.78045  24537928.5854   24537928.8234
 -17687563.42749 -13782507.16648  20933174.0904   20933173.7404
 95  2  9  2 33 30.0000000  0  6G12G 7G 2G 9G 5G 4
 -15209321.028 9 -11851412.468 9  21254121.857    21254120.939
   5401099.76449   4208651.63348  21200468.8564   21200469.2134
   6050924.10949   4715007.28347  22196696.8104   22196697.6314
 -16172166.06849 -12601680.67647  22211925.5554   22211925.6844
  -3784065.24948  -2948619.22345  24522969.3834   24522968.2574
 -17733709.70549 -13818465.28848  20924392.5024   20924392.2644
 95  2  9  2 34  0.0000000  0  6G12G 7G 2G 9G 5G 4
 -15261426.199 9 -11892013.889 9  21244206.559    21244205.653
   5455039.29849   4250682.44548  21210733.1654   21210733.6124
   6097656.89949   4751422.43047  22205589.9704   22205590.2404
 -16242275.84749 -12656311.66547  22198583.9554   22198584.0554
  -3862777.20148  -3009953.18445  24507990.5964   24507992.0164
 -17779362.58349 -13854038.94048  20915705.0874   20915704.9464
 95  2  9  2 34 30.0000000  0  6G12G 7G 2G 9G 5G 4
 -15313186.904 9 -11932346.894 9  21234356.809    21234355.895
   5509162.76049   4292856.57247  21221032.4744   21221032.7894
   6144645.50849   4788036.92147  22214531.6094   22214532.0174
 -16312006.32149 -12710647.09347  22185314.9914   22185315.0994
  -3941574.70148  -3071353.80045  24492995.8984   24492996.9544
 -17824492.60949 -13889205.16848  20907117.2014   20907117.0434
 95  2  9  2 35  0.0000000  0  6G12G 7G 2G 9G 5G 4
 -15364569.370 9 -11972385.172 9  21224579.059    21224578.077
   5563482.50949   4335183.65047  21231369.1064   21231369.3674
   6191921.52749   4824875.36247  22223527.8724   22223528.3114
 -16381328.07549 -12764664.03147  22172123.6754   22172123.4354
  -4020415.89648  -3132788.45845  24477993.3794   24477994.4754
 -17869067.78649 -13923939.04648  20898634.8614   20898634.7314
 95  2  9  2 35 30.0000000  0  6G12G 7G 2G 9G 5G 4
 -15415606.383 9 -12012154.277 9  21214867.008    21214866.047
   5617946.67949   4377623.26947  21241733.4304   21241733.7534
   6239452.47149   4861912.45247  22232572.8624   22232573.2864
 -16450270.58349 -12818385.45547  22159004.3494   22159004.2224
  -4099325.33948  -3194276.26945  24462976.6594   24462978.0744
 -17913110.82549 -13958258.26448  20890253.5904   20890253.3024
 95  2  9  2 36  0.0000000  0  6G12G 7G 2G 9G 5G 4
 -15466285.396 9 -12051644.425 9  21205223.120    21205222.169
   5672566.75049   4420184.36847  21252127.2824   21252127.3654
   6287230.84049   4899142.33247  22241664.8014   22241665.0534
 -16518824.66549 -12871804.21147  22145958.9234   22145959.0094
  -4178278.55648  -3255798.17945  24447952.3774   24447953.6694
 -17956592.37049 -13992139.96148  20881979.3634   20881979.0204
 95  2  9  2 36 30.0000000  0  6G12G 7G 2G 9G 5G 4
 -15516614.132 9 -12090861.633 9  21195645.883    21195644.930
   5727330.13649   4462857.14547  21262548.2884   21262548.6704
   6335234.83049   4936548.02447  22250799.3824   22250800.1214
 -16586993.60449 -12924922.85347  22132986.9034   22132986.8644
  -4257266.73948  -3317347.37046  24432921.4604   24432923.2214
 -17999524.52249 -14025593.57448  20873809.5764   20873809.3754
 95  2  9  2 37  0.0000000  0  6G12G 7G 2G 9G 5G 4
 -15566579.246 9 -12129795.496 9  21186137.917    21186136.887
   5782254.23549   4505655.15147  21273000.1014   21273000.3874
   6383468.18549   4974132.44847  22259977.7244   22259978.4824
 -16654759.06549 -12977727.10147  22120091.6074   22120091.8384
  -4336273.90548  -3378911.30946  24417886.5934   24417888.7194
 -18041908.60649 -14058620.11948  20865744.1344   20865743.8804
 95  2  9  2 37 30.0000000  0  6G12G 7G 2G 9G 5G 4
 -15616175.217 9 -12168441.695 9  21176700.064    21176699.093
   5837352.06749   4548588.53647  21283484.7224   21283485.0904
   6431941.55149   5011903.89547  22269201.7594   22269202.5164
 -16722104.75449 -13030204.25147  22107276.1354   22107275.9564
  -4415307.69948  -3440496.02045  24402847.2774   24402848.1324
 -18083755.45049 -14091228.03148  20857780.8884   20857780.5354
 95  2  9  2 38  0.0000000  0  6G12G 7G 2G 9G 5G 4
 -15665390.387 9 -12206791.159 9  21167334.677    21167333.757
   5892637.76149   4591668.29747  21294005.3324   21294005.6954
   6480668.10749   5049872.63147  22278474.6404   22278474.8934
 -16789022.55449 -13082347.97947  22094542.2544   22094542.2544
  -4494351.53548  -3502088.56246  24387805.5904   24387806.1064
 -18125062.51349 -14123415.33248  20849920.4684   20849920.2294
 95  2  9  2 38 30.0000000  0  6G12G 7G 2G 9G 5G 4
 -15714251.642 9 -12244864.851 9  21158036.679    21158035.772
   5948070.13049   4634862.35947  21304553.6434   21304553.7284
   6529629.28849   5088024.19147  22287791.3504   22287792.0144
 -16855533.84549 -13134174.95247  22081885.3654   22081885.3094
  -4573450.83148  -3563724.32046  24372753.9124   24372753.3854
 -18165867.87649 -14155211.70048  20842155.5054   20842155.1134
 95  2  9  2 39  0.0000000  0  6G12G 7G 2G 9G 5G 4
 -15762741.548 9 -12282649.185 9  21148809.346    21148808.426
   6003653.00249   4678173.69547  21315130.7164   21315131.1444
   6578853.19949   5126380.46847  22297158.2094   22297159.0554
 -16921627.30449 -13185676.33747  22069308.1514   22069308.1714
  -4652609.84948  -3625406.60346  24357690.3644   24357691.6254
 -18206142.66949 -14186594.63748  20834491.3804   20834491.0474
 95  2  9  2 39 30.0000000  0  6G12G 7G 2G 9G 5G 4
 -15810851.322 9 -12320137.315 9  21139654.367    21139653.468
   6059373.11149   4721591.96847  21325733.8214   21325734.2994
   6628351.87549   5164950.85047  22306577.8324   22306578.4114
 -16987297.43149 -13236847.85747  22056811.4784   22056811.2864
  -4731820.53248  -3687129.15246  24342617.3804   24342618.4524
 -18245870.76249 -14217551.57848  20826931.3524   20826931.1434
 95  2  9  2 40  0.0000000  0  6G12G 7G 2G 9G 5G 4
 -15858598.087 9 -12357342.586 9  21130568.516    21130567.566
   6115206.10149   4765098.20047  21336358.6224   21336358.9864
   6678087.91749   5203706.19147  22316042.2354   22316042.9654
 -17052570.32149 -13287709.83847  22044390.2754   22044390.0714
  -4811096.57148  -3748902.62746  24327531.0984   24327531.8434
 -18285049.70249 -14248080.60948  20819475.9004   20819475.6654
 95  2  9  2 40 30.0000000  0  6G12G 7G 2G 9G 5G 4
 -15905966.208 9 -12394252.812 9  21121554.660    21121553.677
   6171158.70249   4808697.62547  21347005.9044   21347006.2814
   6728063.59449   5242648.27047  22325551.9664   22325553.0444
 -17117432.27149 -13338251.60647  22032047.3544   22032047.3474
  -4890436.41448  -3810725.81146  24312433.0464   24312434.9954
 -18323665.29049 -14278170.66148  20812127.5564   20812127.2264
 95  2  9  2 41  0.0000000  0  6G12G 7G 2G 9G 5G 4
 -15952945.202 9 -12430859.819 9  21112614.837    21112613.882
   6227237.64549   4852395.49047  21357677.5014   21357677.8424
   6778287.52049   5281783.77847  22335109.6954   22335110.6544
 -17181876.36449 -13388467.78247  22019784.1434   22019784.4464
  -4969818.50448  -3872581.92646  24297327.4654   24297326.9634
 -18361713.59949 -14307818.67648  20804887.2334   20804886.9564
 95  2  9  2 41 30.0000000  0  6G12G 7G 2G 9G 5G 4
 -15999540.147 9 -12467167.558 9  21103748.127    21103747.149
   6283452.53349   4896199.28547  21368374.8404   21368375.1424
   6828747.28449   5321103.05747  22344711.6234   22344712.7054
 -17245903.25549 -13438358.86447  22007600.2334   22007599.8744
  -5049231.61648  -3934462.22246  24282214.7954   24282215.7074
 -18399209.00749 -14337035.86048  20797752.1734   20797751.8064
 95  2  9  2 42  0.0000000  0  6G12G 7G 2G 9G 5G 4
 -16045735.673 9 -12503164.058 9  21094957.368    21094956.405
   6339834.52449   4940133.30847  21379104.1024   21379104.3934
   6879460.78849   5360620.06547  22354362.3824   22354362.6784
 -17309506.81349 -13487920.07547  21995497.0064   21995496.2804
  -5128668.80348  -3996361.27246  24267099.2714   24267100.4114
 -18436127.43049 -14365803.44948  20790726.7814   20790726.3234
 95  2  9  2 42 30.0000000  0  6G12G 7G 2G 9G 5G 4
 -16091545.615 9 -12538860.110 9  21086240.020    21086239.029
   6396371.84449   4984188.36647  21389862.7394   21389862.8934
   6930432.46549   5400338.24347  22364062.0344   22364062.4944
 -17372704.53549 -13537165.05047  21983471.1704   21983470.9384
  -5208148.28048  -4058293.27446  24251974.1044   24251973.4604
 -18472489.14149 -14394137.23548  20783807.3384   20783806.9754
 95  2  9  2 43  0.0000000  0  6G12G 7G 2G 9G 5G 4
 -16136959.679 9 -12574247.694 9  21077598.008    21077597.037
   6453077.10749   5028374.29247  21400653.3084   21400653.4634
   6981690.92049   5440279.89047  22373815.8884   22373817.0314
 -17435491.04949 -13586089.60147  21971523.2074   21971522.9824
  -5287664.77348  -4120254.10646  24236842.7024   24236844.3714
 -18508288.66349 -14422032.95548  20776994.9274   20776994.5234
 95  2  9  2 43 30.0000000  0  6G12G 7G 2G 9G 5G 4
 -16181981.805 9 -12609329.869 9  21069030.559    21069029.590
   6509953.98549   5072693.94247  21411476.4564   21411476.7494
   7033230.28149   5480440.41947  22383623.6204   22383624.1954
 -17497871.62749 -13634697.84847  21959652.3944   21959652.3284
  -5367235.80748  -4182257.44946  24221700.7374   24221701.1294
 -18543515.44549 -14449482.38248  20770291.3454   20770290.9614
 95  2  9  2 44  0.0000000  0  6G12G 7G 2G 9G 5G 4
 -16226614.635 9 -12644108.691 9  21060537.196    21060536.215
   6566988.07249   5117136.09047  21422330.1254   21422330.2664
   7085051.30249   5520820.40847  22393484.9094   22393485.9424
 -17559852.14949 -13682994.35247  21947857.8984   21947857.4084
  -5446883.62048  -4244320.64646  24206544.2284   24206545.9734
 -18578178.25749 -14476492.35248  20763695.2924   20763694.9454
 95  2  9  2 44 30.0000000  0  6G12G 7G 2G 9G 5G 4
 -16270857.545 9 -12678583.683 9  21052118.060    21052117.078
   6624166.61749   5161690.79647  21433210.6964   21433211.0404
   7137151.27549   5561417.76947  22403399.2334   22403399.8544
 -17621413.79749 -13730964.46447  21936143.2284   21936143.0044
  -5526601.36848  -4306438.31046  24191374.3464   24191374.7904
 -18612304.04449 -14503083.85848  20757201.3214   20757200.9164
 95  2  9  2 45  0.0000000  0  6G12G 7G 2G 9G 5G 4
 -16314716.182 9 -12712759.248 9  21043772.029    21043771.054
   6681480.33149   5206350.82947  21444117.2524   21444117.3364
   7189508.86749   5602215.87247  22413362.5224   22413363.6034
 -17682554.61849 -13778606.66247  21924508.3644   21924508.2224
  -5606394.00448  -4368614.35646  24176189.9104   24176191.0634
 -18645901.10349 -14529263.36948  20750808.0324   20750807.7094
 95  2  9  2 45 30.0000000  0  6G12G 7G 2G 9G 5G 4
 -16358183.733 9 -12746630.074 9  21035500.435    21035499.459
   6738924.51249   5251112.52847  21455048.2644   21455048.2694
   7242107.98249   5643202.17547  22423371.7774   22423372.4704
 -17743261.67449 -13825910.85947  21912956.2414   21912956.0564
  -5686233.59748  -4430826.98246  24160996.8944   24160998.4794
 -18678958.45449 -14555022.32848  20744517.3424   20744516.9394
 95  2  9  2 46  0.0000000  0  6G12G 7G 2G 9G 5G 4
 -16401238.997 9 -12780179.634 9  21027307.288    21027306.326
   6796500.50649   5295976.93447  21466004.8794   21466004.7914
   7294964.98549   5684389.44447  22433430.4084   22433431.1184
 -17803508.69649 -13872856.58547  21901491.7414   21901491.6914
  -5766081.93148  -4493046.40346  24145802.5234   24145803.8724
 -18711474.77349 -14580359.70248  20738329.7494   20738329.2534
 95  2  9  2 46 30.0000000  0  6G12G 7G 2G 9G 5G 4
 -16443878.458 9 -12813405.191 9  21019193.275    21019192.305
   6854203.77149   5340940.51747  21476985.3744   21476985.6264
   7348069.94049   5725769.90947  22443535.8234   22443536.9274
 -17863290.47049 -13919439.78447  21890115.3144   21890115.3114
  -5845924.82648  -4555261.60646  24130609.1334   24130609.8104
 -18743435.69349 -14605264.29948  20732247.7324   20732247.3894
 95  2  9  2 47  0.0000000  0  6G12G 7G 2G 9G 5G 4
 -16486111.680 9 -12846314.187 9  21011156.566    21011155.574
   6912014.74349   5385988.02547  21487986.4984   21487986.7464
   7401413.06749   5767335.95647  22453686.6164   22453688.1424
 -17922633.67449 -13965681.23347  21878822.6564   21878822.8654
  -5925775.19148  -4617482.64946  24115413.8194   24115415.0414
 -18774825.47849 -14629723.86048  20726274.5154   20726274.1734
 95  2  9  2 47 30.0000000  0  6G12G 7G 2G 9G 5G 4
 -16527928.487 9 -12878898.698 9  21003199.083    21003198.091
   6969931.74949   5431118.16347  21499007.4974   21499008.1974
   7455009.47949   5809099.36047  22463885.7254   22463886.3354
 -17981529.67349 -14011574.21247  21867615.2424   21867615.2394
  -6005620.04348  -4679699.37446  24100219.8154   24100220.8864
 -18805631.06449 -14653728.20448  20720412.3754   20720411.9324
 95  2  9  2 48  0.0000000  0  6G12G 7G 2G 9G 5G 4
 -16569351.320 9 -12911176.223 9  20995316.576    20995315.582
   7027942.36949   5476321.24947  21510046.5594   21510046.7654
   7508846.82949   5851050.50247  22474130.4444   22474131.0954
 -18040003.50549 -14057138.23147  21856488.1604   21856488.0144
  -6085503.35848  -4741946.07946  24085018.6954   24085019.7474
 -18835861.58749 -14677284.44448  20714659.7444   20714659.2424
 95  2  9  2 48 30.0000000  0  6G 7G 2G 9G 5G12G 4
   7086066.81549   5521613.02947  21521107.3224   21521107.6724
   7562942.94949   5893203.30547  22484424.6434   22484425.4694
 -18098046.92149 -14102366.86147  21845442.8834   21845442.8314
  -6165429.51348  -4804226.18846  24069809.4714   24069808.6374
 -16610367.884 9 -12943137.179 9  20987511.374    20987510.420
 -18865479.72849 -14700363.49948  20709023.4594   20709023.0454
 95  2  9  2 49  0.0000000  0  6G 7G 9G 2G 5G12G 4
   7144296.80449   5566987.04747  21532187.9584   21532188.4194
 -18155659.33249 -14147259.64147  21834479.5384   21834479.4244
   7617297.28149   5935557.29947  22494767.9504   22494769.7864
  -6245409.40048  -4866548.13146  24054589.5654   24054590.2064
 -16650987.680 9 -12974788.963 9  20979781.682    20979780.732
 -18894498.34249 -14722975.39248  20703501.3924   20703501.0684
 95  2  9  2 49 30.0000000  0  6G 7G 9G 2G 5G12G 4
   7202638.33849   5612447.98247  21543290.2484   21543290.3144
 -18212826.72249 -14191805.65347  21823601.0084   21823600.9334
   7671894.65549   5978100.67046  22505157.6404   22505158.6804
  -6325450.62248  -4928917.89346  24039358.4634   24039359.6754
 -16691216.093 9 -13006135.777 9  20972126.456    20972125.509
 -18922936.65749 -14745135.10648  20698089.8154   20698089.6064
 95  2  9  2 50  0.0000000  0  6G 7G 9G 2G 5G12G 4
   7261080.21049   5657987.10147  21554411.4174   21554411.5664
 -18269550.41149 -14236005.92647  21812806.8514   21812806.7104
   7726721.29549   6020822.69247  22515590.5364   22515591.3014
  -6405578.83948  -4991355.42746  24024110.7134   24024110.5754
 -16731063.198 9 -13037185.466 9  20964543.790    20964542.855
 -18950810.55449 -14766855.01748  20692785.5624   20692785.3484
 95  2  9  2 50 30.0000000  0  6G 7G 9G 2G 5G12G 4
   7319631.17049   5703611.22647  21565553.2384   21565553.7074
 -18325801.97049 -14279838.30347  21802102.3154   21802102.0774
   7781790.02649   6063733.36047  22526070.0004   22526070.8994
  -6485764.05048  -5053837.36746  24008852.0184   24008852.7584
 -16770503.508 9 -13067918.174 9  20957038.560    20957037.592
 -18978120.51049 -14788135.49848  20687588.5784   20687588.2694
 95  2  9  2 51  0.0000000  0  6G 7G 9G 2G 5G12G 4
   7378284.23449   5749314.91247  21576714.5704   21576714.7414
 -18381591.45449 -14323310.61947  21791486.1774   21791486.1164
   7837081.89149   6106817.90446  22536591.3834   22536593.0944
  -6566013.86748  -5116369.65046  23993580.2724   23993580.4144
 -16809545.256 9 -13098340.316 9  20949609.170    20949608.189
 -19004901.66649 -14809003.92348  20682492.3324   20682492.0684
 95  2  9  2 51 30.0000000  0  6G 7G 9G 2G 5G12G 4
   7437064.45749   5795117.68047  21587899.8464   21587900.0884
 -18436911.53149 -14366417.16747  21780959.0904   21780958.9804
   7892619.95449   6150094.27847  22547160.3004   22547161.5124
  -6646311.73548  -5178939.37346  23978300.6944   23978300.7874
 -16848161.299 9 -13128430.738 9  20942260.776    20942259.820
 -19031135.78649 -14829446.08548  20677500.0884   20677499.8914
 95  2  9  2 52  0.0000000  0  6G 7G 9G 2G 5G12G 4
   7495974.24049   5841021.40347  21599110.1544   21599110.2824
 -18491763.67249 -14409159.09147  21770520.9514   21770520.8124
   7948429.73049   6193582.39447  22557780.6554   22557781.9334
  -6726644.89548  -5241536.59346  23963013.4854   23963013.7774
 -16886337.544 9 -13158178.460 9  20934996.091    20934995.122
 -19056810.18649 -14849452.09848  20672614.4304   20672614.0984
 95  2  9  2 52 30.0000000  0  6G 7G 9G 2G 5G12G 4
   7555036.93849   5887044.27247  21610349.2844   21610349.3094
 -18546143.44049 -14451532.93047  21760172.9504   21760172.6784
   8004537.82849   6237302.96046  22568457.7614   22568458.8724
  -6806994.47948  -5304146.61546  23947723.2534   23947722.1664
 -16924055.032 9 -13187568.710 9  20927818.694    20927817.743
 -19081903.61149 -14869005.40548  20667839.2494   20667838.8714
 95  2  9  2 53  0.0000000  0  6G 7G 9G 2G 5G12G 4
   7614236.42149   5933173.73947  21621614.7404   21621615.3324
 -18600058.68449 -14493544.80047  21749913.1384   21749912.9554
   8060948.52649   6281259.32246  22579192.1354   22579192.8674
  -6887375.91748  -5366781.46546  23932427.3364   23932428.2424
 -16961321.096 9 -13216607.203 9  20920727.183    20920726.275
 -19106420.23849 -14888109.25748  20663173.9484   20663173.6364
 95  2  9  2 53 30.0000000  0  6G 7G 9G 2G 5G12G 4
   7673558.79649   5979398.95847  21632903.0994   21632903.5264
 -18653498.66949 -14535186.34147  21739743.9394   21739743.7074
   8117662.16749   6325451.73746  22589984.6394   22589985.8454
  -6967787.45048  -5429439.76446  23917125.4224   23917125.0314
 -16998133.563 9 -13245292.239 9  20913722.008    20913721.068
 -19130350.31449 -14906756.05448  20658620.2734   20658620.0284
 95  2  9  2 54  0.0000000  0  6G 7G 9G 2G 5G12G 4
   7732995.94849   6025713.62047  21644213.7504   21644214.1954
 -18706449.08249 -14576446.39747  21729667.5504   21729667.3344
   8174676.47749   6369878.44746  22600834.4354   22600835.2794
  -7048225.59848  -5492118.79346  23901818.5374   23901818.7774
 -17034489.542 9 -13273621.567 9  20906803.704    20906802.759
 -19153685.78149 -14924939.52048  20654179.6024   20654179.3484
 95  2  9  2 54 30.0000000  0  6G 7G 9G 2G 5G12G 4
   7792528.12049   6072102.32447  21655542.1864   21655543.0024
 -18758927.04649 -14617338.31047  21719681.4524   21719681.3184
   8231964.18849   6414518.18346  22611735.7394   22611736.4974
  -7128703.96248  -5554829.18346  23886503.9044   23886505.0014
 -17070399.261 9 -13301603.162 9  20899970.313    20899969.356
 -19176445.63949 -14942674.45848  20649848.4824   20649848.2244
 95  2  9  2 55  0.0000000  0  6G 7G 9G 2G 5G12G 4
   7852167.74449   6118574.75547  21666891.3764   21666892.0194
 -18810920.53049 -14657852.70847  21709787.3274   21709787.3804
   8289520.05649   6459366.87946  22622688.0724   22622689.2994
  -7209185.32348  -5617541.91546  23871189.0904   23871189.5544
 -17105851.912 9 -13329228.599 9  20893223.893    20893222.929
 -19198629.18149 -14959960.31748  20645627.1724   20645626.8974
 95  2  9  2 55 30.0000000  0  6G 7G 9G 2G 5G12G 4
   7911910.29049   6165127.39347  21678260.1764   21678260.6804
 -18862454.98849 -14698009.42247  21699980.5844   21699980.2484
   8347308.73749   6504396.98546  22633685.1164   22633685.9374
  -7289683.85748  -5680268.01446  23855870.4304   23855870.1414
 -17140867.323 9 -13356513.339 9  20886560.681    20886559.708
 -19220241.83249 -14976801.32248  20641514.2554   20641514.0534
 95  2  9  2 56  0.0000000  0  6G 7G 9G 2G 5G12G 4
   7971768.78649   6211770.37547  21689650.9804   21689651.2274
 -18913523.82649 -14737803.32047  21690262.4634   21690262.5354
   8405343.82549   6549619.10446  22644728.8704   22644729.1274
  -7370183.67148  -5742995.10546  23840551.5924   23840553.2844
 -17175429.373 9 -13383444.806 9  20879983.746    20879982.759
 -19241266.40349 -14993184.09148  20637513.4054   20637513.0914
 95  2  9  2 56 30.0000000  0  6G 7G 9G 2G 5G12G 4
   8031753.39549   6258511.62447  21701065.5004   21701065.8914
 -18964116.31949 -14777226.03547  21680635.0894   21680635.1374
   8463622.04849   6595030.68446  22655818.9104   22655819.3374
  -7450671.69248  -5805713.01746  23825235.5474   23825235.0204
 -17209534.931 9 -13410020.559 9  20873493.654    20873492.725
 -19261700.26149 -15009106.56448  20633625.0724   20633624.6304
 95  2  9  2 57  0.0000000  0  6G 7G 9G 2G 5G12G 4
   8091860.47049   6305348.29747  21712503.6374   21712503.4304
 -19014217.67149 -14816266.04347  21671101.2274   21671101.0404
   8522148.65448   6640635.78946  22666955.6324   22666956.4234
  -7531157.33948  -5868429.08046  23809919.7434   23809919.3514
 -17243187.392 9 -13436243.255 9  20867089.812    20867088.859
 -19281525.10649 -15024554.48248  20629852.4924   20629851.9554
 95  2  9  2 57 30.0000000  0  6G 7G 9G 2G 5G12G 4
   8152053.78149   6352252.16747  21723957.8814   21723958.0394
 -19063832.21649 -14854926.72447  21661659.9124   21661659.8234
   8580923.28249   6686434.15546  22678140.2414   22678141.7494
  -7611688.90048  -5931180.93446  23794594.9534   23794594.8584
 -17276399.493 9 -13462122.815 9  20860769.770    20860768.826
 -19300741.94949 -15039528.63248  20626195.5744   20626195.2824
 95  2  9  2 58  0.0000000  0  6G 7G 9G 2G 5G12G 4
   8212314.23449   6399208.36247  21735425.1514   21735425.3904
 -19112962.16849 -14893209.80147  21652310.7624   21652310.5944
   8639948.38549   6732427.72046  22689373.0834   22689373.6624
  -7692271.34248  -5993972.42446  23779260.3804   23779260.0954
 -17309177.302 9 -13487663.960 9  20854532.370    20854531.410
 -19319371.12249 -15054044.85848  20622650.6234   20622650.1624
 95  2  9  2 58 30.0000000  0  6G 7G 9G 2G 5G12G 4
   8272661.42449   6446232.15347  21746908.6074   21746909.0184
 -19161589.33949 -14931101.10047  21643057.4414   21643057.1364
   8699250.36249   6778637.02946  22700657.6214   22700658.4544
  -7772889.46948  -6056791.73546  23763919.4484   23763920.6434
 -17341502.969 9 -13512852.788 9  20848381.001    20848380.018
 -19337396.57849 -15068090.65448  20619220.5984   20619220.2404
 95  2  9  2 59  0.0000000  0  6G 7G 9G 2G 5G12G 4
   8333116.51349   6493340.01547  21758413.1394   21758413.3454
 -19209706.01849 -14968594.61547  21633901.1814   21633900.8584
   8758864.42248   6825089.53346  22712001.4794   22712002.8134
  -7853539.25548  -6119635.68946  23748572.4114   23748573.2124
 -17373353.270 9 -13537671.208 9  20842320.095    20842319.101
 -19354811.62149 -15081660.80948  20615906.5514   20615906.2954
 95  2  9  2 59 30.0000000  0  6G 7G 9G 2G 5G12G 4
   8393661.61349   6540518.02147  21769934.3204   21769934.7214
 -19257340.86249 -15005712.67547  21624836.5154   21624836.1884
   8818761.40748   6871762.47346  22723399.5364   22723400.0414
  -7934220.97648  -6182504.54346  23733219.1714   23733219.4814
 -17404745.277 9 -13562132.513 9  20836346.375    20836345.391
 -19371663.89749 -15094792.44348  20612699.5694   20612699.2414
 95  2  9  3  0  0.0000000  0  6G 7G 9G 2G 5G12G 4
   8454297.32949   6587766.63847  21781473.1244   21781473.2484
 -19304510.81349 -15042468.47847  21615860.2704   21615860.0334
   8878917.83448   6918637.58346  22734846.4674   22734848.0604
  -8014930.71948  -6245395.24046  23717860.4384   23717861.3384
 -17435686.178 9 -13586242.302 9  20830458.479    20830457.517
 -19387970.10149 -15107498.56948  20609596.6754   20609596.3594
 95  2  9  3  0 30.0000000  0  6G 7G 9G 2G 5G12G 4
   8515028.85149   6635089.90147  21793029.6494   21793030.1444
 -19351199.60149 -15078849.35047  21606975.7264   21606975.5564
   8939343.49448   6965722.50046  22746345.5004   22746346.9394
  -8095657.91548  -6308299.51746  23702498.3404   23702498.5954
 -17466161.084 9 -13609988.983 9  20824659.298    20824658.376
 -19403714.43849 -15119766.87648  20606600.7434   20606600.2434
 95  2  9  3  1  0.0000000  0  6G 7G 9G 2G 5G12G 4
   8575855.60249   6682487.37647  21804604.6554   21804605.1024
 -19397396.37149 -15114846.82847  21598184.8244   21598184.6464
   9000032.71948   7013012.76346  22757894.0724   22757895.2224
  -8176391.94148  -6371209.13446  23687135.3754   23687135.7944
 -17496160.936 9 -13633365.490 9  20818950.511    20818949.595
 -19418887.01549 -15131589.65448  20603713.4404   20603712.9674
 95  2  9  3  1 30.0000000  0  6G 7G 9G 2G 5G12G 4
   8636763.02649   6729947.70247  21816194.8914   21816195.1414
 -19443097.73349 -15150458.28247  21589488.1524   21589487.7664
   9060968.94948   7060495.54646  22769490.4564   22769491.6464
  -8257126.16648  -6434118.90546  23671772.1424   23671773.3884
 -17525688.878 9 -13656374.273 9  20813331.557    20813330.608
 -19433466.77749 -15142950.49648  20600938.9004   20600938.5574
 95  2  9  3  2  0.0000000  0  6G 7G 9G 2G 5G12G 4
   8697746.29449   6777467.12747  21827799.7584   21827799.7064
 -19488305.05149 -15185684.76147  21580885.4594   21580885.0274
   9122153.49748   7108171.80246  22781133.6394   22781134.3804
  -8337883.22248  -6497046.45346  23656404.4884   23656404.2904
 -17554752.805 9 -13679021.486 9  20807800.843    20807799.912
 -19447441.75849 -15153840.08248  20598279.5894   20598279.2034
 95  2  9  3  2 30.0000000  0  6G 7G 9G 2G 5G12G 4
   8758829.68349   6825064.57647  21839423.5394   21839424.3004
 -19532997.29449 -15220509.88247  21572380.6354   21572380.7944
   9183612.40248   7156061.85246  22792828.6214   22792829.5364
  -8418642.87348  -6559976.04546  23641036.5824   23641036.7844
 -17583334.906 9 -13701293.251 9  20802361.879    20802360.947
 -19460794.86249 -15164245.08948  20595738.5864   20595738.1854
 95  2  9  3  3  0.0000000  0  6G 7G 9G 2G 5G12G 4
   8820022.11149   6872746.99147  21851067.9244   21851067.9094
 -19577172.21249 -15254931.89747  21563974.3954   21563974.0264
   9245349.20348   7204168.44246  22804576.8814   22804577.7474
  -8499414.77748  -6622915.17846  23625666.0764   23625667.0174
 -17611439.758 9 -13723193.131 9  20797013.685    20797012.767
 -19473530.41749 -15174168.88648  20593315.0144   20593314.6104
 95  2  9  3  3 30.0000000  0  6G 7G 9G 2G 5G12G 4
   8881322.96749   6920513.89047  21862733.2824   21862734.1214
 -19620836.11449 -15288955.71847  21555665.3724   21555665.1824
   9307364.33448   7252491.90246  22816377.8674   22816378.8944
  -8580212.91148  -6685874.74546  23610290.5564   23610290.9364
 -17639079.963 9 -13744730.949 9  20791753.946    20791753.029
 -19485669.36649 -15183627.79648  20591005.0824   20591004.6894
 95  2  9  3  4  0.0000000  0  6G 7G 9G 2G 5G12G 4
   8942714.27849   6968351.26847  21874416.0494   21874415.5974
 -19664004.16249 -15322593.16247  21547450.9074   21547450.7304
   9369649.48648   7301025.78646  22828230.5394   22828231.8374
  -8661057.51648  -6748870.52646  23594906.6594   23594907.0934
 -17666269.658 9 -13765917.727 9  20786579.887    20786578.974
 -19497244.91349 -15192647.69248  20588802.2024   20588801.8424
 95  2  9  3  4 30.0000000  0  6G 7G 9G 2G 5G12G 4
   9004188.93149   7016253.58947  21886113.7484   21886113.5674
 -19706668.36649 -15355837.99647  21539332.2024   21539332.0224
   9432212.01748   7349775.79546  22840135.5794   22840136.8434
  -8741942.32348  -6811897.64146  23579514.4714   23579514.3444
 -17693002.157 9 -13786748.255 9  20781492.898    20781491.918
 -19508256.20149 -15201227.90748  20586706.6994   20586706.1864
 95  2  9  3  5  0.0000000  0  6G 7G 9G 2G 5G12G 4
   9065736.08549   7064212.40847  21897826.0514   21897825.9724
 -19748823.91049 -15388686.47547  21531310.4404   21531310.2084
   9495054.71748   7398744.10246  22852094.2934   22852095.1274
  -8822846.70648  -6874939.98746  23564119.0604   23564119.9184
 -17719266.565 9 -13807214.033 9  20776494.935    20776494.000
 -19518687.75049 -15209356.37748  20584721.8464   20584721.4204
 95  2  9  3  5 30.0000000  0  6G 7G 9G 2G 5G12G 4
   9127337.16149   7112213.24847  21909548.3394   21909548.2064
 -19790487.41649 -15421151.54647  21523382.1124   21523381.8784
   9558163.24348   7447919.57346  22864103.4764   22864103.8824
  -8903753.31248  -6937984.08346  23548722.7354   23548723.4414
 -17745058.133 9 -13827311.364 9  20771586.987    20771586.059
 -19528540.27949 -15217033.66148  20582847.0134   20582846.5764
 95  2  9  3  6  0.0000000  0  6G 9G 7G 2G 5G12G 4
 -19831668.34249 -15453240.58447  21515545.5214   21515545.1974
   9188969.55149   7160238.48747  21921276.5284   21921277.1444
   9621516.36448   7497285.63946  22876159.3324   22876160.6384
  -8984669.37948  -7001035.55246  23533325.0554   23533325.1464
 -17770383.811 9 -13847045.667 9  20766767.690    20766766.741
 -19537820.36249 -15224264.88748  20581080.9314   20581080.5044
 95  2  9  3  6 30.0000000  0  6G 9G 7G 2G 5G12G 4
 -19872346.75049 -15484938.04947  21507804.6954   21507804.5404
   9250652.22749   7208302.90347  21933014.4104   21933014.4384
   9685124.16848   7546850.15246  22888263.2884   22888263.6574
  -9065571.29248  -7064075.98446  23517930.1894   23517931.5404
 -17795225.164 9 -13866402.573 9  20762040.556    20762039.580
 -19546507.87249 -15231034.37048  20579427.8184   20579427.4344
 95  2  9  3  7  0.0000000  0  6G 9G 7G 2G 5G12G 4
 -19912521.81449 -15516243.29547  21500159.5674   21500159.1804
   9312401.05549   7256418.86247  21944764.4684   21944764.8934
   9748986.65048   7596613.09246  22900415.6254   22900416.8894
  -9146455.21148  -7127102.31646  23502538.0484   23502538.8314
 -17819571.756 9 -13885373.947 9  20757407.518    20757406.580
 -19554602.94149 -15237342.20748  20577887.2664   20577886.8664
 95  2  9  3  7 30.0000000  0  6G 9G 7G 2G 5G12G 4
 -19952203.55749 -15547164.13747  21492608.4974   21492608.4134
   9374208.13749   7304580.22147  21956526.2044   21956526.4244
   9813086.94148   7646561.33646  22912613.6034   22912614.5054
  -9227374.83848  -7190156.64046  23487139.7194   23487140.4924
 -17843446.817 9 -13903977.900 9  20752864.253    20752863.313
 -19562136.82849 -15243212.76048  20576453.6324   20576453.2144
 95  2  9  3  8  0.0000000  0  6G 9G 7G 2G 5G12G 4
 -19991364.03649 -15577678.80047  21485156.2384   21485156.2104
   9436103.26949   7352810.20247  21968304.1204   21968304.8444
   9877454.23448   7696717.65546  22924862.3844   22924863.2024
  -9308329.09648  -7253237.85746  23471734.8664   23471734.8614
 -17866831.019 9 -13922199.365 9  20748414.428    20748413.452
 -19569084.62649 -15248626.62148  20575131.5954   20575131.1714
 95  2  9  3  8 30.0000000  0  6G 9G 7G 2G 5G12G 4
 -20030015.15449 -15607796.55647  21477801.3254   21477801.3164
   9498082.96649   7401106.06347  21980098.6464   21980098.9714
   9942082.75848   7747077.52446  22937160.7134   22937161.4164
  -9389324.95548  -7316351.50446  23456321.8664   23456323.1754
 -17889728.571 9 -13940041.618 9  20744057.167    20744056.198
 -19575446.41649 -15253583.85248  20573920.9994   20573920.4704
 95  2  9  3  9  0.0000000  0  6G 9G 7G 2G 5G12G 4
 -20068157.04649 -15637517.51247  21470543.1424   21470543.1074
   9560144.63549   7449465.80247  21991908.4804   21991909.2054
  10006970.16648   7797639.13246  22949508.4994   22949509.7604
  -9470358.67148  -7379494.61946  23440901.4114   23440902.2204
 -17912132.887 9 -13957499.534 9  20739793.777    20739792.786
 -19581214.15349 -15258078.18348  20572823.3134   20572822.8814
 95  2  9  3  9 30.0000000  0  6G 9G 7G 2G 5G12G 4
 -20105786.39249 -15666839.08447  21463382.6334   21463382.6974
   9622280.62549   7497883.45147  22003732.7904   22003733.8474
  10072109.71148   7848397.20746  22961904.5334   22961904.5394
  -9551418.61048  -7442658.19046  23425476.4194   23425476.7234
 -17934045.644 9 -13974574.422 9  20735623.912    20735622.962
 -19586382.69949 -15262105.61248  20571839.9314   20571839.4644
 95  2  9  3 10  0.0000000  0  6G 9G 7G 2G 5G12G 4
 -20142877.50249 -15695741.24947  21456324.3604   21456324.3054
   9684505.16949   7546370.09247  22015573.7924   22015574.4144
  10137516.90248   7899363.84146  22974351.1954   22974351.5214
  -9632454.48048  -7505802.99346  23410055.3524   23410055.8934
 -17955438.063 9 -13991243.853 9  20731553.095    20731552.127
 -19590922.37849 -15265643.01148  20570975.9614   20570975.3574
 95  2  9  3 10 30.0000000  0  6G 9G 7G 2G 5G12G 4
 -20179435.67949 -15724228.14247  21449367.6684   21449367.2924
   9746803.09949   7594913.92847  22027428.4704   22027429.0524
  10203180.87748   7950530.55446  22986846.4114   22986847.7284
  -9713467.34048  -7568929.89046  23394639.2574   23394639.1304
 -17976317.645 9 -14007513.661 9  20727579.855    20727578.881
 -19594841.14849 -15268696.59048  20570230.3644   20570229.7994
 95  2  9  3 11  0.0000000  0  6G 9G 7G 2G 5G12G 4
 -20215419.85749 -15752267.76747  21442520.1294   21442520.0194
   9809204.72749   7643538.55947  22039303.3044   22039304.0524
  10269142.42248   8001929.13546  22999398.2884   22999399.1654
  -9794426.04848  -7632014.57046  23379233.7194   23379233.9694
 -17996657.309 9 -14023362.751 9  20723709.341    20723708.348
 -19598122.29749 -15271253.32348  20569605.8974   20569605.5034
 95  2  9  3 11 30.0000000  0  6G 9G 7G 2G 5G12G 4
 -20250842.12849 -15779869.53947  21435779.5034   21435779.4474
   9871694.76749   7692232.09247  22051194.7474   22051195.0474
  10335390.25448   8053550.79546  23012005.3144   23012004.7104
  -9875357.05248  -7695077.66146  23363832.8334   23363833.3014
 -18016484.210 9 -14038812.286 9  20719936.423    20719935.418
 -19600807.78449 -15273345.90348  20569094.8644   20569094.3454
 95  2  9  3 12  0.0000000  0  6G 9G 7G 2G 5G12G 4
 -20285708.79749 -15807038.37147  21429144.6494   21429144.3744
   9934268.56049   7740990.88447  22063101.9414   22063102.2804
  10401926.19148   8105396.96346  23024666.3394   23024668.3284
  -9956268.06948  -7758125.19546  23348436.1424   23348436.7314
 -18035802.739 9 -14053865.688 9  20716260.236    20716259.222
 -19602915.72949 -15274988.45248  20568693.6374   20568693.1104
 95  2  9  3 12 30.0000000  0  6G 9G 7G 2G 5G12G 4
 -20320027.24749 -15833780.02347  21422613.9974   21422613.7824
   9996919.13349   7789809.50947  22075024.1354   22075024.6014
  10468743.32248   8157462.24346  23037381.0794   23037381.6994
 -10037165.92648  -7821162.48046  23333041.5464   23333041.0814
 -18054619.813 9 -14068528.340 9  20712679.474    20712678.442
 -19604463.95749 -15276194.85548  20568399.0164   20568398.6164
 95  2  9  3 13  0.0000000  0  6G 9G 7G 2G 5G12G 4
 -20353799.09149 -15860095.74547  21416187.3164   21416187.4674
  10059654.00049   7838693.81247  22086962.4714   22086962.4824
  10535834.59048   8209741.13446  23050148.4504   23050149.8154
 -10118045.71449  -7884185.66946  23317651.1204   23317650.4534
 -18072932.883 9 -14082798.267 9  20709194.595    20709193.579
 -19605464.61749 -15276974.58248  20568208.4984   20568208.2084
 95  2  9  3 13 30.0000000  0  6G 9G 7G 2G 5G12G 4
 -20387069.97849 -15886021.11447  21409856.1424   21409856.0394
  10122449.55949   7887625.42047  22098912.2104   22098912.6344
  10603162.74848   8262204.61546  23062960.3044   23062961.7724
 -10198932.82149  -7947214.58046  23302258.5674   23302258.3194
 -18090760.426 9 -14096689.873 9  20705802.137    20705801.119
 -19605936.41149 -15277342.20648  20568118.7924   20568118.5044
 95  2  9  3 14  0.0000000  0  6G 9G 7G 2G 5G12G 4
 -20419852.31849 -15911565.79547  21403617.9534   21403617.8674
  10185294.94349   7936595.85947  22110870.8344   22110871.0754
  10670723.68548   8314849.47846  23075817.0014   23075818.6354
 -10279830.16248  -8010251.44946  23286863.9934   23286863.9904
 -18108100.990 9 -14110202.007 9  20702502.325    20702501.337
 -19605853.14049 -15277277.31148  20568134.6274   20568134.2624
 95  2  9  3 14 30.0000000  0  6G 9G 7G 2G 5G12G 4
 -20452121.82949 -15936710.86847  21397477.2934   21397477.2484
  10248211.06549   7985621.40447  22122843.6094   22122843.5654
  10738543.41548   8367695.99946  23088722.6414   23088722.9564
 -10360725.92349  -8073287.09946  23271470.2194   23271470.1004
 -18124928.399 9 -14123314.275 9  20699300.187    20699299.179
 -19605173.08149 -15276747.38848  20568264.0974   20568263.6264
 95  2  9  3 15  0.0000000  0  6G 9G 7G 2G 5G12G 4
 -20483893.34349 -15961467.89547  21391431.2814   21391431.1314
  10311189.81249   8034695.75847  22134827.8734   22134828.1654
  10806622.98248   8420744.99446  23101677.9484   23101679.5514
 -10441634.29249  -8136332.55446  23256073.8964   23256074.3794
 -18141249.493 9 -14136032.011 9  20696194.374    20696193.392
 -19603895.99849 -15275752.25048  20568507.0834   20568506.4934
 95  2  9  3 15 30.0000000  0  6G 9G 7G 2G 5G12G 4
 -20515143.47649 -15985818.64847  21385484.5694   21385484.3154
  10374226.07849   8083814.91347  22146823.2634   22146823.0394
  10874973.93748   8474005.46646  23114684.5654   23114685.6254
 -10522545.49448  -8199380.22346  23240676.5004   23240676.7584
 -18157053.274 9 -14148346.648 9  20693187.011    20693186.017
 -19601998.60449 -15274273.75448  20568868.2094   20568867.6874
 95  2  9  3 16  0.0000000  0  6G 9G 7G 2G 5G12G 4
 -20545838.48349 -16009736.83947  21379643.4724   21379643.4224
  10437318.60349   8132977.92047  22158829.4644   22158829.7354
  10943606.01548   8527484.98046  23127744.4724   23127746.1804
 -10603447.77248  -8262420.94446  23225281.5474   23225281.9954
 -18172331.329 9 -14160251.627 9  20690279.697    20690278.704
 -19599467.12449 -15272301.16848  20569349.9754   20569349.3384
 95  2  9  3 16 30.0000000  0  6G 9G 7G 2G 5G12G 4
 -20575971.22449 -16033216.90247  21373909.2894   21373909.2474
  10500466.73149   8182184.24447  22170845.9214   22170845.8674
  11012517.02248   8581181.83646  23140858.0404   23140859.1084
 -10684329.66048  -8325445.77246  23209890.1664   23209890.3194
 -18187081.068 9 -14171744.929 9  20687472.930    20687471.907
 -19596324.89849 -15269852.67648  20569947.9104   20569947.4014
 95  2  9  3 17  0.0000000  0  6G 9G 7G 2G 5G12G 4
 -20605561.57849 -16056274.32248  21368278.6484   21368278.3594
  10563645.04949   8231414.09747  22182868.7404   22182869.0714
  11081671.95548   8635068.77346  23154017.6544   23154018.5324
 -10765203.45849  -8388464.30446  23194500.6434   23194500.7254
 -18201329.567 9 -14182847.660 9  20684761.526    20684760.520
 -19592614.53149 -15266961.47548  20570653.8314   20570653.4404
 95  2  9  3 17 30.0000000  0  6G 9G 7G 2G 5G12G 4
 -20634571.57049 -16078879.51248  21362758.3034   21362758.1134
  10626873.36749   8280682.91647  22194901.1774   22194900.4724
  11151092.47848   8689162.67546  23167228.1174   23167227.9974
 -10846047.03948  -8451459.27546  23179116.4794   23179116.6534
 -18215053.790 9 -14193541.868 9  20682149.887    20682148.911
 -19588310.28049 -15263607.50848  20571473.0074   20571472.5064
 95  2  9  3 18  0.0000000  0  6G 9G 7G 2G 5G12G 4
 -20663007.55849 -16101037.43248  21357347.1414   21357346.9974
  10690167.83449   8330003.29147  22206945.1514   22206945.3674
  11220801.00948   8743481.00246  23180493.5004   23180494.0054
 -10926857.27448  -8514428.27546  23163738.4554   23163739.1064
 -18228248.796 9 -14203823.707 9  20679638.983    20679638.007
 -19583417.33549 -15259794.81948  20572404.1244   20572403.7194
 95  2  9  3 18 30.0000000  0  6G 9G 7G 2G 5G12G 4
 -20690893.60349 -16122766.82148  21352040.5054   21352040.3484
  10753512.12149   8379362.46547  22218999.0094   22218999.2084
  11290780.68448   8798010.60646  23193809.7344   23193811.1824
 -11007652.61148  -8577385.65946  23148363.5494   23148364.2924
 -18240929.724 9 -14213704.965 9  20677225.915    20677224.894
 -19577954.41449 -15255537.99248  20573443.6664   20573443.0774
 95  2  9  3 19  0.0000000  0  6G 9G 7G 2G 5G12G 4
 -20718241.65749 -16144076.99648  21346836.3194   21346836.2544
  10816896.20949   8428752.66747  22231060.8104   22231060.7724
  11361014.43648   8852738.18546  23207174.9504   23207175.9884
 -11088452.37248  -8640346.48946  23132987.7874   23132988.6214
 -18253107.683 9 -14223194.284 9  20674908.542    20674907.476
 -19571917.92649 -15250834.23048  20574592.3424   20574591.7674
 95  2  9  3 19 30.0000000  0  6G 9G 7G 2G 5G12G 4
 -20745053.61349 -16164969.43448  21341734.1174   21341733.9134
  10880319.88549   8478173.71247  22243129.7664   22243130.3144
  11431515.45648   8907674.04246  23220591.0534   23220591.1854
 -11169256.97248  -8703311.09146  23117611.0404   23117610.9854
 -18264771.840 9 -14232283.231 9  20672688.878    20672687.845
 -19565297.76449 -15245675.65748  20575852.0194   20575851.5964
 95  2  9  3 20  0.0000000  0  6G 9G 7G 2G 5G12G 4
 -20771347.76949 -16185458.39248  21336730.6724   21336730.3374
  10943768.22049   8527613.96947  22255203.6084   22255203.7354
  11502265.05348   8962803.58646  23234053.6074   23234053.5984
 -11250059.38548  -8766273.98546  23102235.2794   23102235.6094
 -18275923.214 9 -14240972.609 9  20670566.870    20670565.812
 -19558106.80149 -15240072.30348  20577220.4934   20577220.0214
 95  2  9  3 20 30.0000000  0  6G 9G 7G 2G 5G12G 4
 -20797122.67649 -16205542.74148  21331825.9464   21331825.5134
  11007232.21149   8577066.43447  22267280.3544   22267280.4604
  11573241.25448   9018109.71146  23247560.2854   23247561.3384
 -11330850.86948  -8829228.37446  23086861.0314   23086861.5814
 -18286552.412 9 -14249255.102 9  20668544.208    20668543.149
 -19550342.57349 -15234022.24748  20578697.9174   20578697.4674
 95  2  9  3 21  0.0000000  0  6G 9G 7G 2G 5G12G 4
 -20822383.04749 -16225226.15448  21327018.8964   21327018.6124
  11070727.47249   8626543.27047  22279362.8164   22279363.8544
  11644458.91948   9073603.96946  23261112.0064   23261112.4944
 -11411620.42248  -8892165.67146  23071491.3734   23071491.1354
 -18296650.554 9 -14257123.793 9  20666622.621    20666621.545
 -19542007.38649 -15227527.29148  20580284.1744   20580283.7204
 95  2  9  3 21 30.0000000  0  6G 9G 7G 2G 5G12G 4
 -20847122.83049 -16244503.91248  21322311.0684   21322311.1754
  11134260.51949   8676049.52147  22291453.1754   22291453.2174
  11715933.26048   9129298.23846  23274714.1764   23274715.1154
 -11492364.30548  -8955082.96546  23056126.1074   23056126.7814
 -18306211.024 9 -14264573.518 9  20664803.317    20664802.282
 -19533103.50349 -15220589.19648  20581978.4564   20581977.9974
 95  2  9  3 22  0.0000000  0  6G 9G 7G 2G 5G12G 4
 -20871314.59049 -16263354.63948  21317707.4724   21317707.2674
  11197868.18949   8725613.93447  22303556.8644   22303557.5794
  11787688.87948   9185211.70446  23288368.2514   23288369.9274
 -11573056.88849  -9017960.28346  23040771.0384   23040771.0454
 -18315212.361 9 -14271587.560 9  20663090.428    20663089.380
 -19523601.84449 -15213185.30248  20583786.6274   20583786.2644
 95  2  9  3 22 30.0000000  0  6G 9G 7G 2G 5G12G 4
 -20894941.76749 -16281765.43348  21313211.2624   21313211.1374
  11261579.16349   8775258.83447  22315681.2094   22315681.7794
  11859745.41448   9241359.62146  23302080.0804   23302081.8184
 -11653704.17449  -9080802.30446  23025424.3084   23025424.5174
 -18323653.455 9 -14278165.040 9  20661484.135    20661483.137
 -19513495.84549 -15205310.49148  20585709.6434   20585709.2624
 95  2  9  3 23  0.0000000  0  6G 9G 7G 2G 5G12G 4
 -20917991.50749 -16299726.27448  21308825.1584   21308825.0924
  11325393.05149   8824983.94047  22327824.0674   22327824.5284
  11932105.80948   9297744.32746  23315850.2744   23315851.9484
 -11734325.31549  -9143623.95046  23010082.4804   23010083.0024
 -18331546.247 9 -14284315.274 9  20659982.176    20659981.173
 -19502785.20449 -15196964.53348  20587747.8004   20587747.5264
 95  2  9  3 23 30.0000000  0  6G 9G 7G 2G 5G12G 4
 -20940476.46849 -16317247.02948  21304546.6814   21304546.3854
  11389262.95049   8874752.67947  22339978.6394   22339978.7734
  12004726.07348   9354331.53946  23329668.9324   23329669.7644
 -11814950.87849  -9206449.05046  22994740.0824   22994739.8784
 -18338918.353 9 -14290059.782 9  20658579.339    20658578.306
 -19491485.56449 -15188159.61548  20589897.9974   20589897.6864
 95  2  9  3 24  0.0000000  0  6G 9G 7G 5G 2G12G 4
 -20962380.89649 -16334315.42148  21300378.3584   21300378.2884
  11453190.73949   8924566.54147  22352143.5214   22352143.8334
 -11895552.09249  -9269255.18046  22979402.1724   22979402.5474
  12077602.20648   9411118.08446  23343537.4364   23343539.3524
 -18345759.982 9 -14295390.928 9  20657277.425    20657276.355
 -19479587.81649 -15178888.63748  20592162.0964   20592161.7664
 95  2  9  3 24 30.0000000  0  6G 9G 7G 5G 2G12G 4
 -20983702.67849 -16350929.79948  21296320.8564   21296320.8024
  11517154.65549   8974408.54447  22364315.3704   22364315.7744
 -11976126.54149  -9332040.44646  22964069.2124   22964069.4624
  12150715.36448   9468089.38546  23357450.1124   23357451.9144
 -18352070.796 9 -14300308.444 9  20656076.512    20656075.440
 -19467101.69849 -15169159.19048  20594538.1594   20594537.7174
 95  2  9  3 25  0.0000000  0  6G 9G 7G 5G 2G12G 4
 -21004443.06149 -16367091.14148  21292373.8724   21292373.7664
  11581140.52849   9024267.67247  22376491.0634   22376491.7604
 -12056657.90549  -9394792.14446  22948744.5764   22948744.4654
  12224065.52648   9525245.34946  23371408.3794   23371408.6724
 -18357839.382 9 -14304803.443 9  20654978.794    20654977.731
 -19454025.48449 -15158969.92548  20597026.4074   20597025.8964
 95  2  9  3 25 30.0000000  0  6G 9G 7G 5G 2G12G 4
 -21024622.96449 -16382815.74748  21288533.9524   21288533.8584
  11645144.82049   9074141.13147  22388671.3004   22388671.3384
 -12137127.04849  -9457495.36346  22933431.6934   22933431.2274
  12297654.93348   9582587.75046  23385411.8364   23385413.5834
 -18363066.272 9 -14308876.344 9  20653984.162    20653983.106
 -19440383.89249 -15148340.10748  20599622.2844   20599621.8534
 95  2  9  3 26  0.0000000  0  6G 9G 7G 5G 2G12G 4
 -21044243.86849 -16398104.76748  21284800.1854   21284800.0394
  11709192.00049   9124048.03447  22400858.8974   22400859.2644
 -12217524.57649  -9520142.77747  22918132.8004   22918133.5674
  12371497.67848   9640127.55246  23399463.7304   23399465.5814
 -18367748.674 9 -14312524.970 9  20653093.128    20653092.065
 -19426186.67749 -15137277.33448  20602323.9204   20602323.5694
 95  2  9  3 26 30.0000000  0  6G 9G 7G 5G 2G12G 4
 -21063295.48449 -16412950.18748  21281174.8734   21281174.7724
  11773312.51149   9174012.06647  22413060.8024   22413060.7604
 -12297843.02149  -9582728.55646  22902848.4844   22902848.5794
  12445629.98448   9697892.99746  23413570.2024   23413572.2744
 -18371862.866 9 -14315730.836 9  20652310.230    20652309.148
 -19411408.92149 -15125762.19248  20605135.9994   20605135.7554
 95  2  9  3 27  0.0000000  0  6G 9G 7G 5G 2G12G 4
 -21081800.86449 -16427369.96848  21277653.3844   21277653.2854
  11837501.29849   9224029.29647  22425275.3504   22425275.2704
 -12378092.95149  -9645260.94846  22887577.5084   22887577.3454
  12520057.93048   9755888.79846  23427733.6034   23427735.4574
 -18375422.601 9 -14318504.661 9  20651632.836    20651631.736
 -19396066.69249 -15113807.20348  20608055.4674   20608055.1884
 95  2  9  3 27 30.0000000  0  6G 9G 7G 5G 2G12G 4
 -21099792.10849 -16441389.12348  21274229.7864   21274229.6244
  11901716.08949   9274066.80047  22437495.3674   22437495.5594
 -12458325.96349  -9707780.16146  22872309.7524   22872309.6234
  12594734.54248   9814078.36546  23441944.1634   23441945.2844
 -18378466.892 9 -14320876.844 9  20651053.524    20651052.442
 -19380189.92449 -15101435.69348  20611076.7494   20611076.4364
 95  2  9  3 28  0.0000000  0  6G 9G 7G 5G 2G12G 4
 -21117252.49849 -16454994.62748  21270907.0904   21270906.9974
  11965970.74349   9324135.36147  22449722.6324   22449722.8994
 -12538542.28949  -9770286.37047  22857045.1444   22857045.1744
  12669671.69048   9872470.91946  23456204.5874   23456204.1464
 -18380981.609 9 -14322836.375 9  20650574.994    20650573.929
 -19363740.96649 -15088618.31848  20614206.8624   20614206.4724
 95  2  9  3 28 30.0000000  0  6G 9G 7G 5G 2G12G 4
 -21134184.58949 -16468188.47148  21267685.0114   21267684.9224
  12030248.35549   9374221.80847  22461954.3204   22461954.5374
 -12618743.40549  -9832780.73347  22841783.3654   22841783.1754
  12744866.75148   9931064.46746  23470513.3674   23470515.4624
 -18382966.826 9 -14324383.302 9  20650197.263    20650196.191
 -19346718.90949 -15075354.37348  20617446.1374   20617445.7494
 95  2  9  3 29  0.0000000  0  6G 9G 7G 5G 2G12G 4
 -21150576.37649 -16480961.30148  21264565.9264   21264565.8964
  12094544.48949   9424322.68747  22474189.3254   22474189.8084
 -12698924.72849  -9895259.67247  22826525.3264   22826525.4504
  12820313.92448   9989854.43746  23484870.6824   23484872.7224
 -18384416.745 9 -14325513.101 9  20649921.342    20649920.288
 -19329128.21549 -15061647.33748  20620793.5794   20620793.1114
 95  2  9  3 29 30.0000000  0  6G 9G 7G 5G 2G12G 4
 -21166406.84649 -16493296.73848  21261553.4234   21261553.3524
  12158872.64349   9474448.53546  22486430.2344   22486430.3704
 -12779074.12949  -9957713.72547  22811273.3814   22811273.2084
  12896018.49948  10048844.99846  23499276.6074   23499277.2734
 -18385318.171 9 -14326215.504 9  20649749.797    20649748.732
 -19310956.65149 -15047487.67248  20624251.4604   20624251.0484
 95  2  9  3 30  0.0000000  0  6G 9G 7G 5G 2G12G 4
 -21181666.54849 -16505187.42448  21258649.5054   21258649.4594
  12223247.06549   9524610.39847  22498679.8774   22498681.0204
 -12859158.08949 -10020116.79747  22796033.7644   22796034.3894
  12971998.87848  10108050.48246  23513735.8584   23513737.3574
 -18385662.768 9 -14326484.024 9  20649684.209    20649683.155
 -19292204.88749 -15032875.90248  20627819.9644   20627819.5154
 95  2  9  3 30 30.0000000  0  6G 9G 7G 5G 2G12G 4
 -21196350.75949 -16516629.66548  21255855.2744   21255855.1764
  12287654.29349   9574797.85446  22510936.7304   22510936.9104
 -12939180.89549 -10082472.21347  22780805.6194   22780805.3104
  13048236.40448  10167456.33445  23528242.6884   23528243.3364
 -18385457.736 9 -14326324.270 9  20649723.263    20649722.181
 -19272898.06249 -15017831.61548  20631493.8904   20631493.3874
 95  2  9  3 31  0.0000000  0  6G 9G 7G 5G 2G12G 4
 -21210453.21649 -16527618.60648  21253171.7484   21253171.7404
  12352096.50349   9625012.56146  22523199.7684   22523199.7794
 -13019145.67549 -10144782.41247  22765589.0994   22765588.9764
  13124732.99048  10227064.05546  23542799.8114   23542800.7874
 -18384703.130 9 -14325736.273 9  20649866.887    20649865.768
 -19253046.10949 -15002362.55848  20635271.5444   20635271.1014
 95  2  9  3 31 30.0000000  0  6G 9G 7G 5G 2G12G 4
 -21223982.26249 -16538160.72748  21250597.1964   21250597.0474
  12416560.49549   9675244.24047  22535466.7654   22535467.1104
 -13099068.20049 -10207059.68847  22750380.4694   22750380.2914
  13201475.20448  10286863.16546  23557403.2664   23557404.1914
 -18383420.388 9 -14324736.742 9  20650110.989    20650109.857
 -19232662.47949 -14986479.20548  20639150.5254   20639149.9334
 95  2  9  3 32  0.0000000  0  6G 9G 7G 2G 5G12G 4
 -21236937.50149 -16548255.72448  21248131.8654   21248131.6954
  12481044.05049   9725491.13746  22547737.5094   22547737.2304
  13278468.85148  10346858.21446  23572054.5374   23572055.4844
 -13178960.19649 -10269313.18047  22735177.4074   22735177.5734
 -18381605.734 9 -14323322.732 9  20650456.299    20650455.178
 -19211747.38349 -14970181.71948  20643130.4494   20643129.9824
 95  2  9  3 32 30.0000000  0  6G 9G 7G 5G 2G12G 4
 -21249325.74249 -16557908.90448  21245774.3964   21245774.2254
  12545545.72149   9775752.20646  22560011.8874   22560012.2524
 -13258847.39049 -10331562.92247  22719975.4774   22719975.5924
  13355711.25948  10407047.09746  23586753.7534   23586754.5854
 -18379255.166 9 -14321491.134 9  20650903.610    20650902.497
 -19190295.18349 -14953465.71448  20647212.5524   20647212.1094
 95  2  9  3 33  0.0000000  0  6G 9G 7G 5G 2G12G 4
 -21261149.00149 -16567121.83848  21243524.7544   21243524.7004
  12610067.76449   9826029.10346  22572289.8884   22572290.1954
 -13338718.97249 -10393800.51147  22704776.2464   22704776.1744
  13433221.42648  10467444.63546  23601503.4684   23601505.4614
 -18376358.889 9 -14319234.301 9  20651454.756    20651453.624
 -19168286.25949 -14936315.89648  20651400.6684   20651400.1444
 95  2  9  3 33 30.0000000  0  6G 9G 7G 5G 2G12G 4
 -21272419.19949 -16575903.81648  21241379.9974   21241380.0354
  12674594.68349   9876309.81146  22584569.5204   22584568.8844
 -13418587.76449 -10456035.90847  22689577.7794   22689578.4024
  13510975.50948  10528032.22146  23616299.5784   23616300.5034
 -18372924.731 9 -14316558.335 9  20652108.259    20652107.131
 -19145714.41549 -14918727.44048  20655695.9904   20655695.6354
 95  2  9  3 34  0.0000000  0  6G 9G 7G 5G 2G12G 4
 -21283141.36949 -16584258.75448  21239339.4444   21239339.6664
  12739118.31149   9926587.96846  22596847.2684   22596848.2344
 -13498446.43849 -10518263.44547  22674381.1694   22674381.5534
  13588955.94648  10588796.14546  23631138.7834   23631139.6864
 -18368950.470 9 -14313461.510 9  20652864.542    20652863.433
 -19122582.99849 -14900702.95348  20660097.7654   20660097.0674
 95  2  9  3 34 30.0000000  0  6G 9G 7G 5G 2G12G 4
 -21293297.08649 -16592172.30248  21237406.9984   21237406.9144
  12803661.57249   9976881.40646  22609129.5864   22609129.7394
 -13578250.47449 -10580448.39947  22659194.6804   22659194.5234
  13667164.50048  10649737.87746  23646020.8754   23646022.3754
 -18364415.054 9 -14309927.425 9  20653727.604    20653726.503
 -19098873.91249 -14882228.33648  20664609.5914   20664608.9814
 95  2  9  3 35  0.0000000  0  6G 9G 7G 5G 2G12G 4
 -21302863.03549 -16599626.29148  21235586.6284   21235586.7284
  12868245.59149  10027206.61746  22621419.4574   22621419.2484
 -13657950.57149 -10642552.36947  22644028.6044   22644028.5284
  13745610.62248  10710864.70946  23660948.5084   23660950.1904
 -18359301.264 9 -14305942.660 9  20654700.704    20654699.653
 -19074577.52049 -14863296.07648  20669232.9434   20669232.4464
 95  2  9  3 35 30.0000000  0  6G 9G 7G 5G 2G12G 4
 -21311834.71749 -16606617.22148  21233879.3054   21233879.2774
  12932880.43649  10077571.43346  22633719.2334   22633719.1074
 -13737534.78449 -10704566.01747  22628884.0104   22628884.1104
  13824277.92648  10772163.90646  23675918.7434   23675920.2194
 -18353605.882 9 -14301504.707 9  20655784.496    20655783.442
 -19049711.88149 -14843920.24948  20673964.6944   20673964.1254
 95  2  9  3 36  0.0000000  0  6G 9G 7G 5G 2G12G 4
 -21320234.02849 -16613162.14448  21232280.9184   21232280.7864
  12997573.45249  10127981.57946  22646030.2394   22646029.9794
 -13816995.32249 -10766483.29647  22613763.5054   22613763.3664
  13903168.68048  10833637.20746  23690930.8834   23690932.3444
 -18347339.902 9 -14296622.138 9  20656976.892    20656975.821
 -19024300.51149 -14824119.17748  20678800.3014   20678799.8324
 95  2  9  3 36 30.0000000  0  6G 9G 7G 5G 2G12G 4
 -21328050.26449 -16619252.72348  21230793.7084   21230793.5734
  13062368.04148  10178470.86346  22658359.3714   22658359.0134
 -13896305.14449 -10828283.14747  22598671.0564   22598671.8274
  13982329.44548  10895320.89946  23705994.5504   23705995.5214
 -18340472.262 9 -14291270.741 9  20658283.788    20658282.736
 -18998309.95249 -14803866.78848  20683746.0554   20683745.7594
 95  2  9  3 37  0.0000000  0  6G 9G 7G 5G 2G12G 4
 -21335304.82849 -16624905.63048  21229413.0554   21229412.9354
  13127237.25649  10229018.30146  22670704.2204   22670704.5004
 -13975501.89049 -10889994.88347  22583600.2284   22583600.3654
  14061756.76348  10957212.29946  23721109.5614   23721110.4524
 -18333030.606 9 -14285472.053 9  20659699.911    20659698.795
 -18971765.06949 -14783182.45748  20688797.2984   20688797.1464
 95  2  9  3 37 30.0000000  0  6G 9G 7G 5G 2G12G 4
 -21342016.38549 -16630135.41648  21228136.1134   21228135.9864
  13192168.00249  10279613.69746  22683060.1894   22683060.1434
 -14054623.61849 -10951648.16247  22568544.1124   22568544.2564
  14141450.68148  11019311.43346  23736274.5754   23736275.6714
 -18325027.469 9 -14279235.848 9  20661222.872    20661221.724
 -18944678.99849 -14762076.42348  20693951.6534   20693951.3224
 95  2  9  3 38  0.0000000  0  6G 9G 7G 5G 2G12G 4
 -21348199.31249 -16634953.28348  21226959.4964   21226959.2714
  13257146.36049  10330246.16346  22695424.9774   22695425.2204
 -14133691.73649 -11013259.67147  22553497.8814   22553497.8274
  14221420.25048  11081625.34146  23751492.1554   23751494.9424
 -18316472.108 9 -14272569.329 9  20662850.916    20662849.747
 -18917040.91549 -14740540.24948  20699211.1344   20699210.7914
 95  2  9  3 38 30.0000000  0  6G 9G 7G 5G 2G12G 4
 -21353829.11149 -16639340.14448  21225888.2454   21225888.1304
  13322153.33848  10380900.95146  22707795.0744   22707795.4024
 -14212712.65949 -11074834.40547  22538460.5014   22538460.6334
  14301665.54648  11144154.15846  23766762.6644   23766763.3114
 -18307354.793 9 -14265464.921 9  20664585.855    20664584.690
 -18888839.82249 -14718565.36748  20704577.5064   20704577.0284
 95  2  9  3 39  0.0000000  0  6G 9G 7G 5G 2G12G 4
 -21358886.29549 -16643280.81048  21224925.8044   21224925.4614
  13387168.86348  10431562.39446  22720167.3634   22720167.8064
 -14291691.22449 -11136376.14147  22523431.8004   22523431.7954
  14382183.13948  11206895.11345  23782084.0974   23782087.3784
 -18297678.302 9 -14257924.796 9  20666427.231    20666426.078
 -18860080.85449 -14696155.77648  20710050.2244   20710049.5864
 95  2  9  3 39 30.0000000  0  6G 9G 7G 5G 2G12G 4
 -21363386.49649 -16646787.46748  21224069.3814   21224069.2664
  13452171.71948  10482213.96446  22732536.8384   22732537.1114
 -14370646.42749 -11197899.66247  22508406.9514   22508407.0664
  14462934.81748  11269818.47245  23797451.6874   23797451.0514
 -18287459.847 9 -14249962.368 9  20668371.717    20668370.585
 -18830778.81949 -14673323.01748  20715626.3354   20715625.5874
 95  2  9  3 40  0.0000000  0  6G 9G 7G 5G 2G12G 4
 -21367287.68549 -16649827.36148  21223327.0834   21223326.9144
  13517182.11448  10532871.41546  22744908.0814   22744908.2054
 -14449536.78449 -11259372.67447  22493394.6034   22493394.7474
  14543937.96148  11332937.79346  23812865.8694   23812866.3294
 -18276676.313 9 -14241559.640 9  20670423.810    20670422.671
 -18800908.68949 -14650047.58848  20721310.3774   20721309.6414
 95  2  9  3 40 30.0000000  0  6G 9G 7G 5G 2G12G 4
 -21370579.18549 -16652392.17548  21222700.6634   21222700.4794
  13582206.53148  10583539.78846  22757281.9814   22757283.3644
 -14528343.62749 -11320780.58747  22478397.9934   22478398.1124
  14625188.81648  11396250.14545  23828326.9854   23828326.8034
 -18265325.383 9 -14232714.777 9  20672583.819    20672582.704
 -18770490.68049 -14626345.23948  20727098.6134   20727098.1464
 95  2  9  3 41  0.0000000  0  6G 9G 7G 5G 2G12G 4
 -21373257.37249 -16654479.08048  21222191.1164   21222190.7624
  13647269.64648  10634238.31846  22769662.8864   22769664.5384
 -14607042.19449 -11382104.11147  22463422.2484   22463422.5154
  14706705.93648  11459769.97845  23843839.3844   23843840.2584
 -18253396.220 9 -14223419.336 9  20674853.831    20674852.767
 -18739522.32449 -14602214.04948  20732991.7464   20732991.1914
 95  2  9  3 41 30.0000000  0  6G 9G 7G 5G 2G12G 4
 -21375351.97549 -16656111.24448  21221792.4834   21221792.2084
  13712363.93248  10684961.11946  22782050.1194   22782050.8764
 -14685635.21449 -11443345.40247  22448466.5594   22448466.7254
  14788472.71848  11523484.31645  23859398.1144   23859400.6904
 -18240903.172 9 -14213684.502 9  20677231.194    20677230.133
 -18708028.65049 -14577673.52148  20738984.6764   20738984.3214
 95  2  9  3 42  0.0000000  0  6G 9G 5G 7G 2G12G 4
 -21376881.64049 -16657303.19948  21221501.5464   21221501.2914
 -14764120.85549 -11504503.03547  22433531.3044   22433531.4864
  13777479.59548  10735700.59346  22794441.1254   22794441.3254
  14870488.40948  11587392.67445  23875005.9334   23875007.3254
 -18227852.581 9 -14203515.209 9  20679714.622    20679713.564
 -18676029.47349 -14552739.09548  20745074.1014   20745073.6494
 95  2  9  3 42 30.0000000  0  6G 9G 5G 7G 2G12G 4
 -21377888.57549 -16658087.82948  21221309.9764   21221310.0094
 -14842536.11249 -11565605.82347  22418609.1864   22418609.2654
  13842589.25548  10786435.38646  22806830.8314   22806832.6044
  14952726.10448  11651473.95645  23890655.1874   23890655.8844
 -18214264.513 9 -14192927.096 9  20682300.359    20682299.258
 -18643546.13449 -14527427.39948  20751255.4704   20751254.9634
 95  2  9  3 43  0.0000000  0  6G 9G 5G 7G 2G12G 4
 -21378348.60349 -16658446.29848  21221222.3754   21221222.2574
 -14920873.71149 -11626648.09347  22403702.2274   22403702.1314
  13907723.25648  10837189.14446  22819224.8964   22819226.3734
  15035200.99848  11715740.10545  23906349.5814   23906350.4974
 -18200112.312 9 -14181899.399 9  20684993.433    20684992.325
 -18610537.73749 -14501706.56748  20757536.6804   20757536.1324
 95  2  9  3 43 30.0000000  0  6G 9G 5G 7G 2G12G 4
 -21378267.18849 -16658382.86348  21221237.7504   21221237.8594
 -14999153.32849 -11687645.18747  22388806.0884   22388806.6044
  13972867.37048  10887950.79546  22831621.9854   22831621.8244
  15117891.84448  11780174.51945  23922084.7464   23922086.5964
 -18185409.137 9 -14170442.371 9  20687791.377    20687790.270
 -18577012.49549 -14475582.99948  20763916.3204   20763915.6644
 95  2  9  3 44  0.0000000  0  6G 9G 5G 7G 2G12G 4
 -21377623.61649 -16657881.38448  21221360.1674   21221360.1494
 -15077365.27249 -11748589.54847  22373922.9664   22373922.8224
  14038025.49548  10938723.35946  22844021.1404   22844022.0684
  15200804.97248  11844782.09645  23937862.8794   23937863.2604
 -18170144.660 9 -14158547.978 9  20690696.091    20690695.005
 -18542956.62549 -14449045.95648  20770396.8904   20770396.4524
 95  2  9  3 44 30.0000000  0  6G 9G 5G 7G 2G12G 4
 -21376410.06549 -16656935.76848  21221591.2254   21221591.2214
 -15155509.21949 -11809480.94047  22359052.6014   22359052.2514
  14103201.39048  10989509.75646  22856423.7314   22856424.8414
  15283946.61748  11909567.78845  23953684.2154   23953684.5084
 -18154320.549 9 -14146217.510 9  20693707.347    20693706.249
 -18508363.50149 -14422090.27148  20776979.9064   20776979.4074
 95  2  9  3 45  0.0000000  0  6G 9G 5G 7G 2G12G 4
 -21374614.36449 -16655536.52548  21221932.9984   21221932.9024
 -15233550.72649 -11870292.49247  22344201.8264
   -214748.3654   14168404.22048  11040317.15146  22868831.1664   22868831.0994
  15367334.89848  11974545.64745  23969552.9854   23969556.5644
 -18137932.732 9 -14133447.806 9  20696825.897    20696824.741
 -18473237.33449 -14394719.23048  20783664.1254   20783663.4954
 95  2  9  3 45 30.0000000  0  6G 9G 5G 7G 2G12G 4
 -21372222.99149 -16653673.11948  21222387.9334   21222388.0094
 -15311457.60449 -11930999.13447  22329376.6284   22329376.4964
  14233630.78148                  11091143.05146  22881243.4744   22881243.8464
  15450997.54548  12039737.32645  23985473.2484   23985474.5064
 -18120967.149 9 -14120227.889 9  20700054.331    20700053.179
 -18437571.64049 -14366927.77648  20790451.1634   20790450.5424
 95  2  9  3 46  0.0000000  0  6G 9G 5G 7G 2G12G 4
 -21369255.79749 -16651361.02248  21222952.5204   21222952.4144
 -15389241.78749 -11991610.18647  22314574.5404   22314574.4294
  14298875.09048                  11141982.77146  22893659.1644   22893659.8914
  15534922.44548  12105133.35745  24001443.3194   24001445.8814
 -18103433.452 9 -14106565.287 9  20703390.917    20703389.723
 -18401374.57949 -14338722.27148  20797339.2274   20797338.6904
 95  2  9  3 46 30.0000000  0  6G 9G 5G 7G 2G12G 4
 -21365734.96549 -16648617.52148  21223622.5894   21223622.6764
 -15466929.24849 -12052145.86747  22299790.9874   22299791.1314
  14364134.46748                  11192834.23146  22906077.4974   22906077.2874
  15619086.42448  12170715.64545  24017459.1914   24017459.1504
 -18085347.340 9 -14092472.232 9  20706832.601    20706831.403
 -18364663.91549 -14310116.55648  20804325.0094   20804324.5144
 95  2  9  3 47  0.0000000  0  7G 9G 5G 7G 2G24G12G 4
 -21361689.03849 -16645464.86348  21224392.5254   21224392.5444
 -15544545.74149 -12112626.23847  22285021.1104   22285020.9114
  14429375.38348                  11243671.30846  22918492.6334   22918492.5374
  15703453.85848  12236456.51645  24033514.2504   24033516.8754
        -0.70359        -0.69758  20582712.3174   20582713.0274
 -18066734.450 9 -14077968.695 9  20710374.490    20710373.341
 -18327472.48249 -14281136.21548  20811402.3014   20811401.6964
 95  2  9  3 47 30.0000000  0  7G 9G 5G 7G 2G24G12G 4
 -21355642.16749 -16640753.02548  21225543.1964   21225543.2274
 -15620638.69949 -12171919.45747  22270541.2024   22270540.7004
  14496078.39148                  11295647.67046  22931186.1664   22931186.1174
  15789489.43148  12303497.15345  24049886.1324   24049887.2304
    -43324.87249    -33759.77248  20574467.9894   20574468.6164
 -18046115.329 9 -14061901.874 9  20714298.196    20714297.083
 -18288318.14449 -14250626.33748  20818853.1654   20818852.6164
 95  2  9  3 48  0.0000000  0  7G 9G 5G 7G 2G24G12G 4
 -21347087.71949 -16634087.23548  21227171.1994   21227171.1664
 -15694696.27449 -12229626.65347  22256448.5834   22256448.3224
  14564758.76848                  11349164.83846  22944255.7904   22944255.1944
  15877693.19648  12372227.34445  24066670.3224   24066671.8234
    -84190.10649    -65602.79348  20566691.5804   20566692.1404
 -18022979.352 9 -14043873.866 9  20718700.873    20718699.725
 -18246698.44549 -14218195.40048  20826773.0684   20826772.5574
 95  2  9  3 48 30.0000000  0  7G 9G 5G 7G 2G24G12G 4
 -21341104.84749 -16629425.27248  21228309.7494   21228309.7334
 -15771784.56449 -12289695.44347  22241778.9174   22241778.6584
  14630315.13548                  11400247.71846  22956730.3994   22956729.8914
  15962981.02348  12438685.40145  24082900.5394   24082900.4784
   -127690.40449    -99499.10848  20558413.7284   20558414.3464
 -18002411.930 9 -14027847.314 9  20722614.727    20722613.566
 -18207711.13749 -14187815.67848  20834192.0194   20834191.5504
 95  2  9  3 49  0.0000000  0  7G 9G 5G 7G 2G24G12G 4
 -21335524.80249 -16625077.20048  21229371.3844   21229371.4324
 -15849725.64149 -12350428.74347  22226947.4394   22226947.3384
  14694901.99348                  11450575.15446  22969021.0774   22969021.1724
  16047526.62948  12504565.09145  24098988.9564   24098990.7734
   -171645.91649   -133750.13748  20550049.2624   20550049.9794
 -17982247.981 9 -14012135.152 9  20726451.831    20726450.623
 -18169197.67149 -14157805.18348  20841520.8894   20841520.4244
 95  2  9  3 49 30.0000000  0  7G 9G 5G 7G 2G24G12G 4
 -21329573.39849 -16620439.75748  21230504.0144   21230504.0594
 -15927742.63549 -12411221.19047  22212101.0004   22212100.9224
  14759304.34248                  11500758.77346  22981276.2214   22981277.1904
  16132102.30248  12570468.18345  24115083.0554   24115084.8584
   -215266.50649   -167740.19148  20541748.5044   20541749.0784
 -17961713.379 9 -13996134.175 9  20730359.438    20730358.224
 -18130378.49149 -14127556.46848  20848907.8514   20848907.4284
 95  2  9  3 50  0.0000000  0  7G 9G 5G 7G 2G24G12G 4
 -21322962.48949 -16615288.41248  21231762.0584   21231761.9614
 -16005526.83049 -12471832.23947  22197299.2934   22197299.3214
  14823808.27348                  11551021.55346  22993550.8034   22993551.5644
  16216993.63148  12636617.28645  24131238.2594   24131238.2244
   -258265.30349   -201245.73548  20533566.1144   20533566.6414
 -17940524.653 9 -13979623.488 9  20734391.496    20734390.354
 -18090963.52749 -14096843.50748  20856408.1744   20856407.8604
 95  2  9  3 50 30.0000000  0  7G 9G 5G 7G 2G24G12G 4
 -21315631.33949 -16609575.83948  21233157.1464   21233156.9744
 -16083026.86149 -12532221.87347  22182551.7164   22182551.7664
  14888481.32248                  11601416.15746  23005857.8994   23005857.3334
  16302266.34748  12703063.49845  24147464.2584   24147466.3494
   -300594.69349   -234229.66048  20525511.1344   20525511.7714
 -17918623.639 9 -13962557.768 9  20738559.124    20738557.992
 -18050889.64149 -14065617.10148  20864034.1804   20864033.7274
 95  2  9  3 51  0.0000000  0  7G 9G 5G 7G 2G24G12G 4
 -21307594.95549 -16603313.73648  21234686.4694   21234686.3254
 -16160269.79649 -12592411.17047  22167852.8204   22167852.8144
  14953325.74448                  11651944.28746  23018197.1624   23018198.2834
  16387907.51948  12769796.88545  24163761.7864   24163760.4164
   -342267.34249   -266701.84048  20517580.9784   20517581.4834
 -17896020.006 9 -13944944.548 9  20742860.458    20742859.306
 -18010154.07149 -14033875.09748  20871785.8264   20871785.3404
 95  2  9  3 51 30.0000000  0  7G 9G 5G 7G 2G24G12G 4
 -21298846.91949 -16596497.09648  21236351.1364   21236351.0694
 -16237253.59849 -12652398.53747  22153203.1944   22153203.4264
  15018349.83148                  11702612.37246  23030570.7424   23030570.4994
  16473919.19148  12836818.93645  24180129.0534   24180130.7164
   -383292.20349   -298669.25148  20509774.2324   20509774.8174
 -17872705.331 9 -13926777.269 9  20747297.084    20747295.945
 -17968748.41649 -14001610.94748  20879665.0574   20879664.4894
 95  2  9  3 52  0.0000000  0  7G 9G 5G 7G 2G24G12G 4
 -21289430.97049 -16589160.00148  21238142.8484   21238142.8844
 -16314033.57049 -12712227.06447  22138592.6034   22138592.3804
  15083494.50949                  11753374.45046  23042968.1874   23042968.0034
  16560260.16048  12904097.60745  24196559.0444   24196561.4684
   -423721.93949   -330172.93048  20502080.6544   20502081.3134
 -17848729.417 9 -13908094.734 9  20751859.530    20751858.407
 -17926740.35649 -13968877.39148  20887658.9524   20887658.4294
 95  2  9  3 52 30.0000000  0  7G 9G 5G 7G 2G24G12G 4
 -21279375.35049 -16581324.46648  21240056.4914   21240056.4414
 -16390646.43549 -12771925.38847  22124013.4524   22124013.3944
  15148740.55148                  11804215.55546  23055383.1384   23055383.8034
  16646915.73948  12971621.42945  24213049.1344   24213051.4464
   -463573.24249   -361225.89048  20494497.2624   20494497.8944
 -17824113.012 9 -13888913.115 9  20756543.887    20756542.732
 -17884163.73349 -13935700.79948  20895761.0914   20895760.4064
 95  2  9  3 53  0.0000000  0  7G 9G 5G 7G 2G24G12G 4
 -21268701.13449 -16573006.90448  21242087.7164   21242087.6204
 -16467102.26649 -12831501.33847  22109464.5334   22109464.7374
  15214068.95448                  11855120.77946  23067814.4864   23067814.9684
  16733862.68848  13039372.27245  24229594.3734   24229593.7814
   -502864.09549   -391842.13648  20487020.4524   20487021.1674
 -17798877.412 9 -13869249.019 9  20761346.082    20761344.917
 -17841038.10549 -13902096.41148  20903967.5074   20903966.9544
 95  2  9  3 53 30.0000000  0  7G 9G 5G 7G 2G24G12G 4
 -21257446.52749 -16564237.08648  21244229.3724   21244229.2894
 -16543412.41449 -12890963.78247  22094943.3144   22094943.1024
  15279443.86048                  11906062.24946  23080255.6344   23080256.8524
  16821074.32048  13107329.33945  24246190.4514   24246192.2834
   -541618.37749   -422040.27348  20479645.7044   20479646.3364
 -17773054.746 9 -13849127.476 9  20766260.002    20766258.814
 -17797407.21949 -13868098.31648  20912270.1884   20912269.6834
 95  2  9  3 54  0.0000000  0  7G 9G 5G 7G 2G24G12G 4
 -21245585.58449 -16554994.80148  21246486.3484   21246486.2674
 -16619546.89249 -12950289.35147  22080455.3744   22080455.2064
  15344885.31148                  11957055.57446  23092708.2084   23092709.4994
  16908574.87548  13175511.55345  24262840.3694   24262842.0764
   -579814.60349   -451803.56448  20472377.2714   20472377.9194
 -17746624.155 9 -13828532.213 9  20771289.567    20771288.394
 -17753242.50649 -13833684.24948  20920674.6124   20920673.9144
 95  2  9  3 54 30.0000000  0  6G 9G 5G 7G24G12G 4
 -21233131.72549 -16545290.50048  21248856.1654   21248856.1014
 -16695498.80749 -13009472.65747  22066002.1224   22066001.9914
  15410382.07148                  12008091.97146  23105171.6734   23105172.1144
   -617466.82449   -481142.95148  20465212.1984   20465212.8054
 -17719591.510 9 -13807467.814 9  20776433.694    20776432.523
 -17708538.35049 -13798849.83948  20929181.3664   20929180.9844
 95  2  9  3 55  0.0000000  0  6G 9G 5G 7G24G12G 4
 -21220118.69649 -16535150.48448  21251332.5684   21251332.4474
 -16771289.64149 -13068530.43147  22051579.5844   22051579.4254
  15475882.99648                  12059131.66246  23117637.1094   23117636.8034
   -654611.76249   -510087.05048  20458143.8384   20458144.4084
 -17691996.976 9 -13785965.586 9  20781684.768    20781683.596
 -17663338.14549 -13763628.89648  20937782.6594   20937782.0144
 95  2  9  3 55 30.0000000  0  7G 9G 5G 7G16G24G12G 4
 -21206651.37549 -16524656.47648  21253895.3664   21253895.4514
 -16847042.19749 -13127558.38047  22037164.3114   22037163.8704
  15541268.92248                  12110081.73046  23130079.6684   23130080.1034
        -0.29358         0.54955  25246299.1064   25246302.8724
   -691342.28649   -538708.22648  20451154.1954   20451154.9034
 -17663946.553 9 -13764108.125 9  20787022.630    20787021.441
 -17617754.40549 -13728109.09548  20946457.0714   20946456.4474
 95  2  9  3 56  0.0000000  0  7G 9G 5G 7G16G24G12G 4
 -21192643.41749 -16513741.19948  21256561.0244   21256561.0364
 -16922683.36549 -13186499.54747  22022770.1014   22022770.2124
  15606624.84448                  12161008.40146  23142515.8314   23142515.7434
    -84214.94248    -65621.22845  25230273.6764   25230276.9764
   -727574.99949   -566941.49848  20444259.3884   20444260.0264
 -17635357.149 9 -13741830.673 9  20792463.019    20792461.824
 -17571704.93249 -13692226.38748  20955219.9344   20955219.4504
 95  2  9  3 56 30.0000000  0  8G 9G 5G 7G16G20G24G12G 4
 -21177927.29749 -16502274.10848  21259361.3674   21259361.2324
 -16998030.45249 -13245211.57447  22008432.2364   22008431.9044
  15672139.16748                  12212058.50446  23154982.7324   23154982.8814
   -168467.25848   -131272.37345  25214241.6484   25214241.7714
         0.23158         1.08555  25155913.0444   25155912.3584
   -763118.83549   -594637.98048  20437495.6994   20437496.2264
 -17606050.114 9 -13718994.027 9  20798039.962    20798038.764
 -17525020.25149 -13655848.71048  20964103.7354   20964103.2524
 95  2  9  3 57  0.0000000  0  8G 9G 5G 7G16G20G24G12G 4
 -21161880.13049 -16489769.83948  21262415.0134   21262415.0194
 -17072468.08449 -13303214.91747  21994267.0304   21994266.7724
  15738437.94148                  12263719.91346  23167598.9074   23167599.4884
   -252122.83648   -196458.51844  25198322.0374   25198324.5174
    -96183.78248    -74947.44744  25137609.5064   25137603.0314
   -797342.38549   -621305.66448  20430983.0314   20430983.5934
 -17575401.488 9 -13695111.999 9  20803872.236    20803871.024
 -17477078.77849 -13618491.71648  20973226.7064   20973226.4244
 95  2  9  3 57 30.0000000  0  8G 4G 5G 9G 7G16G20G24G12
 -17423892.92849 -13577048.19348  20983347.6054   20983347.1804
 -17142040.37749 -13357427.08347  21981027.8084   21981027.7104
 -21140535.31349 -16473137.53148  21266476.7484   21266476.6814
  15809502.69948                  12319095.03746  23181122.2074   23181123.6614
   -331200.15048   -258077.21044  25183274.4264   25183276.0084
   -187680.65148   -146243.65445  25120197.7024   25120198.0434
   -826282.80149   -643856.61848  20425475.8544   20425476.4514
 -17539433.615 9 -13667085.114 9  20810716.701    20810715.512
 95  2  9  3 58  0.0000000  0  8G 4G 5G 9G 7G16G20G24G12
 -17367801.31749 -13533340.44248  20994021.3994   20994021.0364
 -17209060.88049 -13409650.84647  21968274.3084   21968273.8954
 -21116235.26649 -16454202.45348  21271101.1134   21271101.2054
  15883003.76048                  12376368.58746  23195109.1684   23195110.1204
   -408025.29548   -317940.96245  25168655.2304   25168656.6184
   -276833.75848   -215713.65944  25103232.5264   25103234.7584
   -852284.28249   -664117.49348  20420528.0434   20420528.7964
 -17500486.635 9 -13636736.848 9  20818128.106    20818126.919
 95  2  9  3 58 30.0000000  0  8G 4G 5G 9G 7G16G20G24G12
 -17320377.97049 -13496387.18348  21003045.7204   21003045.2864
 -17285108.62749 -13468908.82547  21953802.9484   21953802.4884
 -21100558.76049 -16441987.01548  21274084.1104   21274084.2584
  15947361.29148                  12426517.28846  23207356.0244   23207356.9584
   -494183.25248   -385077.02745  25152260.0894   25152263.3814
   -375207.30448   -292368.22445  25084513.1864   25084512.8444
   -886922.93349   -691108.63548  20413936.4864   20413936.9684
 -17470143.526 9 -13613092.882 9  20823902.174    20823901.053
 95  2  9  3 59  0.0000000  0  8G 4G 5G 9G 7G16G20G24G12
 -17275438.79949 -13461369.64548  21011597.4654   21011597.1884
 -17364008.39549 -13530389.16347  21938788.6204   21938788.4764
 -21087317.67849 -16431669.31048  21276603.9024   21276603.8084
  16008759.81948                  12474360.31746  23219039.8424   23219040.6374
   -583497.41048   -454672.43544  25135263.6744   25135266.8864
   -476606.08148   -371380.34945  25065218.1164   25065212.1594
   -924016.57049   -720012.75148  20406877.7154   20406878.2364
 -17442222.731 9 -13591336.426 9  20829215.334    20829214.207
 95  2  9  3 59 30.0000000  0  8G 4G 5G 9G 7G16G24G12G20
 -17228261.62449 -13424608.20848  21020575.0414   21020574.5414
 -17441016.28749 -13590395.31447  21924134.7824   21924134.5584
 -21071774.50149 -16419557.75648  21279561.5304   21279561.6544
  16071941.15848                  12523592.52346  23231062.6474   23231064.9284
   -671240.64348   -523043.74545  25118567.0264   25118566.6744
   -958835.07349   -747144.03948  20400252.1224   20400252.6394
 -17411995.653 9 -13567782.865 9  20834967.376    20834966.227
   -576314.44448   -449075.16645  25046243.8324   25046242.3574
 95  2  9  4  0  0.0000000  0  8G 4G 5G 9G 7G16G20G24G12
 -17179587.73749 -13386680.50348  21029837.5044   21029836.9104
 -17516836.08049 -13649475.67047  21909706.7874   21909706.6204
 -21054644.38849 -16406209.62448  21282821.4034   21282821.3734
  16136184.09548                  12573651.95146  23243287.6544   23243288.5384
   -758147.76948   -590763.62145  25102029.1114   25102027.6594
   -675060.27448   -526019.94645  25027452.8054   25027457.4724
   -992090.94849   -773057.69648  20393923.5164   20393924.0744
 -17380189.107 9 -13542998.543 9  20841019.969    20841018.793
 95  2  9  4  0 30.0000000  0  8G 4G 5G 9G 7G16G20G24G12
 -17130212.11449 -13348205.98848  21039233.3154   21039232.5954
 -17592267.30949 -13708253.24947  21895352.7854   21895352.4764
 -21036704.37449 -16392230.39748  21286235.2344   21286235.6244
  16200689.53148                  12623915.91246  23255562.3884   23255563.4034
   -845019.75248   -658456.06445  25085497.8084   25085500.3004
   -773615.11748   -602815.92044  25008698.4574   25008699.1884
  -1024569.63749   -798365.75048  20387743.0924   20387743.5804
 -17347585.020 9 -13517592.760 9  20847224.360    20847223.163
 95  2  9  4  1  0.0000000  0  8G 4G 5G 9G 7G16G20G24G12
 -17080134.55749 -13309184.51348  21048762.6854   21048762.1444
 -17667294.30049 -13766715.84047  21881075.4024   21881075.4224
 -21017939.54849 -16377608.45948  21289805.9594   21289806.4184
  16265462.02948                  12674387.97946  23267888.4974   23267888.9084
   -931826.14748   -726097.41745  25068979.0404   25068979.8774
   -871971.59548   -679457.23545  24989982.4634   24989982.4554
  -1056254.48049   -823055.22548  20381713.6214   20381714.1504
 -17314164.388 9 -13491550.718 9  20853584.076    20853582.919
 95  2  9  4  1 30.0000000  0  8G 4G 5G 9G 7G16G20G24G12
 -17029385.00949 -13269639.40948  21058420.0304   21058419.6394
 -17741930.94049 -13824874.26647  21866872.6254   21866872.4964
 -20998379.89349 -16362367.17048  21293528.1494   21293528.3854
  16330451.63748                  12725029.25146  23280255.6764   23280255.8164
  -1018586.34948   -793702.80345  25052469.3944   25052473.3864
   -970169.83548   -755975.32745  24971296.0844   24971299.8164
  -1087166.03449   -847142.13848  20375831.4124   20375831.9594
 -17279953.971 9 -13464893.260 9  20860094.099    20860092.958
 95  2  9  4  2  0.0000000  0  7G 4G 5G 9G 7G16G24G12
 -16978015.35749 -13229611.10848  21068195.2904   21068194.7864
 -17816227.31149 -13882767.52947  21852734.6174   21852734.2854
 -20978082.48849 -16346551.01048  21297390.6354   21297390.8994
  16395595.20948                  12775790.46046  23292652.2284   23292653.4714
  -1105337.16948   -861300.87545  25035961.2584   25035963.8034
  -1117348.52949   -870660.94748  20370087.7884   20370088.3904
 -17245002.201 9 -13437658.124 9  20866745.221    20866744.038
 95  2  9  4  2 30.0000000  0  8G 4G 5G 9G 7G16G20G24G12
 -16926097.67049 -13189155.76848  21078074.8914   21078074.5104
 -17890260.14149 -13940455.44347  21838646.5424   21838646.3374
 -20957132.99849 -16330226.73048  21301377.2724   21301377.4574
  16460812.66648                  12826609.24746  23305062.1694   23305063.5344
  -1192135.75648   -928936.13445  25019443.5284   25019446.6174
        -0.68858        -0.11255  24933971.2024   24933971.9754
  -1146896.77249   -893685.53648  20364464.9434   20364465.4854
 -17209389.700 9 -13409908.139 9  20873522.058    20873520.880
 95  2  9  4  3  0.0000000  0  7G 4G 5G 9G 7G16G24G12
 -16873564.33749 -13148220.70248  21088071.6074   21088071.1184
 -17963947.64649 -13997874.28247  21824624.1784   21824624.3354
 -20935477.45249 -16313352.28648  21305498.1424   21305498.2604
  16526180.21248                  12877544.97846  23317501.6334   23317501.6394
  -1278907.04648   -996550.14045  25002932.1344   25002934.9424
  -1175753.21349   -916171.05648  20358973.7094   20358974.3014
 -17173057.024 9 -13381596.980 9  20880435.921    20880434.742
 95  2  9  4  3 30.0000000  0  8G 4G 5G 9G 7G16G20G24G12
 -16820415.39849 -13106805.94448  21098185.5804   21098185.0534
 -18037278.32249 -14055015.06847  21810669.8444   21810669.9094
 -20913108.02949 -16295921.57748  21309754.7664   21309754.9024
  16591721.28148                  12928615.93546  23329973.2304   23329974.3684
  -1365657.69748  -1064148.12045  24986423.5924   24986426.0144
        -1.16058        -0.73855  24896707.2754   24896705.7474
  -1203921.02549   -938119.97948  20353613.5174   20353614.1414
 -17136000.434 9 -13352721.731 9  20887487.578    20887486.407
 95  2  9  4  4  0.0000000  0  8G 4G 5G 9G 7G16G20G24G12
 -16766829.77549 -13065050.90948  21108382.6844   21108382.1274
 -18110431.33349 -14112017.40647  21796749.2674   21796749.2194
 -20890205.33649 -16278075.33048  21314113.2654   21314113.1884
  16657289.91748                  12979708.37846  23342450.6784   23342451.1804
  -1452559.02048  -1131863.43245  24969887.3334   24969888.8944
    -97892.25848    -76279.47645  24878078.8644   24878080.8814
  -1231588.96849   -959679.39648  20348348.4894   20348349.0354
 -17098393.179 9 -13323417.388 9  20894644.024    20894642.831
 95  2  9  4  4 30.0000000  0  8G 4G 5G 9G 7G16G20G24G12
 -16712780.74849 -13022934.78148  21118667.6854   21118667.0394
 -18183396.61849 -14168873.47447  21782864.3594   21782864.3934
 -20866755.34749 -16259802.62148  21318575.5654   21318575.6044
  16722908.64948                  13030839.85146  23354937.9254   23354938.6444
  -1539609.68848  -1199695.17045  24953322.4804   24953325.5094
   -195798.74248   -152570.27545  24859448.2944   24859450.3494
  -1258737.92949   -980834.41448  20343182.2914   20343182.6784
 -17060219.399 9 -13293671.595 9  20901908.275    20901907.098
 95  2  9  4  5  0.0000000  0  8G 4G 5G 9G 7G16G20G24G12
 -16658278.51849 -12980465.51048  21129039.2514   21129038.7114
 -18256181.21649 -14225588.75147  21769013.8334   21769013.6884
 -20842766.04649 -16241109.66648  21323140.4744   21323140.7084
  16788576.66348                  13082009.70746  23367434.4424   23367435.2534
  -1626832.76148  -1267661.18245  24936723.9864   24936721.4284
   -293713.65048   -228867.60945  24840815.2164   24840817.6874
  -1285350.62249  -1001571.56448  20338118.0814   20338118.4654
 -17021483.916 9 -13263488.104 9  20909279.388    20909278.210
 95  2  9  4  5 30.0000000  0  8G 4G 5G 9G 7G16G20G24G12
 -16603306.14749 -12937629.89548  21139500.0094   21139499.3874
 -18328788.93849 -14282166.19447  21755197.0944   21755196.6564
 -20818239.02549 -16221997.71248  21327807.6534   21327807.8554
  16854301.12248                  13133223.54946  23379941.1974   23379941.4344
  -1714225.36448  -1335759.34045  24920093.7704   24920098.3664
   -391634.49548   -305169.51645  24822182.1784   24822182.2524
  -1311415.57049  -1021881.89848  20333157.9694   20333158.4184
 -16982178.413 9 -13232860.442 9  20916758.986    20916757.802
 95  2  9  4  6  0.0000000  0  8G 4G 5G 9G 7G16G20G24G12
 -16547878.96049 -12894439.87648  21150047.3984   21150047.1404
 -18401253.19149 -14338631.83747  21741407.6594   21741407.5524
 -20793207.43249 -16202492.58848  21332571.1534   21332571.2304
  16920032.67848                  13184442.95446  23392449.2704   23392448.5534
  -1801821.28548  -1404015.91845  24903425.0634   24903424.4824
   -489607.52548   -381512.19545  24803538.4664   24803541.9674
  -1336965.38949  -1041790.83548  20328295.9084   20328296.4564
 -16942337.016 9 -13201815.206 9  20924340.562    20924339.366
 95  2  9  4  6 30.0000000  0  8G 4G 5G 9G 7G16G20G24G12
 -16491965.35049 -12850870.83048  21160687.5774   21160687.2364
 -18473540.08249 -14394959.28247  21727651.8174   21727651.6314
 -20767624.49449 -16182557.84548  21337439.3634   21337439.4414
  16985789.34348                  13235681.90046  23404962.5944   23404963.0944
  -1889584.66948  -1472402.97645  24886723.8924   24886725.4754
   -587601.74348   -457871.31545  24784890.8044   24784894.9484
  -1361963.47349  -1061269.85148  20323538.9124   20323539.3464
 -16901929.296 9 -13170328.677 9  20932029.942    20932028.710
 95  2  9  4  7  0.0000000  0  8G 4G 5G 9G 7G16G20G24G12
 -16435602.75649 -12806951.92448  21171412.8704   21171412.6694
 -18545661.09049 -14451157.48247  21713927.8494   21713927.6854
 -20741512.12549 -16162210.55648  21342408.3504   21342408.5454
  17051550.16448                  13286924.08246  23417476.2544   23417476.2634
  -1977513.99448  -1540919.37445  24869991.5964   24869994.1104
   -685638.16548   -534263.34345  24766234.8624   24766235.1974
  -1386437.27449  -1080340.33648  20318881.6954   20318882.1424
 -16860979.352 9 -13138419.632 9  20939822.427    20939821.225
 95  2  9  4  7 30.0000000  0  8G 4G 5G 9G 7G16G20G24G12
 -16378779.44749 -12762674.01948  21182226.0754   21182225.7814
 -18617591.21449 -14507206.92247  21700240.0244   21700239.9124
 -20714841.75249 -16141428.45848  21347483.7994   21347483.9194
  17117330.81248                  13338181.71046  23429993.7794   23429993.7804
  -2065566.52848  -1609531.76245  24853235.8394   24853242.0684
   -783697.60048   -610673.31945  24747575.3574   24747576.5164
  -1410371.56249  -1098990.42048  20314327.2854   20314327.7784
 -16819462.922 9 -13106069.171 9  20947722.721    20947721.551
 95  2  9  4  8  0.0000000  0  7G 4G 5G 9G16G20G24G12
 -16321528.79749 -12718063.12148  21193120.4154   21193120.0454
 -18689326.99349 -14563104.92347  21686588.9754   21686588.8204
 -20687612.12249 -16120210.57448  21352665.4844   21352665.5654
  -2153732.85448  -1678232.71945  24836458.5064   24836460.9674
   -881785.26648   -687105.25545  24728909.7254   24728909.2034
  -1433766.69149  -1117220.38148  20309875.2954   20309875.6384
 -16777389.716 9 -13073284.857 9  20955728.997    20955727.806
 95  2  9  4  8 30.0000000  0  7G 4G 5G 9G16G20G24G12
 -16263872.90949 -12673136.45648  21204091.9594   21204091.5294
 -18760863.02149 -14618847.28047  21672976.1234   21672976.1724
 -20659828.57349 -16098561.06348  21357952.6804   21357952.5884
  -2241991.53448  -1747005.68345  24819663.1684   24819666.2324
   -979905.62648   -763562.64545  24710238.2674   24710237.6324
  -1456624.61149  -1135031.73648  20305525.6574   20305526.1934
 -16734763.718 9 -13040069.790 9  20963840.437    20963839.263
 95  2  9  4  9  0.0000000  0  7G 4G 5G 9G16G20G24G12
 -16205826.43049 -12627905.43248  21215137.7614   21215137.4924
 -18832221.52349 -14674451.30747  21659397.2114   21659396.9314
 -20631525.69449 -16076506.88748  21363338.3814   21363338.3674
  -2330365.21448  -1815868.28645  24802846.0464   24802846.2694
  -1078089.13848   -840069.28645  24691554.3304   24691556.9014
  -1478966.21249  -1152440.76448  20301274.1164   20301274.5604
 -16691607.012 9 -13006441.181 9  20972052.887    20972051.698
 95  2  9  4  9 30.0000000  0  7G 4G 5G 9G16G20G24G12
 -16147379.82249 -12582362.61948  21226259.8184   21226259.4794
 -18903402.29749 -14729916.85147  21645852.0504   21645851.7304
 -20602686.04049 -16054034.44048  21368826.4094   21368826.4184
  -2418862.66148  -1884827.28845  24786005.3624   24786006.2914
  -1176331.27848   -916621.67845  24672859.5134   24672860.1814
  -1500788.00349  -1169444.74648  20297121.5654   20297122.0564
 -16647910.289 9 -12972391.794 9  20980368.107    20980366.900
 95  2  9  4 10  0.0000000  0  7G12G 4G 5G 9G16G20G24
 -16603672.581 9 -12937920.886 9  20988786.308    20988785.085
 -16088511.54449 -12536491.23348  21237462.0964   21237461.6664
 -18974407.06649 -14785245.24947  21632340.3104   21632340.0934
 -20573304.53549 -16031139.77048  21374417.6344   21374417.7334
  -2507480.75948  -1953880.32445  24769142.3574   24769141.9084
  -1274625.19848   -993214.26345  24654154.1954   24654152.6984
  -1522093.74649  -1186046.61648  20293067.2264   20293067.6424
 95  2  9  4 10 30.0000000  0  7G12G 4G 5G 9G16G20G24
 -16558900.099 9 -12903033.263 9  20997306.267    20997305.027
 -16029213.60949 -12490285.05048  21248746.1444   21248745.9204
 -19045246.71149 -14840444.98447  21618859.9454   21618860.0824
 -20543389.81249 -16007829.61248  21380110.1524   21380110.1974
  -2596233.30848  -2023038.11345  24752252.8974   24752254.9084
  -1372967.24648  -1069844.41545  24635440.9444   24635443.2434
  -1542894.11649  -1202254.69348  20289109.0984   20289109.6284
 95  2  9  4 11  0.0000000  0  7G12G 4G 5G 9G16G20G24
 -16513586.351 9 -12867723.848 9  21005929.145    21005927.951
 -15969476.90149 -12443736.96548  21260113.6894   21260113.2364
 -19115911.21549 -14895508.23547  21605412.6454   21605412.5344
 -20512944.01449 -15984105.63548  21385903.8214   21385903.9474
  -2685130.68648  -2092308.76545  24735336.2344   24735336.1984
  -1471344.29648  -1146501.84145  24616720.5954   24616720.9274
  -1563169.12349  -1218053.39648  20285250.7964   20285251.3384
 95  2  9  4 11 30.0000000  0  7G12G 4G 5G 9G16G20G24
 -16467719.731 9 -12831983.629 9  21014657.278    21014656.122
 -15909301.73849 -12396847.22648  21271564.4234   21271564.2904
 -19186375.66549 -14950415.59647  21592003.7134   21592003.9324
 -20481953.67749 -15959957.33748  21391800.9834   21391801.0764
  -2774154.48448  -2161677.94945  24718395.3174   24718396.0074
  -1569736.98848  -1223171.43845  24597996.1494   24597993.9044
  -1582903.01149  -1233430.44248  20281495.6064   20281496.1444
 95  2  9  4 12  0.0000000  0  7G12G 4G 5G 9G16G20G24
 -16421315.628 9 -12795824.600 9  21023487.708    21023486.528
 -15848696.76649 -12349622.57348  21283097.3754   21283097.0774
 -19256639.39449 -15005166.54747  21578632.9724   21578632.8824
 -20450442.16949 -15935402.92948  21397797.5014   21397797.6154
  -2863300.47048  -2231142.35845  24701431.4724   24701433.9024
  -1668148.68448  -1299855.87145  24579269.3724   24579271.1174
  -1602097.00449  -1248386.78548  20277843.0604   20277843.4774
 95  2  9  4 12 30.0000000  0  8G12G 4G 5G 9G16G 6G20G24
 -16374390.336 9 -12759259.468 9  21032417.314    21032416.114
 -15787690.00149 -12302084.83348  21294706.5254   21294706.0204
 -19326703.35949 -15059761.84347  21565300.2804   21565300.2654
 -20418433.15349 -15910460.85248  21403888.7454   21403888.7094
  -2952586.85948  -2300716.17445  24684441.2394   24684444.7314
        -1.10457        -0.87854  25282758.8674   25282761.4544
  -1766591.42748  -1376564.48145  24560536.8174   24560535.1274
  -1620754.69849  -1262925.22948  20274292.7734   20274293.2124
 95  2  9  4 13  0.0000000  0  8G12G 4G 5G 9G 6G16G24G20
 -16326937.527 9 -12722283.288 9  21041447.284    21041446.098
 -15726275.87649 -12254229.67548  21306393.2694   21306392.6284
 -19396548.28049 -15114186.45547  21552009.1794   21552009.1444
 -20385918.25549 -15885124.58148  21410075.9944   21410075.8594
    -68586.62548    -53444.14545  25269707.1264   25269706.8864
  -3041996.92448  -2370386.35145  24667427.3394   24667430.1934
  -1638868.64749  -1277039.97448  20270845.6354   20270846.1214
  -1865060.95648  -1453293.95145  24541798.1204   24541796.0964
 95  2  9  4 13 30.0000000  0  8G12G 4G 5G 9G16G 6G20G24
 -16278964.343 9 -12684901.609 9  21050576.307    21050575.092
 -15664461.46249 -12206062.59548  21318156.2164   21318155.7594
 -19466173.84749 -15168440.14747  21538760.0654   21538760.1514
 -20352896.01449 -15859392.97447  21416359.9314   21416359.8874
  -3131529.14148  -2440151.70145  24650389.8394   24650391.6594
   -137125.37648   -106850.96445  25256664.8274   25256667.5804
  -1963559.53648  -1530046.05045  24523054.1014   24523056.9274
  -1656454.66049  -1290743.34248  20267499.0584   20267499.5054
 95  2  9  4 14  0.0000000  0  8G12G 4G 5G 9G16G 6G20G24
 -16230463.663 9 -12647108.879 9  21059805.685    21059804.460
 -15602240.88349 -12157579.02948  21329996.4804   21329996.1044
 -19535575.99249 -15222519.75247  21525553.1664   21525553.1864
 -20319356.21249 -15833258.07347  21422742.2794   21422742.2774
  -3221180.27548  -2510009.69145  24633329.4464   24633332.0064
   -205602.26448   -160209.56445  25243634.2684   25243635.3184
  -2062068.32648  -1606806.17245  24504308.9744   24504309.7104
  -1673510.40549  -1304033.51648  20264253.4974   20264254.0524
 95  2  9  4 14 30.0000000  0  8G12G 4G 5G 9G16G 6G20G24
 -16181434.980 9 -12608904.704 9  21069135.532    21069134.320
 -15539626.95149 -12108788.95247  21341911.4834   21341911.0334
 -19604750.02449 -15276421.59747  21512389.7834   21512389.6364
 -20285303.27449 -15806723.33347  21429222.4394   21429222.3194
  -3310959.35148  -2579967.42545  24616244.6524   24616247.3114
   -274016.60948   -213519.45045  25230615.5084   25230615.4054
  -2160584.49248  -1683572.03245  24485562.0604   24485562.7434
  -1690044.45549  -1316917.17448  20261107.1584   20261107.4554
 95  2  9  4 15  0.0000000  0  8G12G 4G 5G 9G16G 6G20G24
 -16131874.561 9 -12570286.197 9  21078566.581    21078565.365
 -15476623.09149 -12059695.03347  21353900.6344   21353900.2514
 -19673699.53149 -15330148.48448  21499269.3264   21499269.2164
 -20250732.65549 -15779785.20047  21435801.0794   21435800.8984
  -3400860.99648  -2650020.64145  24599137.3394   24599136.4974
   -342354.58648   -266769.79145  25217611.2394   25217614.1124
  -2259107.83648  -1760343.44745  24466813.7794   24466814.8644
  -1706057.49949  -1329394.85448  20258060.0164   20258060.4494
 95  2  9  4 15 30.0000000  0  8G12G 4G 5G 9G16G 6G20G24
 -16081778.236 9 -12531250.109 9  21088099.627    21088098.380
 -15413232.36949 -12010299.66547  21365963.7174   21365962.9554
 -19742430.66449 -15383705.20448  21486190.2204   21486190.2264
 -20215639.79349 -15752440.12347  21442478.8534   21442478.9454
  -3490882.29048  -2720167.04345  24582007.3144   24582007.7474
   -410616.77948   -319961.07145  25204621.1904   25204622.9194
  -2357629.62548  -1837113.62645  24448065.5474   24448066.3624
  -1721549.54249  -1341466.56248  20255111.9844   20255112.4324
 95  2  9  4 16  0.0000000  0  8G12G 4G 5G 9G16G 6G20G24
 -16031141.716 9 -12491793.100 9  21097735.444    21097734.239
 -15349447.27449 -11960596.99547  21378101.4654   21378100.7794
 -19810948.77649 -15437095.93248  21473151.5864   21473151.4924
 -20180020.94349 -15724685.18547  21449257.0754   21449257.2544
  -3581010.06648  -2790396.40045  24564856.0554   24564858.4494
   -478806.01248   -373095.49645  25191645.3734   25191647.7304
  -2456147.72148  -1913880.98545  24429318.0074   24429317.6634
  -1736517.92249  -1353130.22248  20252263.5334   20252264.0734
 95  2  9  4 16 30.0000000  0  8G12G 4G 5G 9G16G 6G20G24
 -15979992.281 9 -12451936.437 9  21107468.939    21107467.680
 -15285283.60649 -11910599.33347  21390311.4354   21390311.0464
 -19879273.08549 -15490335.64848  21460149.7294   21460149.5594
 -20143919.00749 -15696553.81947  21456126.9664   21456126.9854
  -3671257.99048  -2860719.41745  24547681.7824   24547682.9744
   -546949.30348   -426194.17944  25178678.1114   25178671.4814
  -2554709.43948  -1990682.32445  24410562.1334   24410563.6844
  -1750987.23049  -1364404.99448  20249509.9754   20249510.4844
 95  2  9  4 17  0.0000000  0  8G12G 4G 5G 9G16G 6G20G24
 -15928296.043 9 -12411653.681 9  21117306.404    21117305.175
 -15220696.93449 -11860272.06047  21402601.8614   21402601.5014
 -19947366.94149 -15543395.79048  21447192.1974   21447192.0924
 -20107309.28149 -15668026.77147  21463093.5134   21463093.9984
  -3761576.84548  -2931097.69845  24530495.4494   24530496.2094
   -615018.24548   -479234.78946  25165724.9054   25165725.3074
  -2653294.52348  -2067501.87445  24391802.5064   24391804.5794
  -1764923.16549  -1375264.15348  20246858.0854   20246858.4304
 95  2  9  4 17 30.0000000  0  8G12G 4G 5G 9G16G 6G20G24
 -15876067.486 9 -12370956.110 9  21127245.149    21127243.936
 -15155698.46249 -11809623.90247  21414970.7434   21414970.2524
 -20015236.72749 -15596281.33048  21434276.8454   21434276.7124
 -20070217.53749 -15639124.12347  21470151.8684   21470151.9844
  -3851972.71348  -3001536.02645  24513293.5894   24513295.1674
   -683032.59448   -532232.97945  25152781.9044   25152784.9944
  -2751910.81748  -2144345.72545  24373036.0684   24373035.3254
  -1778348.65949  -1385725.56448  20244303.3074   20244303.7304
 95  2  9  4 18  0.0000000  0  8G12G 4G 5G 9G16G 6G20G24
 -15823312.027 9 -12329847.962 9  21137284.196    21137282.949
 -15090301.14449 -11758664.95447  21427415.4904   21427415.0574
 -20082882.06149 -15648991.97648  21421404.6704   21421404.4734
 -20032666.52249 -15609863.59647  21477297.4054   21477297.5474
  -3942445.62448  -3072034.37945  24496077.0114   24496078.2684
   -750996.85748   -585192.15645  25139848.8124   25139850.3094
  -2850566.45848  -2221220.25445  24354262.8764   24354262.9224
  -1791254.76949  -1395782.26048  20241847.3134   20241847.7624
 95  2  9  4 18 30.0000000  0  8G12G 4G 5G 9G16G 6G20G24
 -15770024.602 9 -12288325.297 9  21147424.442    21147423.192
 -15024516.52849 -11707404.21647  21439933.7204   21439933.2944
 -20150292.03749 -15701519.23248  21408576.7674   21408576.6834
 -19994658.64849 -15580247.07547  21484530.0664   21484530.2644
  -4032985.64348  -3142585.04645  24478847.6054   24478849.4464
   -818904.56148   -638107.23245  25126926.2394   25126927.0564
  -2949251.19348  -2298117.46045  24335483.5424   24335483.5194
  -1803622.32049  -1405419.30248  20239493.9254   20239494.3044
 95  2  9  4 19  0.0000000  0  8G12G 4G 5G 9G16G 6G20G24
 -15716212.995 9 -12246394.175 9  21157664.444    21157663.220
 -14958368.83949 -11655860.56647  21452521.3394   21452520.7944
 -20217475.88849 -15753870.28748  21395792.1204   21395792.0354
 -19956170.93149 -15550256.65347  21491854.2924   21491854.5374
  -4123595.64348  -3213190.21345  24461605.2084   24461605.8234
   -886764.52948   -690985.04645  25114012.8704   25114015.2434
  -3047948.03948  -2375024.07245  24316702.2364   24316700.9214
  -1815442.04849  -1414629.47148  20237244.7304   20237245.2194
 95  2  9  4 19 30.0000000  0  8G12G 4G 5G 9G16G 6G20G24
 -15661883.818 9 -12204059.753 9  21168002.974    21168001.734
 -14891869.12449 -11604042.60347  21465175.7274   21465175.3294
 -20284451.50749 -15806059.07948  21383046.9944   21383046.9404
 -19917180.29149 -15519874.34347  21499274.0324   21499274.2474
  -4214281.22948  -3283854.29345  24444348.3984   24444349.7754
   -954574.80048   -743824.18245  25101109.1324   25101107.9714
  -3146643.92148  -2451929.95045  24297921.0754   24297920.1034
  -1826712.09349  -1423411.31348  20235100.0764   20235100.6084
 95  2  9  4 20  0.0000000  0  8G12G 4G 5G 9G16G 6G20G24
 -15607044.350 9 -12161327.716 9  21178438.573    21178437.370
 -14825016.24649 -11551949.45347  21477897.4674   21477896.7174
 -20351209.70649 -15858078.45348  21370343.1914   21370342.8914
 -19877666.22049 -15489084.17047  21506793.4034   21506793.6774
  -4305048.20448  -3354581.80345  24427076.5634   24427076.8434
  -1022330.68148   -796620.97645  25088215.2214   25088214.5844
  -3245350.17448  -2528843.95345  24279138.0564   24279139.5174
  -1837430.00849  -1431762.92448  20233060.5894   20233061.1384
 95  2  9  4 20 30.0000000  0  8G12G 4G 5G 9G16G 6G20G24
 -15551709.602 9 -12118209.752 9  21188968.422    21188967.225
 -14757814.94449 -11499584.80047  21490685.4174   21490684.7014
 -20417750.48549 -15909928.41148  21357681.0134   21357680.7514
 -19837626.97049 -15457884.76747  21514412.5364   21514412.5684
  -4395902.89248  -3425377.65745  24409787.2034   24409787.9604
  -1090036.78648   -849378.97345  25075331.5484   25075332.7234
  -3344068.30148  -2605767.11945  24260352.5414   24260353.6074
  -1847617.29949  -1439701.06448  20231121.9534   20231122.1594
 95  2  9  4 21  0.0000000  0  8G12G 4G 5G 9G16G 6G20G24
 -15495874.540 9 -12074701.924 9  21199593.487    21199592.296
 -14690242.85849 -11446931.22447  21503544.1064   21503543.6034
 -20484056.74949 -15961595.62148  21345063.3554   21345063.1304
 -19797047.98349 -15426264.79247  21522134.3074   21522134.3824
  -4486846.81348  -3496243.01345  24392480.8634   24392482.0974
  -1157681.31848   -902088.95745  25062458.9834   25062460.8084
  -3442783.57148  -2682688.13145  24241567.6684   24241565.3124
  -1857284.97649  -1447234.31148  20229282.2514   20229282.6684
 95  2  9  4 21 30.0000000  0  8G12G 4G 5G 9G16G 6G20G24
 -15439535.357 9 -12030801.276 9  21210314.465    21210313.288
 -14622290.47349 -11393981.31447  21516475.0564   21516474.3944
 -20550116.18049 -16013070.50048  21332492.6754   21332492.4474
 -19755945.38149 -15394236.80447  21529955.9474   21529955.9324
  -4577875.64948  -3567174.54745  24375158.6344   24375160.9794
  -1225258.12748   -954746.19645  25049599.6344   25049601.3674
  -3541489.81348  -2759602.11445  24222784.2154   24222785.2574
  -1866444.78949  -1454371.81948  20227539.1434   20227539.5544
 95  2  9  4 22  0.0000000  0  8G12G 4G 5G 9G16G 6G20G24
 -15382695.560 9 -11986510.536 9  21221130.717    21221129.566
 -14553959.80849 -11340736.63847  21529477.7424   21529477.3284
 -20615918.58949 -16064345.10048  21319970.8844   21319970.6684
 -19714354.09649 -15361828.00747  21537870.3814   21537870.5234
  -4668991.61748  -3638174.01845  24357819.8804   24357820.9134
  -1292776.92648  -1007358.25145  25036751.5404   25036752.3554
  -3640183.37848  -2836506.18945  24204003.6534   24204006.1244
  -1875099.53649  -1461115.76948  20225892.1664   20225892.5644
 95  2  9  4 22 30.0000000  0  8G12G 4G 5G 9G16G20G 6G24
 -15325335.913 9 -11941814.704 9  21232045.906    21232044.720
 -14485241.93249 -11287190.24047  21542554.3834   21542554.0384
 -20681456.16349 -16115413.33448  21307499.5264   21307499.3784
 -19672275.68849 -15329039.62247  21545877.6744   21545878.0344
  -4760160.61648  -3709214.79045  24340470.6364   24340472.5704
  -3738833.44748  -2913376.37645  24185230.8514   24185229.7564
  -1360225.58148  -1059915.60745  25023916.3964   25023916.1834
  -1883228.56249  -1467450.06848  20224345.2744   20224345.7634
 95  2  9  4 23  0.0000000  0  8G12G 4G 5G 9G16G20G 6G24
 -15267497.858 9 -11896746.085 9  21243052.142    21243050.940
 -14416179.57349 -11233375.41647  21555696.4504   21555696.1374
 -20746774.40349 -16166310.65248  21295069.7654   21295069.5764
 -19629749.62949 -15295902.41347  21553970.1724   21553970.5244
  -4851424.70648  -3780329.66945  24323104.3074   24323105.8074
  -3837492.23548  -2990253.37845  24166456.8744   24166459.4804
  -1427657.88348  -1112460.28745  25011084.4594   25011083.3654
  -1890882.27149  -1473413.98748  20222888.7054   20222889.1784
 95  2  9  4 23 30.0000000  0  8G12G 4G 5G 9G16G20G 6G24
 -15209159.830 9 -11851287.878 9  21254153.511    21254152.293
 -14346755.18049 -11179278.48647  21568907.4484   21568906.9024
 -20811852.63849 -16217020.96048  21282685.7584   21282685.6594
 -19586764.16149 -15262407.23447  21562150.0104   21562150.2094
  -4942748.01648  -3851490.65445  24305726.0184   24305729.2814
  -3936143.26348  -3067124.30045  24147684.1694   24147682.6034
  -1495055.27348  -1164977.72745  24998259.0284   24998260.2844
  -1898033.29849  -1478986.20748  20221528.0614   20221528.5354
 95  2  9  4 24  0.0000000  0  8G12G 4G 5G 9G16G20G 6G24
 -15150302.933 9 -11805425.370 9  21265353.643    21265352.357
 -14276953.66549 -11124887.69847  21582190.4834   21582189.9604
 -20876674.30149 -16267531.34148  21270350.7394   21270350.5864
 -19543304.08549 -15228542.24747  21570420.2334   21570420.5494
  -5034102.43948  -3922675.91645  24288341.7574   24288342.0814
  -4034778.48448  -3143982.92946  24128914.2774   24128913.0344
  -1562394.43948  -1217449.79145  24985445.1174   24985443.7424
  -1904657.44249  -1484147.86748  20220267.6364   20220268.1754
 95  2  9  4 24 30.0000000  0  8G12G 4G 5G 9G16G20G 6G24
 -15090938.409 9 -11759167.312 9  21276650.331    21276649.087
 -14206800.09049 -11070222.57547  21595539.9574   21595539.5004
 -20941239.97549 -16317842.24648  21258064.3704   21258064.2454
 -19499360.50449 -15194300.49847  21578782.4224   21578782.5774
  -5125490.55048  -3993887.44046  24270951.2624   24270953.3594
  -4133417.39848  -3220844.40845  24110143.9574   24110145.1504
  -1629689.47348  -1269887.50245  24972639.1114   24972641.5624
  -1910765.70249  -1488907.54648  20219105.1794   20219105.5814
 95  2  9  4 25  0.0000000  0  8G12G 4G 5G 9G16G20G 6G24
 -15031090.550 9 -11712532.634 9  21288039.022    21288037.749
 -14136327.82149 -11015309.12047  21608950.6404   21608950.0184
 -21005569.50649 -16367969.14748  21245822.7624   21245822.6984
 -19454955.54749 -15159699.24447  21587232.3274   21587232.5324
  -5216953.13248  -4065157.00346  24253546.3454   24253548.0914
  -4232071.91048  -3297718.06745  24091371.0504   24091370.7664
  -1696963.35548  -1322308.68345  24959837.1144   24959838.4164
  -1916379.65749  -1493282.04948  20218036.9024   20218037.3644
 95  2  9  4 25 30.0000000  0  8G12G 4G 5G 9G16G20G 6G24
 -14970739.612 9 -11665505.939 9  21299523.438    21299522.173
 -14065528.39249 -10960140.73047  21622423.3424   21622422.7044
 -21069642.57249 -16417896.20548  21233629.9754   21233629.8334
 -19410087.51049 -15124737.15247  21595770.4364   21595770.4264
  -5308475.39648  -4136473.02145  24236130.6544   24236133.8494
  -4330709.72348  -3374578.70345  24072601.3424   24072602.7664
  -1764180.55548  -1374685.72945  24947046.1304   24947048.7244
  -1921461.31349  -1497241.78148  20217069.8124   20217070.2984
 95  2  9  4 26  0.0000000  0  8G12G 4G 5G 9G16G20G 6G24
 -14909903.187 9 -11618100.944 9  21311100.233    21311098.947
 -13994427.67549 -10904737.57547  21635953.1524   21635952.5694
 -21133478.34549 -16467638.35648  21221482.4734   21221482.5024
 -19364768.63049 -15089423.76347  21604394.3544   21604394.6664
  -5400080.90148  -4207853.93045  24218698.3164   24218699.2244
  -4429339.30148  -3451432.92445  24053832.4524   24053834.1244
  -1831358.48448  -1427032.18045  24934262.3164   24934264.7684
  -1926022.23249  -1500795.74348  20216201.8514   20216202.3034
 95  2  9  4 26 30.0000000  0  8G12G 4G 5G 9G16G20G 6G24
 -14848538.647 9 -11570284.432 9  21322777.539    21322776.242
 -13922977.38349 -10849062.02547  21649549.6424   21649548.9144
 -21197024.03049 -16517154.45948  21209390.1374   21209389.9794
 -19318946.74849 -15053718.41847  21613113.9924   21613114.0314
  -5491739.12648  -4279275.91745  24201256.2364   24201254.7234
  -4527903.14848  -3528235.93945  24035076.4264   24035076.6884
  -1898458.85148  -1479318.16445  24921493.4724   24921492.2544
  -1930023.42049  -1503913.54748  20215440.5334   20215440.9114
 95  2  9  4 27  0.0000000  0  8G12G 4G 5G 9G16G20G 6G24
 -14786655.717 9 -11522063.978 9  21334553.501    21334552.176
 -13851167.73549 -10793106.45347  21663214.6634   21663213.9604
 -21260296.26149 -16566457.48548  21197349.7834   21197349.5504
 -19272639.90949 -15017635.17147  21621925.7254   21621926.1314
  -5583458.77848  -4350745.77845  24183802.1864   24183805.7434
  -4626407.02048  -3604992.21445  24016331.4194   24016331.9764
  -1965475.41548  -1531538.84645  24908741.0104   24908744.0014
  -1933471.37049  -1506600.25648  20214784.4324   20214784.7424
 95  2  9  4 27 30.0000000  0  8G12G 4G 5G 9G16G20G 6G24
 -14724290.965 9 -11473468.081 9  21346421.149    21346419.822
 -13779019.47949 -10736887.02947  21676944.0734   21676943.7534
 -21323322.50549 -16615568.84048  21185356.3074   21185356.0014
 -19225878.93549 -14981198.05047  21630824.1264   21630824.3334
  -5675236.66748  -4422261.01345  24166337.4974   24166341.5894
  -4724892.90848  -3681734.45345  23997590.1914   23997589.5834
  -2032437.60548  -1583717.21545  24895998.3034   24895998.9964
  -1936406.20449  -1508887.13248  20214225.9804   20214226.3064
 95  2  9  4 28  0.0000000  0  8G12G 4G 5G 9G16G20G 6G24
 -14661411.560 9 -11424471.159 9  21358386.695    21358385.411
 -13706484.87549 -10680366.56147  21690746.8274   21690746.1354
 -21386058.63449 -16664454.12548  21173418.1364   21173418.0324
 -19178610.25349 -14944365.32047  21639819.0404   21639819.4384
  -5767012.93048  -4493774.96045  24148873.1144   24148875.7354
  -4823323.00748  -3758433.25145  23978859.8594   23978860.9434
  -2099327.52348  -1635839.19345  24883269.9434   24883270.1514
  -1938805.47249  -1510756.68348  20213769.3174   20213769.6234
 95  2  9  4 28 30.0000000  0  8G12G 4G 5G 9G16G20G 6G24
 -14598034.636 9 -11375086.559 9  21370446.916    21370445.635
 -13633575.53449 -10623554.08947  21704621.1114   21704620.7954
 -21448511.08549 -16713118.37848  21161533.7294   21161533.6234
 -19130858.26749 -14907155.99747  21648905.8464   21648905.9544
  -5858788.44448  -4565288.33346  24131409.0104   24131408.9374
  -4921710.02148  -3835098.47245  23960136.9934   23960137.2604
  -2166161.62648  -1687917.70145  24870551.5944   24870552.6904
  -1940692.29949  -1512226.92848  20213410.3144   20213410.6174
 95  2  9  4 29  0.0000000  0  8G12G 4G 5G 9G16G20G 6G24
 -14534213.013 9 -11325355.440 9  21382591.785    21382590.501
 -13560366.29849 -10566507.93247  21718552.4144   21718552.0094
 -21510737.84149 -16761606.76448  21149692.3834   21149692.3034
 -19082691.52449 -14869623.47647  21658071.7434   21658071.7714
  -5950598.09548  -4636828.32646  24113938.0334   24113940.2034
  -5020105.72548  -3911770.42846  23941412.9764   23941413.0144
  -2232986.76848  -1739989.23145  24857835.6444   24857836.1834
  -1942120.17549  -1513339.55048  20213138.6694   20213139.0994
 95  2  9  4 29 30.0000000  0  8G12G 4G 5G 9G16G20G 6G24
 -14469941.525 9 -11275273.774 9  21394822.243    21394821.011
 -13486864.97649 -10509234.17547  21732539.1504   21732538.6494
 -21572727.10549 -16809910.07248  21137896.1314   21137896.0994
 -19034102.63349 -14831762.01247  21667318.0174   21667318.0354
  -6042434.51448  -4708389.13545  24096462.2934   24096465.7004
  -5118502.96448  -3988443.62545  23922688.9524   23922690.3234
  -2299807.04448  -1792056.95645  24845119.7064   24845120.9674
  -1943095.06849  -1514099.19848  20212953.0634   20212953.3184
 95  2  9  4 30  0.0000000  0  8G12G 4G 5G 9G16G20G 6G24
 -14405175.112 9 -11224806.453 9  21407146.875    21407145.666
 -13413036.30749 -10451705.34447  21746588.1814   21746587.7134
 -21634433.27149 -16857992.78448  21126153.9024   21126153.8364
 -18985047.64849 -14793537.35447  21676652.9884   21676653.1644
  -6134284.08148  -4779960.21146  24078983.7014   24078984.5374
  -5216860.98648  -4065086.23946  23903972.0714   23903972.4264
  -2366578.43248  -1844086.59345  24832413.2654   24832414.3354
  -1943568.00349  -1514467.71048  20212863.0984   20212863.4334
 95  2  9  4 30 30.0000000  0  8G12G 4G 5G 9G16G20G 6G24
 -14339924.439 9 -11173961.788 9  21419563.673    21419562.433
 -13338905.39949 -10393940.99747  21760694.9784   21760694.3004
 -21695859.72149 -16905857.54148  21114464.8614   21114464.7674
 -18935548.83649 -14754966.87047  21686072.3594   21686072.5724
  -6226164.79648  -4851555.56246  24061499.7484   24061501.9204
  -5315198.06348  -4141712.50846  23885259.3784   23885259.9334
  -2433290.69548  -1896070.13945  24819718.5914   24819717.6364
  -1943542.02449  -1514447.46348  20212868.0794   20212868.4574
 95  2  9  4 31  0.0000000  0  8G12G 4G 5G 9G16G20G 6G24
 -14274180.742 9 -11122732.944 9  21432074.306    21432073.057
 -13264461.86249 -10335933.04847  21774861.1014   21774860.6604
 -21756993.94949 -16953494.59348  21102831.2984   21102831.0794
 -18885581.25949 -14716031.11247  21695580.7164   21695580.5734
  -6318055.98648  -4923159.06746  24044012.9214   24044014.4104
  -5413504.70748  -4218315.10646  23866551.7644   23866552.7934
  -2499927.32548  -1947994.76745  24807038.1394   24807039.6624
  -1942992.64049  -1514019.37048  20212972.5024   20212972.8814
 95  2  9  4 31 30.0000000  0  8G12G 4G 5G 9G16G20G 6G24
 -14207969.825 9 -11071140.037 9  21444673.854    21444672.601
 -13189706.20049 -10277681.88647  21789086.5214   21789086.0824
 -21817848.92549 -17000914.04648  21091251.0604   21091250.8274
 -18835157.72349 -14676740.07147  21705176.2284   21705176.4294
  -6409976.78848  -4994785.64746  24026521.6434   24026523.0624
  -5511804.11848  -4294912.03446  23847846.4924   23847845.3744
  -2566514.38048  -1999880.75445  24794366.9424   24794366.3654
  -1941936.50849  -1513196.40948  20213173.4744   20213173.9274
 95  2  9  4 32  0.0000000  0  8G12G 4G 5G 9G16G20G 6G24
 -14141284.585 9 -11019177.530 9  21457363.623    21457362.396
 -13114633.54549 -10219183.70947  21803372.6034   21803372.1314
 -21878411.53049 -17048105.67848  21079726.2344   21079726.3014
 -18784278.11449 -14637093.63847  21714858.2344   21714858.3774
  -6501915.28448  -5066426.02645  24009025.7954   24009026.9324
  -5610077.08248  -4371488.36346  23829145.7114   23829145.6244
  -2633033.72048  -2051713.95045  24781708.7464   24781710.0154
  -1940347.88449  -1511958.51448  20213475.6794   20213476.0634
 95  2  9  4 32 30.0000000  0  8G12G 4G 5G 9G16G20G 6G24
 -14074146.576 9 -10966862.224 9  21470139.564    21470138.358
 -13039263.96549 -10160454.17247  21817714.9194   21817714.5204
 -21938700.96949 -17095084.45448  21068253.7424   21068253.5094
 -18732970.10749 -14597113.38847  21724622.0094   21724621.8414
  -6593879.58148  -5138086.47445  23991525.7044   23991527.4584
  -5708337.97248  -4448055.30046  23810446.5924   23810447.5684
  -2699513.32148  -2103516.17845  24769057.7024   24769059.2224
  -1938241.05249  -1510316.82148  20213876.7304   20213877.1414
 95  2  9  4 33  0.0000000  0  8G 5G12G 4G 9G16G20G 6G24
 -21998701.86049 -17141838.39248  21056835.9504   21056835.8254
 -14006543.746 9 -10914184.716 9  21483003.977    21483002.766
 -12963574.98649 -10101475.74947  21832117.9454   21832117.4684
 -18681215.13449 -14556784.85247  21734470.6844   21734470.5584
  -6685864.92148  -5209763.37145  23974021.5604   23974023.4004
  -5806560.59448  -4524592.39346  23791755.3664   23791756.8004
  -2765950.64648  -2155285.54645  24756415.2194   24756417.8984
  -1935604.25449  -1508262.16548  20214378.4914   20214378.8334
 95  2  9  4 33 30.0000000  0  8G 5G12G 4G 9G16G20G 6G24
 -22058405.28649 -17188360.53548  21045474.5024   21045474.5544
 -13938478.723 9 -10861147.042 9  21495956.385    21495955.090
 -12887570.01249 -10042251.09647  21846581.2524   21846580.8484
 -18629029.59549 -14516120.80747  21744401.0914   21744401.2464
  -6777891.74448  -5281472.56845  23956509.3564   23956511.1574
  -5904744.66848  -4601099.45346  23773071.2934   23773071.2504
  -2832347.72948  -2207023.48146  24743780.5404   24743781.2674
  -1932446.39249  -1505801.48548  20214979.3894   20214979.7564
 95  2  9  4 34  0.0000000  0  8G 5G12G 4G 9G16G20G 6G24
 -22117803.63549 -17234644.95648  21034171.5164   21034171.4704
 -13869950.536 9 -10807748.457 9  21508996.844    21508995.575
 -12811260.26849  -9982788.96247  21861102.2024   21861101.6354
 -18576416.16149 -14475123.33347  21754413.0894   21754413.1554
  -6869965.29348  -5353218.16545  23938988.3464   23938988.9834
  -6002885.60048  -4677572.89846  23754396.1584   23754397.2684
  -2898703.42448  -2258729.18445  24731153.7984   24731154.6294
  -1928771.70049  -1502938.07748  20215678.7104   20215679.2074
 95  2  9  4 34 30.0000000  0  8G 5G12G 4G 9G16G20G 6G24
 -22176867.69449 -17280668.88848  21022931.9114   21022931.8714
 -13800937.993 9 -10753972.452 9  21522129.560    21522128.236
 -12734613.96949  -9923064.56947  21875687.7664   21875687.1744
 -18523353.58049 -14433775.88747  21764510.5194   21764510.6894
  -6962048.88048  -5424971.59946  23921465.8554   23921466.9614
  -6100953.92748  -4753989.77646  23735734.6604   23735734.9384
  -2965006.11548  -2310393.60745  24718536.6994   24718538.2364
  -1924574.83249  -1499667.77848  20216477.2644   20216477.7634
 95  2  9  4 35  0.0000000  0  8G 5G12G 4G 9G16G20G 6G24
 -22235599.62649 -17326434.03348  21011755.8594   21011755.7584
 -13731454.873 9 -10699829.771 9  21535351.759    21535350.454
 -12657649.57349  -9863092.31047  21890333.3694   21890333.1454
 -18469863.20749 -14392095.09247  21774689.5294   21774689.5464
  -7054137.27448  -5496728.76946  23903941.6154   23903941.3114
  -6198949.07348  -4830349.61646  23717086.8874   23717088.5454
  -3031258.94848  -2362019.16545  24705929.0914   24705929.6844
  -1919889.48849  -1496016.84848  20217368.8134   20217369.1654
 95  2  9  4 35 30.0000000  0  8G 5G12G 4G 9G16G20G 6G24
 -22294016.29049 -17371953.51848  21000639.2684   21000639.1584
 -13661507.560 9 -10645325.388 9  21548662.305    21548661.031
 -12580393.49949  -9802892.77547  21905034.9544   21905034.2124
 -18415965.74349 -14350097.07647  21784946.0414   21784945.9974
  -7146210.06648  -5568473.75846  23886420.4154   23886421.8604
  -6296876.08248  -4906656.37946  23698451.7674   23698454.0484
  -3097468.32148  -2413610.84445  24693329.4294   24693332.5514
  -1914728.39949  -1491995.21048  20218350.9414   20218351.2234
 95  2  9  4 36  0.0000000  0  8G12G 4G 9G16G20G 6G24G 5
 -13591089.092 9 -10590453.874 9  21562062.516    21562061.193
 -12502841.09649  -9742462.33247  21919792.6544   21919791.8714
 -18361652.63749 -14307775.18847  21795281.2694   21795281.4564
  -7238237.73148  -5640183.64445  23868908.5214   23868908.4324
  -6394714.63448  -4982894.21546  23679833.1804   23679834.6144
  -3163629.79948  -2465165.19145  24680739.4414   24680741.4334
  -1909089.15449  -1487600.98048  20219424.0474   20219424.4454
 -22352117.47649 -17417227.18148  20989583.1454   20989582.9764
 95  2  9  4 36 30.0000000  0  8G12G 4G 9G16G20G 6G24G 5
 -13520186.296 9 -10535204.969 9  21575554.908    21575553.564
 -12424988.67949  -9681798.10847  21934607.4514   21934607.2024
 -18306910.47849 -14265118.98647  21805698.2594   21805698.5164
  -7330190.66648  -5711835.27946  23851410.0604   23851411.6794
  -6492448.20448  -5059050.23146  23661236.0414   23661235.9944
  -3229724.02748  -2516667.16945  24668161.8084   24668164.0004
  -1902950.28449  -1482817.43148  20220592.2124   20220592.3854
 -22409896.27849 -17462249.62548  20978588.3064   20978588.0624
 95  2  9  4 37  0.0000000  0  8G12G 4G 9G16G20G 6G24G 5
 -13448820.138 9 -10479595.001 9  21589135.434    21589134.094
 -12346871.55949  -9620927.62947  21949472.7094   21949472.1134
 -18251748.57049 -14222135.70747  21816195.0764   21816195.4654
  -7422086.22148  -5783442.19846  23833922.7604   23833923.3364
  -6590102.34948  -5135144.35546  23642652.3724   23642653.1844
  -3295755.58948  -2568120.31845  24655596.3664   24655596.3164
  -1896322.35549  -1477652.80548  20221853.4794   20221853.8934
 -22467377.20249 -17507039.96148  20967649.9164   20967649.8284
 95  2  9  4 37 30.0000000  0  8G12G 4G 9G16G20G 6G24G 5
 -13377016.229 9 -10423643.921 9  21602799.270    21602797.944
 -12268508.76649  -9559865.71747  21964384.6574   21964384.3434
 -18196173.06749 -14178830.14147  21826770.9664   21826771.4724
  -7513963.45148  -5855034.84846  23816439.3154   23816439.8594
  -6687707.19448  -5211200.07746  23624079.0204   23624079.1144
  -3361747.12948  -2619542.24445  24643038.7494   24643039.6494
  -1889215.17249  -1472114.73748  20223206.0304   20223206.1914
 -22524593.14949 -17551623.81248  20956761.9264   20956761.8624
 95  2  9  4 38  0.0000000  0  8G12G 4G 9G16G20G 6G24G 5
 -13304812.546 9 -10367381.309 9  21616539.187    21616537.846
 -12189927.26849  -9498633.38547  21979338.3014   21979337.6794
 -18140209.00749 -14135221.79047  21837420.5424   21837420.6794
  -7605870.13648  -5926650.45046  23798949.9214   23798950.7344
  -6785297.12548  -5287244.17346  23605508.8174   23605509.3434
  -3427734.51448  -2670960.97545  24630482.0324   24630484.0014
  -1881662.76449  -1466229.74048  20224643.2194   20224643.5174
 -22581569.70449 -17596021.12748  20945919.8694   20945919.7024
 95  2  9  4 38 30.0000000  0  8G12G 4G 9G16G20G 6G24G 5
 -13232165.407 9 -10310773.151 9  21630363.453    21630362.127
 -12111087.03449  -9437199.44247  21994340.8754   21994340.5334
 -18083809.68949 -14091274.27347  21848152.9814   21848153.0254
  -7697761.48748  -5998254.09746  23781463.5754   23781465.8204
  -6882835.04648  -5363247.74846  23586948.0284   23586947.8874
  -3493673.16948  -2722341.70645  24617934.3324   24617937.0224
  -1873615.09849  -1459958.82648  20226174.5304   20226174.7254
 -22638259.05049 -17640194.65248  20935132.4254   20935132.1724
 95  2  9  4 39  0.0000000  0  8G12G 4G 9G16G20G 6G24G 5
 -13159075.489 9 -10253819.973 9  21644272.041    21644270.663
 -12031967.98249  -9375548.23247  22009396.7464   22009396.2314
 -18026968.11149 -14046982.14547  21858969.4974   21858969.7884
  -7789642.94448  -6069850.05246  23763979.0284   23763980.3024
  -6980313.94048  -5439205.31646  23568398.1964   23568398.3984
  -3559570.67148  -2773690.38745  24605394.4084   24605395.1074
  -1865085.95149  -1453312.73148  20227797.6074   20227798.0234
 -22694645.18149 -17684131.90348  20924402.2364   20924402.1024
 95  2  9  4 39 30.0000000  0  8G12G 4G 9G16G20G 6G24G 5
 -13085535.112 9 -10196515.793 9  21658266.346    21658264.965
 -11952561.15349  -9313672.79047  22024507.3044   22024506.8454
 -17969681.52349 -14002343.25447  21869870.7614   21869870.9854
  -7881513.65548  -6141437.59846  23746496.8714   23746498.6244
  -7077720.93048  -5515106.86846  23549862.6864   23549863.4374
  -3625435.07848  -2825013.29745  24592860.8034   24592860.5994
  -1856058.62149  -1446278.44148  20229515.3444   20229515.7354
 -22750712.72249 -17727820.89348  20913732.7134   20913732.6834
 95  2  9  4 40  0.0000000  0  8G12G 4G 9G16G20G 6G24G 5
 -13011562.781 9 -10138875.035 9  21672342.807    21672341.467
 -11872887.43149  -9251589.38047  22039668.7234   22039668.3054
 -17911988.40449 -13957387.58147  21880849.5664   21880849.9944
  -7973372.81448  -6213016.15746  23729016.7654   23729019.2234
  -7175071.86848  -5590964.73246  23531337.1024   23531337.1944
  -3691287.27248  -2876326.64545  24580329.5114   24580331.2474
  -1846541.10049  -1438862.18348  20231326.4914   20231326.8224
 -22806464.30549 -17771263.67548  20903123.8774   20903123.8594
 95  2  9  4 40 30.0000000  0  8G12G 4G 9G16G20G 6G24G 5
 -12937154.747 9 -10080894.754 9  21686502.239    21686500.809
 -11792934.43149  -9189288.34147  22054883.4224   22054882.9254
 -17853886.19949 -13912113.13147  21891905.8284   21891906.2474
  -8065208.90548  -6284576.72746  23711540.8974   23711541.9374
  -7272362.78848  -5666775.82946  23512822.7424   23512824.4104
  -3757116.22848  -2927621.92945  24567802.7084   24567803.9994
  -1836523.33949  -1431056.12548  20233232.8634   20233233.1834
 -22861878.40749 -17814443.47748  20892578.7424   20892578.5724
 95  2  9  4 41  0.0000000  0  8G12G 4G 9G16G20G 6G24G 5
 -12862318.287 9 -10022580.632 9  21700743.148    21700741.732
 -11712707.19549  -9126773.61547  22070150.1854   22070149.3494
 -17795386.21949 -13866528.74247  21903038.0444   21903038.5484
  -8157030.11748  -6356125.70146  23694068.3044   23694070.2894
  -7369596.54748  -5742542.38646  23494319.5634   23494319.0974
  -3822925.59648  -2978901.95145  24555279.0584   24555281.5034
  -1826013.95649  -1422866.98848  20235232.7374   20235232.9444
 -22916948.01849 -17857354.85348  20882099.4044   20882099.1124
 95  2  9  4 41 30.0000000  0  8G12G 4G 9G16G20G 6G24G 5
 -12787045.870 9  -9963926.805 9  21715067.021    21715065.673
 -11632211.57449  -9064049.75647  22085467.8304   22085467.3464
 -17736502.30549 -13820645.18147  21914243.2994   21914243.5584
  -8248803.52448  -6427637.44546  23676603.9974   23676605.4524
  -7466764.79848  -5818257.90046  23475829.6214   23475830.2504
  -3888694.27148  -3030150.23345  24542763.9844   24542767.0764
  -1814984.14649  -1414272.33048  20237331.6084   20237331.7874
 -22971665.31249 -17899991.70048  20871687.1794   20871687.0364
 95  2  9  4 42  0.0000000  0  8G12G 4G 9G16G20G 6G24G 5
 -12711336.522 9  -9904932.515 9  21729474.006    21729472.669
 -11551435.44149  -9001107.31847  22100839.2894   22100838.5414
 -17677226.40049 -13774456.17347  21925523.3244   21925523.4794
  -8340505.35948  -6499093.40746  23659153.8444   23659156.3084
  -7563859.86248  -5893916.38446  23457353.0734   23457352.2464
  -3954402.69948  -3081351.59245  24530259.8444   24530259.5484
  -1803441.13049  -1405277.77348  20239528.1754   20239528.4484
 -23026025.00349 -17942349.90148  20861342.7634   20861342.5714
 95  2  9  4 42 30.0000000  0  8G12G 4G 9G16G20G 6G24G 5
 -12635178.537 9  -9845588.643 9  21743966.396    21743965.044
 -11470362.06449  -8937933.26547  22116266.8394   22116266.2184
 -17617527.22049 -13727937.34447  21936883.6344   21936884.0104
  -8432119.30048  -6570480.91546  23641720.2314   23641720.5954
  -7660856.12848  -5969497.86846  23438895.1094   23438895.8264
  -4020035.25848  -3132493.80645  24517770.8594   24517772.0654
  -1791389.82149  -1395887.14348  20241821.4354   20241821.7434
 -23080023.56449 -17984426.70248  20851067.1054   20851066.9654
 95  2  9  4 43  0.0000000  0  8G12G 4G 9G16G20G 6G24G 5
 -12558574.788 9  -9785897.425 9  21758543.625    21758542.277
 -11389009.28349  -8874541.48847  22131747.8864   22131747.3574
 -17557416.99249 -13681098.21147  21948322.2614   21948322.4324
  -8523636.18048  -6641792.75246  23624305.5284   23624305.8844
  -7757744.22548  -6044995.08446  23420457.9044   23420458.5904
  -4085587.15748  -3183573.20845  24505296.6204   24505296.1204
  -1778829.33249  -1386099.74848  20244211.6254   20244211.8684
 -23133679.06849 -18026236.18148  20840857.0584   20840856.8734
 95  2  9  4 43 30.0000000  0  8G12G 4G 9G16G20G 6G24G 5
 -12481562.683 9  -9725887.995 8  21773198.541    21773197.193
 -11307411.29649  -8810958.65147  22147275.5164   22147274.5294
 -17496932.50749 -13633967.44847  21959832.2604   21959832.3494
  -8615094.66748  -6713059.07946  23606901.2084   23606901.7914
  -7854555.38248  -6120432.33446  23402035.2724   23402035.0744
  -4151089.07048  -3234613.65445  24492831.8354   24492831.6604
  -1765792.54949  -1375941.21248  20246692.4304   20246692.7104
 -23187036.62949 -18067813.50048  20830703.2304   20830702.9874
 95  2  9  4 44  0.0000000  0  8G12G 4G16G20G 9G 6G24G 5
 -12404147.871 9  -9665564.771 8  21787930.078    21787928.729
 -11225571.49649  -8747187.38047  22162848.7904   22162848.0344
  -8706528.44748  -6784306.17346  23589502.0334   23589502.6494
  -7951292.97548  -6195812.25846  23383626.4094   23383626.5474
 -17436063.37649 -13586536.95847  21971415.1554   21971415.2134
  -4216556.75148  -3285627.39345  24480373.6714   24480374.3604
  -1752302.17049  -1365429.22248  20249259.6224   20249259.9874
 -23240097.71049 -18109159.79848  20820605.9424   20820605.8574
 95  2  9  4 44 30.0000000  0  8G12G 4G16G20G 9G 6G24G 5
 -12326344.040 9  -9604938.419 8  21802735.646    21802734.296
 -11143515.57649  -8683247.71147  22178463.6334   22178463.2014
  -8797965.72848  -6855555.99546  23572101.8704   23572103.5994
  -8047970.97148  -6271145.75346  23365229.6614   23365230.9324
 -17374844.63049 -13538834.04347  21983064.5714   21983064.7414
  -4282018.86748  -3336636.83746  24467917.0974   24467918.2934
  -1738376.88849  -1354578.34348  20251909.4184   20251909.6554
 -23292862.52149 -18150275.23448  20810565.2704   20810565.1724
 95  2  9  4 45  0.0000000  0  8G12G 4G16G20G 9G 6G24G 5
 -12248105.828 9  -9543973.595 8  21817623.913    21817622.561
 -11061210.25649  -8619113.69247  22194126.1884   22194125.5504
  -8889372.17648  -6926781.77646  23554707.6914   23554710.2954
  -8144550.34748  -6346402.38146  23346850.9494   23346852.6084
 -17313251.19549 -13490839.15447  21994785.7384   21994785.6904
  -4347433.86048  -3387609.55746  24455468.7354   24455468.8914
  -1723968.46849  -1343350.99348  20254651.3644   20254651.5944
 -23345266.50849 -18191109.51348  20800593.0534   20800592.8634
 95  2  9  4 45 30.0000000  0  8G12G 4G16G20G 9G 6G24G 5
 -12169445.508 9  -9482679.858 8  21832592.476    21832591.136
 -10978657.56949  -8554786.92847  22209835.0354   22209834.5934
  -8980754.61148  -6997988.86646  23537318.1574   23537319.8514
  -8241037.24548  -6421586.94646  23328489.9834   23328490.4974
 -17251276.95349 -13442547.53647  22006578.7204   22006579.0864
  -4412830.93048  -3438568.25645  24443024.0094   24443025.3254
  -1709104.57049  -1331768.72548  20257479.8174   20257480.1084
 -23397297.39149 -18231653.06748  20790691.8784   20790691.7424
 95  2  9  4 46  0.0000000  0  8G12G 4G16G20G 6G 9G24G 5
 -12090353.975 9  -9421050.107 8  21847643.132    21847641.755
 -10895846.55049  -8490258.86647  22225593.6284   22225593.1964
  -9072076.81248  -7069149.03746  23519940.5004   23519942.0004
  -8337411.41248  -6496683.70246  23310150.5274   23310151.1954
  -4478206.77148  -3489510.49946  24430583.5204   24430584.6684
 -17188914.47849 -13393953.40347  22018446.0834   22018446.5074
  -1693783.32349  -1319830.07848  20260395.3584   20260395.6124
 -23448934.58349 -18271889.84448  20780865.6934   20780865.6014
 95  2  9  4 46 30.0000000  0  8G12G 4G16G20G 6G 9G24G 5
 -12010818.071 9  -9359074.090 8  21862778.293    21862776.996
 -10812769.42349  -8425523.44547  22241402.3984   22241402.4824
  -9163288.52148  -7140223.09046  23502583.1094   23502584.5784
  -8433642.80348  -6571669.18646  23291838.4624   23291838.8934
  -4543531.79448  -3540413.12445  24418152.6114   24418153.8614
 -17126154.07849 -13345049.20847  22030388.8404   22030389.2084
  -1677983.78649  -1307518.74248  20263401.9024   20263402.2144
 -23500162.40849 -18311807.62548  20771117.4194   20771117.1744
 95  2  9  4 47  0.0000000  0  8G12G 4G16G20G 6G 9G24G 5
 -11930878.132 9  -9296783.242 8  21877990.398    21877989.028
 -10729460.07849  -8360607.07747  22257255.7374   22257255.5674
  -9254404.37248  -7211222.44946  23485244.4734   23485244.8804
  -8529760.36048  -6646565.95546  23273547.3984   23273548.1374
  -4608834.73948  -3591298.49245  24405726.0864   24405725.8714
 -17063021.08449 -13295854.67847  22042402.7704   22042403.2034
  -1661731.27849  -1294854.43948  20266494.6594   20266495.0624
 -23551018.45949 -18351435.71548  20761439.7784   20761439.4884
 95  2  9  4 47 30.0000000  0  8G12G 4G16G20G 6G 9G24G 5
 -11850509.180 9  -9234158.099 8  21893284.086    21893282.719
 -10645884.03149  -8295482.89647  22273159.6964   22273159.6034
  -9345376.08748  -7282109.48946  23467933.0484   23467934.1714
  -8625728.92348  -6721346.64446  23255285.4054   23255287.1664
  -4674079.94148  -3642138.90545  24393309.9944   24393311.2624
 -16999487.19949 -13246347.76247  22054492.8494   22054493.2084
  -1644986.95749  -1281806.91248  20269680.8934   20269681.3134
 -23601485.04649 -18390760.31948  20751836.2994   20751836.0104
 95  2  9  4 48  0.0000000  0  8G12G 4G16G20G 6G 9G24G 5
 -11769736.468 9  -9171218.329 8  21908654.586    21908653.272
 -10562074.42749  -8230176.71547  22289108.1054   22289107.6904
  -9436219.68748  -7352896.68846  23450646.0644   23450647.2114
  -8721578.39748  -6796034.54846  23237046.4124   23237046.0304
  -4739275.54848  -3692940.68345  24380903.8964   24380906.2304
 -16935596.08349 -13196562.49447  22066650.9714   22066651.2644
  -1627754.63849  -1268379.12948  20272960.2704   20272960.5964
 -23651607.42049 -18429816.71248  20742298.3744   20742298.1974
 95  2  9  4 48 30.0000000  0  8G12G 4G16G 6G20G 9G24G 5
 -11688603.524 9  -9107997.863 8  21924093.660    21924092.416
 -10478077.84949  -8164724.84247  22305092.3054   22305092.6024
  -9526996.88248  -7423632.14346  23433371.4704   23433373.6014
  -4804462.00948  -3743735.34245  24368498.9404   24368497.9434
  -8817361.31148  -6870670.56846  23218818.8754   23218818.4264
 -16871392.12549 -13146533.45047  22078868.7684   22078868.7254
  -1610065.56549  -1254595.43148  20276326.3114   20276326.4644
 -23701425.93249 -18468636.33348  20732818.2024   20732818.0784
 95  2  9  4 49  0.0000000  0  8G12G 4G16G20G 6G 9G24G 5
 -11607086.213 9  -9044477.894 8  21939605.911    21939604.637
 -10393860.14249  -8099100.65947  22321118.5514   22321118.3154
  -9617696.13348  -7494306.86246  23416112.3534   23416113.6984
  -8913058.91148  -6945240.09946  23200608.9634   23200610.1074
  -4869621.64748  -3794509.05645  24356099.8584   24356100.2284
 -16806856.50149 -13096245.96647  22091149.1794   22091149.6804
  -1591897.50249  -1240438.49048  20279783.5664   20279783.8484
 -23750917.71149 -18507201.35148  20723400.1734   20723400.0874
 95  2  9  4 49 30.0000000  0  8G12G 4G16G20G 6G 9G24G 5
 -11525209.171 9  -8980677.618 8  21955186.636    21955185.292
 -10309441.93149  -8033320.24847  22337182.5274   22337182.4624
  -9708346.30348  -7564943.35846  23398862.2714   23398863.9544
  -9008704.04148  -7019768.76946  23182407.6924   23182407.9444
  -4934778.50648  -3845280.61945  24343701.0514   24343702.1624
 -16742013.51749 -13045718.98347  22103488.4524   22103488.3624
  -1573290.47149  -1225939.49848  20283324.3084   20283324.6934
 -23800116.72949 -18545538.24948  20714038.0104   20714037.9054
 95  2  9  4 50  0.0000000  0  8G12G 4G16G20G 6G 9G24G 5
 -11442946.287 9  -8916576.693 8  21970840.768    21970839.395
 -10224802.45949  -7967367.41147  22353288.9944   22353289.0804
  -9798936.99348  -7635533.49046  23381623.4224   23381624.7094
  -9104264.62248  -7094231.54546  23164223.4964   23164223.6824
  -4999914.93348  -3896036.26445  24331305.7104   24331306.7054
 -16676829.42549 -12994926.18847  22115892.4974   22115892.4054
  -1554227.84549  -1211085.49748  20286951.7774   20286952.0044
 -23848980.90849 -18583614.24048  20704739.3684   20704739.1584
 95  2  9  4 50 30.0000000  0  8G12G 4G16G 6G20G 9G24G 5
 -11360293.585 9  -8852172.015 8  21986569.075    21986567.702
 -10139936.59349  -7901238.16147  22369438.5014   22369437.8374
  -9889471.72548  -7706080.02546  23364395.0794   23364396.4944
  -5065024.65748  -3946771.09145  24318915.9624   24318918.3314
  -9199722.34548  -7168614.17946  23146058.7704   23146058.9584
 -16611286.84049 -12943854.02647  22128364.9244   22128365.0314
  -1534718.33149  -1195883.27648  20290664.3184   20290664.5634
 -23897482.57049 -18621407.75148  20695509.8084   20695509.6884
 95  2  9  4 51  0.0000000  0  8G12G 4G16G 6G20G 9G24G 5
 -11277219.781 9  -8787439.200 8  22002377.547    22002376.138
 -10054814.68249  -7834909.41047  22385636.9434   22385636.5044
  -9979899.13048  -7776542.92946  23347187.3454   23347188.4394
  -5130064.43248  -3997451.44546  24306539.3934   24306537.9734
  -9295035.31848  -7242884.01646  23127921.0474   23127921.4084
 -16545348.49549 -12892473.49447  22140912.7384   22140912.8674
  -1514727.91849  -1180306.32948  20294468.3674   20294468.6834
 -23945579.33149 -18658885.75348  20686357.3504   20686357.0504
 95  2  9  4 51 30.0000000  0  8G12G 4G16G 6G20G 9G24G 5
 -11193749.669 9  -8722397.564 8  22018261.335    22018260.021
  -9969469.66149  -7768406.80547  22401877.5614   22401876.7064
 -10070231.12148  -7846931.46346  23329998.0364   23329998.2304
  -5195063.03548  -4048099.65446  24294170.3934   24294169.7564
  -9390218.84848  -7317052.99546  23109808.1954   23109808.3004
 -16479026.09649 -12840793.71247  22153533.5134   22153533.6664
  -1494267.85249  -1164363.42148  20298361.8284   20298362.1824
 -23993281.57349 -18696056.32948  20677279.9634   20677279.6534
 95  2  9  4 52  0.0000000  0  8G12G 4G16G 6G20G 9G24G 5
 -11109897.561 9  -8657058.267 8  22034217.890    22034216.539
  -9883925.86949  -7701749.30647  22418155.5594   22418154.7314
 -10160473.23648  -7917249.99346  23312825.2114   23312826.8474
  -5260028.16648  -4098721.81245  24281807.7724   24281808.0354
  -9485269.32848  -7391118.29846  23091720.3134   23091720.3554
 -16412339.40549 -12788830.07647  22166223.5444   22166223.6394
  -1473337.72049  -1148054.22948  20302344.6144   20302344.8494
 -24040592.01849 -18732921.61048  20668277.0684   20668276.8744
 95  2  9  4 52 30.0000000  0  8G12G 4G16G 6G20G 9G24G 5
 -11025674.845 9  -8591430.180 8  22050244.940    22050243.577
  -9798195.92649  -7634946.75247  22434469.7374   22434469.4664
 -10250615.11148  -7987490.41946  23295671.7784   23295673.5174
  -5324959.25548  -4149317.47645  24269451.8754   24269450.9574
  -9580200.74148  -7465090.81546  23073655.3514   23073655.7864
 -16345299.60649 -12736591.29147  22178980.7844   22178980.5664
  -1451943.90149  -1131383.71948  20306415.8024   20306416.1224
 -24087527.75549 -18769494.90748  20659345.4994   20659345.3834
 95  2  9  4 53  0.0000000  0  8G12G 4G 6G16G20G 9G24G 5
 -10941075.058 9  -8525508.267 8  22066343.745    22066342.353
  -9712269.06949  -7567990.75047  22450821.1144   22450820.3214
  -5389860.80648  -4199890.09346  24257101.3794   24257104.7624
 -10340637.08548  -8057637.39246  23278541.3834   23278542.5604
  -9675015.15048  -7538972.16646  23055613.2254   23055613.1954
 -16277901.83649 -12684073.57747  22191806.1094   22191806.4774
  -1430080.27249  -1114347.12048  20310576.2414   20310576.6054
 -24134092.04149 -18805778.75548  20650484.5344   20650484.4624
 95  2  9  4 53 30.0000000  0  8G12G 4G 6G16G20G 9G24G 5
 -10856095.440 9  -8459290.387 8  22082514.866    22082513.462
  -9626141.82149  -7500878.62947  22467210.6624   22467210.0554
  -5454741.97248  -4250446.81846  24244755.2094   24244756.2784
 -10430533.76348  -8127686.73846  23261434.5144   23261435.5504
  -9769697.94248  -7612750.95446  23037595.1024   23037595.7424
 -16210154.04449 -12631283.11947  22204697.9824   22204698.0714
  -1407755.87849  -1096951.48648  20314824.4904   20314824.7394
 -24180284.49249 -18841772.86648  20641694.4924   20641694.2904
 95  2  9  4 54  0.0000000  0  8G12G 4G 6G16G20G 9G24G 5
 -10770739.858 9  -8392779.547 8  22098757.434    22098756.091
  -9539808.84349  -7433606.18347  22483639.0254   22483638.6424
  -5519586.91248  -4300975.32445  24232415.0434   24232416.5344
 -10520300.89448  -8197635.14846  23244352.2724   23244353.3724
  -9864263.41048  -7686438.31246  23019600.2774   23019600.1554
 -16142070.46249 -12578230.99747  22217653.8114   22217654.0944
  -1384989.70149  -1079211.60348  20319156.6964   20319157.0464
 -24226100.95249 -18877474.00848  20632975.8004   20632975.6854
 95  2  9  4 54 30.0000000  0  8G12G 4G 6G16G20G 9G24G 5
 -10684996.984 9  -8325966.934 8  22115073.814    22115072.443
  -9453254.25549  -7366161.05147  22500109.8254   22500108.6334
  -5584383.75348  -4351466.35645  24220084.9864   24220086.8094
 -10609924.91248  -8267472.02946  23227297.2984   23227297.8174
  -9958699.40948  -7760024.78446  23001630.0444   23001630.7524
 -16073637.22249 -12524906.41747  22230676.1254   22230676.6994
  -1361776.23149  -1061123.18148  20323574.1514   20323574.4974
 -24271524.45549 -18912868.94048  20624332.0854   20624331.8964
 95  2  9  4 55  0.0000000  0  8G12G 4G 6G16G20G 9G24G 5
 -10598875.484 9  -8258859.297 8  22131462.251    22131460.807
  -9366473.17349  -7298539.44047  22516623.7514   22516622.9944
  -5649132.84648  -4401920.18346  24207763.7484   24207764.1584
 -10699405.71848  -8337197.33046  23210269.8364   23210271.0884
 -10052995.80248  -7833502.47746  22983686.0524   22983686.2164
 -16004879.10949 -12471328.68047  22243760.5914   22243760.7304
  -1338122.60049  -1042691.77948  20328075.2394   20328075.5474
 -24316547.88149 -18947952.12348  20615764.3714   20615764.2874
 95  2  9  4 55 30.0000000  0  8G12G 4G 6G16G20G 9G24G 5
 -10512376.396 9  -8191457.427 8  22147922.554    22147921.043
  -9279467.97949  -7230743.17947  22533180.4804   22533180.0294
  -5713808.51048  -4452316.74446  24195456.0084   24195455.9004
 -10788736.07848  -8406805.39446  23193270.6604   23193272.1994
 -10147128.92448  -7906852.94446  22965773.1264   22965773.1884
 -15935798.84949 -12417499.91247  22256906.0634   22256906.2784
  -1314021.92849  -1023912.03448  20332661.5424   20332661.7164
 -24361149.81349 -18982706.87648  20607276.8774   20607276.7404
 95  2  9  4 56  0.0000000  0  8G12G 4G 6G16G20G 9G24G 5
 -10425534.521 9  -8123788.443 8  22164447.995    22164446.541
  -9192270.03149  -7162796.73647  22549773.7284   22549772.7904
  -5778432.02048  -4502672.74446  24183158.9114   24183158.7344
 -10877945.98048  -8476319.58146  23176295.0194   23176296.1444
 -10241123.73448  -7980095.63646  22947886.7174   22947886.9684
 -15866417.06749 -12363436.19047  22270109.1324   22270108.9104
  -1289499.86749  -1004803.93548  20337327.7874   20337328.2334
 -24405367.11849 -19017161.91848  20598862.5684   20598862.4784
 95  2  9  4 56 30.0000000  0  8G12G 4G 6G16G20G 9G24G 5
 -10338352.428 9  -8055854.352 8  22181038.122    22181036.716
  -9104886.21049  -7094705.45047  22566402.0784   22566401.4114
  -5843021.12948  -4553001.90046  24170867.3394   24170867.8284
 -10967028.07648  -8545734.18046  23159342.8264   23159344.2414
 -10334943.49648  -8053201.93246  22930032.9534   22930033.6084
 -15796736.27449 -12309139.48347  22283369.0164   22283369.2414
  -1264546.79049   -985359.97348  20342076.2014   20342076.4454
 -24449204.87949 -19051321.20748  20590520.4674   20590520.5404
 95  2  9  4 57  0.0000000  0  8G12G 4G 6G16G20G 9G24G 5
 -10250858.584 9  -7987677.348 8  22197687.639    22197686.242
  -9017347.49249  -7026493.41447  22583060.1814   22583059.0784
  -5907609.29448  -4603330.31546  24158576.8134   24158577.6454
 -11055995.36048  -8615059.31746  23142413.0254   23142414.1094
 -10428609.17248  -8126188.17046  22912208.9364   22912208.1884
 -15726777.71149 -12254626.32347  22296681.7224   22296682.3144
  -1239185.79749   -965598.15748  20346902.2514   20346902.6104
 -24492680.35549 -19085198.20048  20582247.4514   20582247.4874
 95  2  9  4 57 30.0000000  0  8G12G 4G 6G16G20G 9G24G 5
 -10163042.382 9  -7919249.156 8  22214398.551    22214397.125
  -8929669.72149  -6958173.13047  22599744.7614   22599744.1184
  -5972205.66948  -4653665.12746  24146284.6754   24146286.3164
 -11144833.50948  -8684283.82346  23125507.7484   23125508.8924
 -10522110.98948  -8199046.71446  22894416.0774   22894416.3754
 -15656517.60949 -12199878.19747  22310051.8404   22310052.4054
  -1213413.39649   -945515.76748  20351806.5364   20351807.0554
 -24535788.35549 -19118788.85348  20574044.2624   20574044.1064
 95  2  9  4 58  0.0000000  0  8G12G 4G 6G16G20G 9G24G 5
 -10074903.777 9  -7850569.740 8  22231170.800    22231169.360
  -8841864.88649  -6889753.77447  22616453.5014   22616453.1424
  -6036837.14148  -4704027.28046  24133985.6934   24133985.7814
 -11233541.73248  -8753407.08846  23108627.0864   23108627.9984
 -10615470.66248  -8271794.48346  22876650.3604   22876651.0624
 -15585969.10849 -12144905.33947  22323476.3134   22323476.8464
  -1187234.44049   -925116.58248  20356788.1774   20356788.6084
 -24578528.96249 -19152093.22648  20565911.0674   20565910.9224
 95  2  9  4 58 30.0000000  0  8G12G 4G 6G16G20G 9G24G 5
  -9986421.707 9  -7781622.708 8  22248008.422    22248006.986
  -8753916.06249  -6821222.23047  22633189.4354   22633188.5814
  -6101488.18948  -4754404.69246  24121683.2124   24121684.1364
 -11322104.80348  -8822417.26746  23091774.2144   23091775.4104
 -10708684.86748  -8344428.90546  22858911.9454   22858912.5204
 -15515116.49049 -12089695.52147  22336959.5784   22336959.0194
  -1160637.96049   -904392.05648  20361849.4084   20361849.8204
 -24620860.28349 -19185078.67348  20557855.6644   20557855.5314
 95  2  9  4 59  0.0000000  0  8G12G 4G 6G16G20G 9G24G 5
  -9897597.110 9  -7712408.764 8  22264911.204    22264909.721
  -8665825.77549  -6752580.44947  22649952.4164   22649952.1134
  -6166150.55048  -4804790.94946  24109377.7614   24109378.7734
 -11410547.15048  -8891333.35946  23074944.2124   23074945.4684
 -10801781.12948  -8416971.43046  22841196.3364   22841196.7574
 -15443957.35049 -12034246.85347  22350500.3644   22350500.4704
  -1133627.33249   -883344.82048  20366989.3504   20366989.7764
 -24662770.35449 -19217735.86948  20549880.4414   20549880.2644
 95  2  9  4 59 30.0000000  0  8G12G 4G 6G16G20G 9G24G 5
  -9808423.925 9  -7642923.175 8  22281880.332    22281878.859
  -8577575.95449  -6683814.36347  22666745.9174   22666744.8484
  -6230810.44348  -4855175.26646  24097073.7584   24097075.0184
 -11498879.21949  -8960163.53346  23058135.3464   23058136.2514
 -10894756.70349  -8489419.90646  22823503.8694   22823503.6424
 -15372498.54349 -11978564.67747  22364098.7534   22364099.2144
  -1106205.22949   -861976.94648  20372207.6194   20372208.0184
 -24704254.98849 -19250061.55448  20541986.0894   20541985.8704
 95  2  9  5  0  0.0000000  0  8G12G 4G 6G16G20G 9G24G 5
  -9718872.129 9  -7573142.558 8  22298921.434    22298919.968
  -8489106.56449  -6614877.17347  22683580.8964   22683580.7834
  -6295409.50748  -4905512.17046  24084781.0054   24084781.1584
 -11587075.04849  -9028887.54646  23041352.1884   23041352.4104
 -10987583.71849  -8561752.63446  22805839.5194   22805839.3434
 -15300703.64649 -11922620.60947  22377760.7104   22377760.8604
  -1078330.13749   -840256.09148  20377512.0804   20377512.4144
 -24745284.28949 -19282032.44148  20534178.7094   20534178.5074
 95  2  9  5  0 30.0000000  0  8G12G 4G 6G16G20G 9G24G 5
  -9628948.321 9  -7503072.066 8  22316033.394    22316031.897
  -8400405.99649  -6545759.86547  22700460.2704   22700459.3694
  -6359922.22248  -4955781.79146  24072504.0144   24072505.2454
 -11675130.01349  -9097501.79746  23024595.7514   23024596.5204
 -11080234.72449  -8633948.21946  22788208.5734   22788208.8254
 -15228569.48249 -11866412.17547  22391487.2864   22391488.0704
  -1049994.16349   -818176.10548  20382904.3364   20382904.6524
 -24785863.54449 -19313652.65348  20526456.5894   20526456.4084
 95  2  9  5  1  0.0000000  0  8G12G 4G 6G16G20G 9G24G 5
  -9538663.165 9  -7432720.008 8  22333214.083    22333212.626
  -8311487.48449  -6476472.71547  22717381.0154   22717380.8604
  -6424343.95248  -5005980.52746  24060245.3474   24060245.4014
 -11763029.92349  -9165995.21046  23007868.9064   23007869.7744
 -11172698.33649  -8705997.78446  22770613.3354   22770613.0714
 -15156118.48649 -11809956.85347  22405274.3054   22405274.3974
  -1021192.19049   -795733.00848  20388385.1154   20388385.3894
 -24826015.14249 -19344939.62548  20518815.9884   20518815.8924
 95  2  9  5  1 30.0000000  0  8G12G 4G 6G16G20G 9G24G 5
  -9448022.468 9  -7362090.903 8  22350462.456    22350460.929
  -8222355.42049  -6407019.15746  22734342.1034   22734342.2204
  -6488674.61248  -5056108.29246  24048004.1574   24048004.5004
 -11850733.85049  -9234335.90546  22991179.2634   22991180.2954
 -11264969.39149  -8777897.29746  22753054.9514   22753055.3074
 -15083356.47649 -11753259.18047  22419120.5104   22419121.0784
   -991924.49649   -772927.01348  20393954.5494   20393954.8504
 -24865759.58349 -19375909.30948  20511252.8514   20511252.6344
 95  2  9  5  2  0.0000000  0  8G12G 4G 6G16G20G 9G24G 5
  -9357049.313 9  -7291202.732 8  22367774.054    22367772.588
  -8133042.54449  -6337424.71846  22751337.6394   22751336.8334
  -6552934.20348  -5106180.67646  24035775.4764   24035778.1774
 -11938239.89849  -9302522.42246  22974527.6284   22974528.7334
 -11357058.65649  -8849655.16146  22735530.8524   22735531.1854
 -15010305.02749 -11696335.99747  22433021.8304   22433022.0754
   -962194.30049   -749760.62448  20399612.0924   20399612.2644
 -24905110.10649 -19406572.04348  20503764.8494   20503764.5804
 95  2  9  5  2 30.0000000  0  8G12G 4G 6G16G20G 9G24G 5
  -9265771.516 9  -7220077.181 8  22385143.720    22385142.197
  -8043594.59649  -6267725.01046  22768359.0224   22768358.6064
  -6617167.06548  -5156232.23846  24023552.4544   24023553.9414
 -12025571.72849  -9370573.17646  22957908.6394   22957909.8074
 -11448990.06149  -8921290.02446  22718036.6084   22718036.9344
 -14937008.45449 -11639221.81847  22446969.4324   22446969.6124
   -932039.36949   -726263.27148  20405350.3224   20405350.5534
 -24944072.27049 -19436932.16848  20496350.5384   20496350.2324
 95  2  9  5  3  0.0000000  0  8G12G 4G 6G16G20G 9G24G 5
  -9174187.124 9  -7148712.726 8  22402571.619    22402570.082
  -7954023.10849  -6197929.05546  22785403.9994   22785403.0514
  -6681391.79948  -5206277.46646  24011331.0324   24011331.9514
 -12112726.34749  -9438485.85646  22941323.8214   22941324.8794
 -11540779.62649  -8992814.37246  22700569.9464   22700569.6264
 -14863460.49449 -11581911.73847  22460965.3674   22460965.5654
   -901470.28549   -702443.20148  20411167.4894   20411167.7234
 -24982641.06749 -19466985.77848  20489011.0474   20489010.7794
 95  2  9  5  3 30.0000000  0  8G12G 4G 6G16G20G 9G24G 5
  -9082304.689 9  -7077116.039 8  22420056.294    22420054.696
  -7864333.19349  -6128040.81146  22802471.3064   22802471.6254
  -6745620.56048  -5256325.80446  23999108.9794   23999109.0014
 -12199715.28949  -9506269.43746  22924770.1584   22924771.1004
 -11632433.96149  -9064233.32946  22683128.4324   22683129.2604
 -14789660.36349 -11524405.17147  22475009.2334   22475009.6104
   -870503.81249   -678313.48448  20417060.1984   20417060.2604
 -25020806.76849 -19496725.28548  20481748.4684   20481748.1694
 95  2  9  5  4  0.0000000  0  8G12G 4G 6G16G20G 9G24G 5
  -8990094.203 8  -7005263.715 8  22437603.353    22437601.770
  -7774497.47449  -6058038.96446  22819566.4064   22819565.9514
  -6809831.39648  -5306360.19946  23986889.4434   23986889.4924
 -12286522.60149  -9573911.48846  22908251.3434   22908252.3264
 -11723907.42549  -9135511.34446  22665721.5244   22665721.6634
 -14715582.08749 -11466681.85647  22489105.7994   22489106.6834
   -839126.81449   -653863.88048  20423030.9964   20423031.1564
 -25058518.86649 -19526111.33848  20474572.0834   20474571.8504
 95  2  9  5  4 30.0000000  0  8G12G 4G 6G16G20G 9G24G 5
  -8897567.736 8  -6933165.179 8  22455210.533    22455209.042
  -7684524.21949  -5987929.93646  22836688.0424   22836687.2874
  -6874037.92448  -5356391.27946  23974671.8124   23974673.1074
 -12373148.29349  -9641412.01446  22891767.2894   22891767.9514
 -11815204.30849  -9206651.76846  22648348.3994   22648348.7314
 -14641224.54149 -11408740.94247  22503255.6994   22503256.2914
   -807360.32149   -629110.76048  20429075.9184   20429076.2034
 -25095795.81549 -19555158.31348  20467478.3654   20467478.1814
 95  2  9  5  5  0.0000000  0  8G12G 4G 6G16G20G 9G24G 5
  -8804703.258 8  -6860803.258 8  22472882.083    22472880.550
  -7594377.08349  -5917685.42646  22853842.4964   22853842.0144
  -6938213.85448  -5406398.45046  23962459.3814   23962459.3734
 -12459553.81049  -9708740.97546  22875324.7424   22875325.8044
 -11906278.83149  -9277618.93446  22631017.3094   22631017.6694
 -14566555.58349 -11350557.34247  22517464.5094   22517464.6374
   -775167.73549   -604025.61948  20435202.0364   20435202.3424
 -25132630.67549 -19583860.79948  20460468.9284   20460468.6874
 95  2  9  5  5 30.0000000  0  8G12G 4G 6G16G20G 9G24G 5
  -8711523.044 8  -6788195.312 8  22490613.669    22490612.165
  -7504065.94349  -5847313.09946  22871027.9114   22871027.1914
  -7002381.43048  -5456399.15246  23950248.6694   23950248.5784
 -12545759.78149  -9775914.44046  22858920.0014   22858920.5784
 -11997128.32749  -9348410.76246  22613729.3914   22613729.4074
 -14491600.04249 -11292150.42947  22531728.3294   22531728.3814
   -742566.40249   -578621.97148  20441405.8624   20441406.1034
 -25169049.70549 -19612239.25448  20453538.7184   20453538.3674
 95  2  9  5  6  0.0000000  0  8G12G 4G 6G16G20G 9G24G 5
  -8618032.651 8  -6715345.670 8  22508404.317    22508402.834
  -7413599.16449  -5776819.51646  22888243.3644   22888243.1044
  -7066546.91648  -5506398.19246  23938038.4614   23938038.6124
 -12631765.10049  -9842931.55346  22842553.6264   22842555.0394
 -12087749.53449  -9419024.69446  22596484.8494   22596485.0674
 -14416362.20149 -11233523.53447  22546045.5084   22546045.5594
   -709561.34649   -552903.73948  20447686.5194   20447686.8624
 -25205063.91949 -19640302.26748  20446685.4404   20446685.0784
 95  2  9  5  6 30.0000000  0  8G12G 4G 6G16G20G 9G24G 5
  -8524248.749 8  -6642267.310 8  22526250.810    22526249.359
  -7322997.03349  -5706220.45346  22905484.5054   22905482.9634
  -7130709.18748  -5556394.74146  23925828.5714   23925829.6204
 -12717589.11949  -9909807.40746  22826221.7124   22826222.4404
 -12178164.07349  -9489477.57646  22579279.6124   22579279.8534
 -14340856.46149 -11174687.90547  22560413.6244   22560413.9894
   -676156.12749   -526873.68948  20454043.3064   20454043.4804
 -25240686.51349 -19668060.13648  20439906.6664   20439906.3284
 95  2  9  5  7  0.0000000  0  8G12G 4G 6G16G20G 9G24G 5
  -8430173.695 8  -6568962.074 8  22544152.730    22544151.220
  -7232265.19049  -5635520.32546  22922749.7914   22922749.7514
  -7194862.62348  -5606384.40546  23913620.4864   23913620.3264
 -12803247.63149  -9976554.28546  22809921.7444   22809922.8104
 -12268372.29149  -9559769.68546  22562113.3304   22562113.7294
 -14265096.83749 -11115654.44947  22574830.3334   22574830.2824
   -642360.68749   -500539.57648  20460474.3344   20460474.4214
 -25275906.94149 -19695504.62748  20433204.4694   20433204.1844
 95  2  9  5  7 30.0000000  0  8G12G 4G 6G16G20G 9G24G 5
  -8335807.617 8  -6495430.074 8  22562109.995    22562108.512
  -7141422.49849  -5564733.82446  22940036.8904   22940036.0714
  -7258989.09048  -5656353.07146  23901417.7794   23901418.5154
 -12888723.92949 -10043159.17146  22793655.8954   22793656.6984
 -12358389.37149  -9629912.86146  22544983.6504   22544983.4994
 -14189086.53949 -11056425.66147  22589294.6674   22589295.0364
   -608188.34849   -473911.77548  20466977.0654   20466977.3494
 -25310704.32549 -19722619.47348  20426582.7504   20426582.4814
 95  2  9  5  8  0.0000000  0  8G12G 4G 6G16G20G 9G24G 5
  -8241168.989 8  -6421685.699 8  22580119.230    22580117.640
  -7050477.60449  -5493867.67346  22957343.2964   22957342.2104
  -7323088.01548  -5706300.27646  23889219.9164   23889219.0924
 -12974015.07649 -10109619.79646  22777425.5574   22777427.3294
 -12448251.35549  -9699935.18446  22527883.6764   22527884.1974
 -14112845.33149 -10997016.92147  22603802.7694   22603802.6774
   -573651.61449   -447000.03948  20473549.1694   20473549.4104
 -25345071.36049 -19749398.98748  20420042.9824   20420042.7114
 95  2  9  5  8 30.0000000  0  8G12G 4G 6G16G20G 9G24G 5
  -8146250.134 8  -6347722.975 8  22598181.657    22598180.074
  -6959405.57848  -5422902.46446  22974673.5324   22974673.9204
  -7387152.53448  -5756220.65546  23877028.9794   23877028.1324
 -13059106.88749 -10175925.08346  22761232.9404   22761234.2594
 -12537956.96749  -9769835.65246  22510812.8974   22510813.4974
 -14036368.63749 -10937424.70047  22618355.9074   22618356.4484
   -538733.33649   -419790.99548  20480193.9184   20480194.1524
 -25378987.88649 -19775827.46448  20413588.8784   20413588.7024
 95  2  9  5  9  0.0000000  0  8G12G 4G 6G16G20G 9G24G 5
  -8051049.278 8  -6273540.511 8  22616297.793    22616296.195
  -6868193.90549  -5351828.43046  22992030.7674   22992029.1274
  -7451189.21648  -5806119.35046  23864843.2074   23864842.8084
 -13143976.94449 -10242057.57946  22745082.9374   22745083.7964
 -12627495.48949  -9839605.92846  22493774.5254   22493774.9944
 -13959660.70149 -10877652.30147  22632953.1714   22632953.2124
   -503430.37249   -392282.19648  20486911.7804   20486912.0704
 -25412448.52149 -19801900.70548  20407221.3994   20407221.1064
 95  2  9  5  9 30.0000000  0  8G12G 4G 6G16G20G 9G24G 5
  -7955565.754 8  -6199137.784 8  22634467.649    22634466.160
  -6776840.50749  -5280643.98746  23009414.6504   23009414.7234
  -7515195.94948  -5855994.71346  23852663.0624   23852664.1724
 -13228618.32449 -10308011.88146  22728976.2404   22728977.3264
 -12716864.01349  -9909243.73746  22476768.1894   22476768.9904
 -13882717.16149 -10817696.32147  22647595.1794   22647595.6934
   -467723.62449   -364458.76148  20493706.5734   20493706.9864
 -25445440.43749 -19827608.70548  20400943.4624   20400943.2624
 95  2  9  5 10  0.0000000  0  8G12G 4G 6G16G20G 9G24G 5
  -7859802.049 8  -6124516.740 8  22652690.964    22652689.417
  -6685343.87049  -5209347.90546  23026825.8124   23026825.7734
  -7579189.37748  -5905859.69046  23840485.8344   23840487.7844
 -13313062.48349 -10373812.50646  22712906.9824   22712908.3304
 -12806050.92249  -9978740.03646  22459796.2664   22459796.3814
 -13805537.84949 -10757556.61347  22662281.6234   22662282.2334
   -431606.16649   -336315.28848  20500579.6154   20500579.8734
 -25477963.89249 -19852951.66448  20394754.2754   20394754.0434
 95  2  9  5 10 30.0000000  0  8G12G 4G 6G16G20G 9G24G 5
  -7763752.400 8  -6049672.871 8  22670968.609    22670967.056
  -6593720.72549  -5137953.25246  23044261.2114   23044260.7954
  -7643163.72548  -5955709.80146  23828311.7264   23828311.9794
 -13397316.78349 -10439465.18847  22696874.1134   22696875.0324
 -12895022.49349 -10048068.54446  22442865.3724   22442866.3534
 -13728117.58549 -10697229.14847  22677014.4544   22677014.8994
   -395075.30049   -307849.67848  20507531.1474   20507531.4854
 -25510019.22549 -19877929.85248  20388654.3514   20388654.2294
 95  2  9  5 11  0.0000000  0  8G12G 4G 6G16G20G 9G24G 5
  -7667428.664 8  -5974615.433 8  22689298.390    22689296.864
  -6501998.97849  -5066481.78346  23061715.3354   23061714.4254
  -7707123.28548  -6005548.40046  23816140.3984   23816140.3844
 -13481386.00049 -10504973.65047  22680876.3404   22680877.5444
 -12983768.53949 -10117221.30246  22425977.8184   22425978.3704
 -13650462.20049 -10636718.44147  22691791.7664   22691792.1454
   -358144.19649   -279072.19448  20514558.8894   20514559.1314
 -25541618.39149 -19902552.58648  20382641.3104   20382641.1954
 95  2  9  5 11 30.0000000  0  8G12G 4G 6G16G20G 9G24G 5
  -7570810.596 8  -5899328.653 8  22707684.257    22707682.697
  -6410158.94848  -4994918.10946  23079191.6324   23079190.3564
  -7771042.20448  -6055355.34046  23803977.0284   23803977.3014
 -13565246.16149 -10570319.21247  22664918.0774   22664919.2834
 -13072262.07449 -10186177.30047  22409138.2624   22409138.9694
 -13572539.37049 -10575999.34647  22706619.7564   22706620.2644
   -320797.23749   -249970.66248  20521665.7704   20521665.9434
 -25572740.40949 -19926803.51848  20376719.0654   20376718.9434
 95  2  9  5 12  0.0000000  0  8G12G 4G 6G16G20G 9G24G 5
  -7473915.072 8  -5823825.665 8  22726122.852    22726121.289
  -6318212.85349  -4923271.80846  23096688.7814   23096688.8034
  -7834935.31748  -6105142.16246  23791818.5604   23791818.8834
 -13648887.59849 -10635494.33747  22649001.7304   22649002.5514
 -13160505.57149 -10254938.46547  22392346.2364   22392346.7994
 -13494370.28549 -10515088.36147  22721494.8704   22721494.2324
   -283074.57749   -220576.37448  20528844.0744   20528844.3724
 -25603406.18649 -19950698.93248  20370883.5614   20370883.4114
 95  2  9  5 12 30.0000000  0  8G12G 4G 6G16G20G 9G24G 5
  -7376738.557 8  -5748103.721 8  22744614.960    22744613.419
  -6226147.51848  -4851532.60346  23114207.8684   23114207.2534
  -7898792.02248  -6154900.62246  23779666.7584   23779667.3634
 -13732268.62549 -10700466.53847  22633134.7104   22633135.9274
 -13248478.02849 -10323488.42647  22375605.2594   22375606.3894
 -13415954.11749 -10453984.86247  22736417.1594   22736417.0394
   -244970.53449   -190884.90748  20536095.0534   20536095.3444
 -25633613.93849 -19974237.43748  20365135.0674   20365134.9054
 95  2  9  5 13  0.0000000  0  8G12G 4G 6G16G20G 9G24G 5
  -7279265.122 8  -5672150.405 8  22763163.594    22763161.989
  -6133938.34849  -4779681.29446  23131754.7644   23131753.7874
  -7962599.60348  -6204620.81046  23767524.5584   23767523.8504
 -13815353.29449 -10765207.81347  22617324.1734   22617325.4924
 -13336172.98149 -10391822.14847  22358917.4954   22358918.3034
 -13337275.08949 -10392676.52447  22751389.0164   22751389.7404
   -206464.77349   -160880.41548  20543422.4184   20543422.6824
 -25663344.18549 -19997403.86048  20359477.6004   20359477.3324
 95  2  9  5 13 30.0000000  0  8G12G 4G 6G16G20G 9G24G 5
  -7181529.425 8  -5595992.736 8  22781762.142    22781760.489
  -6041613.09148  -4707739.54446  23149323.7084   23149324.2194
  -8026389.37148  -6254327.08346  23755385.9974   23755387.1794
 -13898170.38549 -10829740.58947  22601564.4794   22601565.5474
 -13423634.28749 -10459973.81147  22342274.2164   22342274.7924
 -13258380.96149 -10331200.56747  22766402.4054   22766402.4744
   -167591.53149   -130589.57448  20550819.8944   20550820.2044
 -25692622.10449 -20020217.82448  20353906.2594   20353906.1424
 95  2  9  5 14  0.0000000  0  8G12G 4G 6G16G20G 9G24G 5
  -7083553.322 8  -5519647.742 8  22800406.349    22800404.755
  -5949194.84948  -4635725.35046  23166910.4664   23166909.8964
  -8090182.84948  -6304036.27146  23743246.4984   23743246.6014
 -13980739.19349 -10894079.90047  22585852.2174   22585853.4214
 -13510887.46949 -10527963.29847  22325670.7224   22325670.7354
 -13179302.09849 -10269580.66447  22781450.0874   22781450.3274
   -128358.43149   -100018.32448  20558285.6524   20558286.0004
 -25721465.00449 -20042692.81848  20348417.6254   20348417.3934
 95  2  9  5 14 30.0000000  0  8G12G 4G 6G16G20G 9G24G 5
  -6985320.542 8  -5443102.738 8  22819099.456    22819097.766
  -5856661.74248  -4563621.62946  23184518.7944   23184518.0864
  -8153961.60748  -6353733.98446  23731109.9874   23731110.1724
 -14063056.15149 -10958222.97147  22570187.8904   22570189.0824
 -13597930.91749 -10595789.35947  22309106.6804   22309107.4814
 -13100025.49949 -10207806.70447  22796536.1364   22796536.3464
    -88724.19349    -69134.50148  20565827.8614   20565828.1714
 -25749859.86249 -20064818.68148  20343014.2654   20343013.9844
 95  2  9  5 15  0.0000000  0  8G12G 4G 6G16G20G 9G24G 5
  -6886832.331 8  -5366358.695 8  22837841.205    22837839.534
  -5764003.55648  -4491420.44846  23202151.1994   23202149.4434
  -8217712.25948  -6403409.79046  23718978.4764   23718978.0344
 -14145126.65649 -11022173.99047  22554570.3924   22554571.5754
 -13684782.87349 -10663466.21047  22292579.2184   22292579.8294
 -13020556.74249 -10145883.01347  22811658.5064   22811658.9744
    -48702.27849    -37948.59948  20573443.7354   20573443.8804
 -25777797.61549 -20086588.34948  20337697.8814   20337697.5474
 95  2  9  5 15 30.0000000  0  8G12G 4G 6G16G20G 9G24G 5
  -6788103.364 8  -5289427.048 8  22856628.678    22856627.012
  -5671228.02548  -4419127.82346  23219805.8714   23219805.6794
  -8281437.05448  -6453065.45146  23706851.9434   23706852.8934
 -14226970.10949 -11085948.08747  22538996.1764   22538997.5704
 -13771446.05349 -10730995.95647  22276087.8314   22276088.4344
 -12940913.01649 -10083822.98946  22826813.9214   22826814.3044
     -8316.01549     -6478.78648  20581128.9104   20581129.2094
 -25805277.26549 -20108001.05148  20332468.6804   20332468.3434
 95  2  9  5 16  0.0000000  0  8G12G 4G 6G16G20G 9G24G 5
  -6689125.278 8  -5212301.270 8  22875463.551    22875461.972
  -5578329.23248  -4346739.17846  23237483.6844   23237483.6904
  -8345126.47748  -6502693.57046  23694732.4124   23694732.9444
 -14308578.18249 -11149538.77147  22523466.4544   22523467.3554
 -13857894.28849 -10798358.22147  22259637.6354   22259638.2094
 -12861076.56849 -10021612.77646  22842007.0294   22842007.0094
     32437.27949     25277.02048  20588884.0704   20588884.2444
 -25832286.15849 -20129046.93448  20327329.1134   20327328.8044
 95  2  9  5 16 30.0000000  0  8G12G 4G 6G16G20G 9G24G 5
  -6589904.153 8  -5134986.110 8  22894344.766    22894343.114
  -5485312.14648  -4274258.32646  23255184.3834   23255183.7644
  -8408785.98848  -6552298.35546  23682618.3914   23682618.0454
 -14389951.52349 -11212946.56047  22507981.6834   22507982.8874
 -13944113.03749 -10865541.65247  22243230.9544   22243231.1414
 -12781052.18249  -9959256.13047  22857234.6774   22857235.0824
     73541.97649     57306.64848  20596705.9874   20596706.2374
 -25858821.58849 -20149723.88448  20322279.5214   20322279.2584
 95  2  9  5 17  0.0000000  0  8G12G 4G 6G16G20G 9G24G 5
  -6490447.042 8  -5057487.071 8  22913270.825    22913269.204
  -5392201.04648  -4201704.23446  23272902.5934   23272902.4934
  -8472432.06348  -6601892.68946  23670506.7094   23670507.1064
 -14471083.15049 -11276165.98647  22492542.7814   22492543.9144
 -14030084.87049 -10932532.68747  22226871.0554   22226871.3254
 -12700834.44049  -9896748.81546  22872499.8554   22872499.0874
    114980.12549     89596.11348  20604591.3744   20604591.6134
 -25884871.29749 -20170022.35448  20317322.4464   20317322.2424
 95  2  9  5 17 30.0000000  0  8G16G12G 4G 6G20G 9G24G 5
 -14551971.41049 -11339195.78347  22477150.3194   22477151.7604
  -6390758.826 8  -4979807.948 8  22932240.850    22932239.245
  -5299030.48248  -4129103.80846  23290632.7914   23290631.4524
  -8536085.57748  -6651492.81246  23658393.9164   23658394.7154
 -14115793.87849 -10999318.91647  22210561.0944   22210561.1864
 -12620413.61549  -9834083.22246  22887803.6294   22887803.5884
    156761.17249    122152.77248  20612542.0804   20612542.3364
 -25910446.78549 -20189951.30748  20312455.5644   20312455.3754
 95  2  9  5 18  0.0000000  0  8G16G12G 4G 6G20G 9G24G 5
 -14632592.29649 -11402017.23347  22461808.3754   22461809.4694
  -6290831.948 8  -4901942.855 8  22951256.286    22951254.658
  -5205804.30348  -4056459.99346  23308372.8664   23308371.8474
  -8599747.54648  -6701099.53346  23646279.3594   23646279.7114
 -14201223.92549 -11065887.77947  22194304.1754   22194304.4074
 -12539775.34049  -9771248.23947  22903148.5194   22903148.9194
    198901.50549    154989.38848  20620561.1384   20620561.5214
 -25935554.87449 -20209516.05348  20307677.5564   20307677.3424
 95  2  9  5 18 30.0000000  0  8G16G12G 4G 6G20G 9G24G 5
 -14712933.07449 -11464620.40747  22446520.2854   22446521.4834
  -6190672.179 8  -4823896.290 8  22970316.129    22970314.504
  -5112522.70248  -3983773.09446  23326123.8584   23326123.7334
  -8663418.40948  -6750713.18346  23634163.5704   23634163.7434
 -14286384.73949 -11132246.85347  22178098.5704   22178099.1414
 -12458921.46049  -9708245.23846  22918534.7344   22918534.8554
    241394.90149    188101.12148  20628647.3044   20628647.6284
 -25960195.44349 -20228716.49448  20302988.6814   20302988.5754
 95  2  9  5 19  0.0000000  0  8G16G12G 4G 6G20G 9G24G 5
 -14792995.59449 -11527006.76947  22431284.8744   22431286.5164
  -6090292.039 8  -4745677.990 8  22989417.783    22989416.210
  -5019204.68548  -3911057.71446  23343881.5174   23343880.2244
  -8727094.27248  -6800330.71146  23622046.3384   23622046.1424
 -14371287.18549 -11198404.59647  22161942.0154   22161941.8584
 -12377858.16349  -9645079.06146  22933959.7924   22933960.3784
    284238.78149    221485.95748  20636800.2464   20636800.5384
 -25984374.80749 -20247557.56648  20298387.4694   20298387.2714
 95  2  9  5 19 30.0000000  0  8G16G12G 4G 6G20G 9G24G 5
 -14872757.17849 -11589158.62847  22416106.6954   22416107.7874
  -5989666.720 8  -4667268.650 8  23008566.193    23008564.596
  -4925809.73048  -3838282.44446  23361653.9524   23361654.8594
  -8790736.19348  -6849921.79846  23609935.7924   23609935.9624
 -14455907.08549 -11264342.17747  22145839.3684   22145839.2514
 -12296569.50749  -9581737.31746  22949429.0714   22949429.1774
    327463.52849    255167.57348  20645025.6644   20645025.9344
 -26008064.51149 -20266017.10048  20293879.4564   20293879.2554
 95  2  9  5 20  0.0000000  0  8G16G12G 4G 6G20G 9G 5G24
 -14952200.91449 -11651062.82047  22400988.9964   22400989.9544
  -5888776.186 8  -4588652.648 8  23027764.928    23027763.385
  -4832284.22849  -3765405.44246  23379451.7754   23379450.6164
  -8854316.41048  -6899464.82346  23597836.4334   23597836.7394
 -14540232.49749 -11330050.29347  22129792.9354   22129793.0904
 -12215044.68249  -9518211.49546  22964942.3204   22964942.2514
 -26031226.71449 -20284065.58148  20289471.8954   20289471.7004
    371081.82149    289155.85848  20653325.9964   20653326.0544
 95  2  9  5 20 30.0000000  0  8G16G12G 4G 6G20G 9G 5G24
 -15031369.27049 -11712752.42447  22385923.6564   22385924.5754
  -5787656.671 8  -4509858.212 8  23047007.376    23047005.741
  -4738649.73448  -3692443.46446  23397269.0154   23397269.3754
  -8917867.78848  -6948985.34046  23585743.1064   23585742.7894
 -14624303.49549 -11395560.15947  22113794.7494   22113795.0764
 -12133326.11949  -9454534.71746  22980493.3494   22980493.5074
 -26053878.25549 -20301716.14348  20285161.3904   20285161.1444
    415056.97749    323422.22048  20661694.0854   20661694.4114
 95  2  9  5 21  0.0000000  0  8G16G12G 4G 6G20G 9G 5G24
 -15110282.07549 -11774242.90247  22370907.0834   22370908.0914
  -5686326.635 8  -4430899.747 8  23066289.819    23066288.287
  -4644922.55749  -3619409.33346  23415105.5404   23415105.1974
  -8981410.79948  -6998499.36446  23573651.2564   23573651.2674
 -14708133.38449 -11460882.15547  22097842.2574   22097842.7824
 -12051442.03249  -9390728.96446  22996075.1184   22996075.4234
 -26076038.43249 -20318983.82948  20280944.5144   20280944.3294
    459380.24349    357959.83348  20670128.6954   20670128.9144
 95  2  9  5 21 30.0000000  0  8G16G20G12G 4G 6G 9G 5G24
 -15188935.35549 -11835531.15347  22355940.1384   22355941.0184
 -14791721.34449 -11526015.63247  22081936.0414   22081936.3644
  -5584779.288 8  -4351771.948 8  23085613.694    23085611.961
  -4551086.86548  -3546290.60046  23432961.3454   23432960.6574
  -9044946.74648  -7048007.86546  23561560.6724   23561561.1894
 -11969394.03249  -9326795.50146  23011688.3524   23011688.2984
 -26097699.63649 -20335862.69048  20276822.5974   20276822.4394
    504040.11749    392759.73248  20678627.1504   20678627.2984
 95  2  9  5 22  0.0000000  0  8G16G20G12G 4G 6G 9G 5G24
 -15267313.12449 -11896604.72047  22341025.2184   22341026.3714
 -14875069.36149 -11590962.13947  22066075.3164   22066075.4354
  -5483021.679 8  -4272480.303 8  23104977.469    23104975.861
  -4457161.25048  -3473101.79746  23450834.9944   23450835.2134
  -9108472.46948  -7097508.41446  23549472.1874   23549472.5124
 -11887193.58749  -9262743.22146  23027330.4994   23027331.6954
 -26118875.64249 -20352363.46948  20272792.8564   20272792.6174
    549027.13149    427814.54948  20687187.8924   20687188.0604
 95  2  9  5 22 30.0000000  0  8G16G20G12G 4G 6G 9G 5G24
 -15345402.08049 -11957453.23147  22326165.2664   22326166.2694
 -14958161.26949 -11655709.08447  22050263.5574   22050264.0344
  -5381056.101 8  -4193026.609 8  23124380.927    23124379.153
  -4363170.06948  -3399861.91446  23468721.1904   23468721.2444
  -9171976.73048  -7146992.22346  23537387.8754   23537388.1304
 -11804844.99749  -9198575.53146  23043001.3564   23043001.3704
 -26139562.41349 -20368483.02548  20268856.4394   20268856.2214
    594353.08949    463133.47948  20695813.0854   20695813.4334
 95  2  9  5 23  0.0000000  0  8G16G20G12G 4G 6G 9G 5G24
 -15423178.18949 -12018057.97347  22311364.7514   22311365.5914
 -15040966.96449 -11720233.00547  22034506.2154   22034506.6474
  -5278874.398 8  -4113404.501 8  23143825.376    23143823.654
  -4269118.19548  -3326574.77346  23486618.1354   23486618.1304
  -9235434.75048  -7196440.01546  23525311.8144   23525312.3864
 -11722334.28949  -9134281.48446  23058702.2864   23058703.2284
 -26159755.36349 -20384217.79748  20265013.7664   20265013.6094
    640026.94549    498723.50148  20704504.4784   20704504.8514
 95  2  9  5 23 30.0000000  0  8G16G20G12G 4G 6G 9G 5G24
 -15500628.23649 -12078408.63947  22296626.5574   22296627.1964
 -15123459.58149 -11784512.97247  22018808.3214   22018808.5774
  -5176466.639 8  -4033606.251 8  23163312.968    23163311.286
  -4175005.36548  -3253240.09246  23504527.6414   23504525.9544
  -9298818.13848  -7245829.63746  23513250.4434   23513250.3104
 -11639647.04849  -9069849.87746  23074437.5144   23074438.4554
 -26179438.98449 -20399555.68748  20261268.1654   20261268.0044
    686059.32849    534592.88748  20713264.1804   20713264.5474
 95  2  9  5 24  0.0000000  0  8G16G20G12G 4G 6G 9G 5G24
 -15577767.04349 -12138516.78247  22281947.9214   22281949.1304
 -15205645.84549 -11848554.21247  22003168.9094   22003169.2254
  -5073862.563 8  -3953655.029 8  23182837.755    23182836.179
  -4080855.71448  -3179876.69846  23522443.2474   23522443.4404
  -9362149.32648  -7295178.60246  23501198.9464   23501198.5434
 -11556800.28149  -9005293.95646  23090202.7794   23090203.0434
 -26198636.90249 -20414515.10948  20257614.7974   20257614.6234
    732433.61549    570728.69548  20722088.8274   20722089.2454
 95  2  9  5 24 30.0000000  0  8G16G20G12G 4G 6G 9G 5G24
 -15654595.81549 -12198383.34547  22267327.5964   22267328.7104
 -15287511.97049 -11912345.99347  21987590.2334   21987590.5974
  -4971058.729 8  -3873548.128 8  23202400.713    23202399.079
  -3986652.72448  -3106471.82046  23540369.0154   23540370.3204
  -9425430.67648  -7344488.72646  23489157.1094   23489158.3764
 -11473777.27649  -8940600.69846  23106001.2524   23106001.7674
 -26217336.99249 -20429086.61048  20254056.3354   20254056.1684
    779156.31649    607135.98948  20730979.9674   20730980.1294
 95  2  9  5 25  0.0000000  0  8G16G20G12G 4G 6G 9G 5G24
 -15731151.17549 -12258036.84847  22252759.5484   22252760.6474
 -15369104.71349 -11975924.75947  21972063.6114   21972063.6144
  -4868095.051 8  -3793316.695 8  23221994.067    23221992.395
  -3892426.55348  -3033048.83546  23558300.3054   23558299.5924
  -9488711.66748  -7393798.55746  23477115.0364   23477115.9404
 -11390624.90648  -8875806.63946  23121824.1494   23121824.6194
 -26235581.69749 -20443303.26448  20250584.5484   20250584.4654
    826174.71349    643773.69748  20739927.2384   20739927.4634
 95  2  9  5 25 30.0000000  0  8G16G20G12G 4G 6G 9G 5G24
 -15807404.00549 -12317454.61747  22238249.1264   22238250.2924
 -15450415.26849 -12039283.63647  21956590.6824   21956591.0284
  -4764945.556 8  -3712940.485 8  23241622.852    23241621.063
  -3798137.69748  -2959576.97046  23576242.7384   23576242.4544
  -9551984.57748  -7443102.10846  23465074.5234   23465075.0554
 -11307325.89648  -8810898.30846  23137675.9854   23137676.5314
 -26253338.01249 -20457139.35948  20247205.6294   20247205.5474
    873504.86249    680654.33648  20748933.9854   20748934.3284
 95  2  9  5 26  0.0000000  0  8G16G20G12G 4G 6G 9G 5G24
 -15883345.59049 -12376629.86547  22223798.0854   22223799.2944
 -15531456.20549 -12102432.41347  21941169.0534   21941169.2984
  -4661613.671 8  -3632422.150 8  23261286.228    23261284.528
  -3703776.73348  -2886048.95746  23594198.7694   23594199.1224
  -9615275.56348  -7492419.74846  23453031.0214   23453030.9584
 -11223892.84348  -8745885.57046  23153552.4194   23153552.9614
 -26270602.09149 -20470591.89848  20243920.3404   20243920.2324
    921142.34549    717774.45248  20757999.0714   20757999.4254
 95  2  9  5 26 30.0000000  0  7G16G12G 4G 6G 9G 5G24
 -15958958.89749 -12435549.31647  22209409.3414   22209410.2124
  -4558077.771 8  -3551744.849 8  23280988.495    23280986.697
  -3609327.59348  -2812452.22446  23612172.1444   23612172.9024
  -9678554.95548  -7541728.34746  23440988.9274   23440989.1094
 -11140325.74049  -8680768.36146  23169455.2884   23169455.5814
 -26287348.99949 -20483641.44248  20240733.5344   20240733.4664
    969105.33249    755148.20848  20767126.0894   20767126.3384
 95  2  9  5 27  0.0000000  0  7G16G12G 4G 6G 9G 5G24
 -16034262.86049 -12494227.71947  22195079.3434   22195080.1484
  -4454358.350 8  -3470924.528 8  23300725.581    23300723.859
  -3514806.84248  -2738799.67446  23630158.5154   23630157.9854
  -9741836.85448  -7591038.89446  23428946.7464   23428946.3374
 -11056647.85848  -8615564.86446  23185378.1194   23185378.1214
 -26303596.67449 -20496301.96848  20237641.6874   20237641.7044
   1017367.62549    792755.18748  20776310.0134   20776310.1764
 95  2  9  5 27 30.0000000  0  8G16G20G12G 4G 6G 9G 5G24
 -16109261.96349 -12552668.56547  22180807.5714   22180808.8854
        -0.23759         0.42957  21895215.6604   21895215.7084
  -4350475.667 8  -3389976.992 8  23320493.908    23320492.183
  -3420235.61648  -2665107.81546  23648155.3064   23648154.1174
  -9805130.52748  -7640358.60846  23416902.4694   23416902.6884
 -10972863.89848  -8550278.68446  23201321.9684   23201321.8294
 -26319361.60449 -20508586.32648  20234641.6704   20234641.6544
   1065922.38549    830590.06748  20785549.8174   20785549.9764
 95  2  9  5 28  0.0000000  0  8G16G20G12G 4G 6G 9G 5G24
 -16183927.78149 -12610849.72047  22166598.8264   22166599.9194
    -79906.80349    -62264.43747  21880010.1014   21880010.4624
  -4246408.026 8  -3308885.329 8  23340297.375    23340295.505
  -3325590.85648  -2591358.65846  23666165.5404   23666164.4224
  -9868395.64048  -7689656.10046  23404863.6194   23404864.4664
 -10888946.49348  -8484888.50546  23217290.7034   23217291.8254
 -26334613.82149 -20520471.17048  20231739.2804   20231739.2074
   1114806.02649    868681.21548  20794851.9874   20794852.1064
 95  2  9  5 28 30.0000000  0  8G16G20G12G 4G 6G 9G 5G24
 -16258272.90849 -12668780.98347  22152451.3474   22152452.1124
   -159492.49749   -124279.26747  21864865.6494   21864865.9614
  -4142174.064 8  -3227664.059 8  23360132.292    23360130.703
  -3230896.97048  -2517571.21446  23684184.8014   23684184.7704
  -9931629.68548  -7738929.36646  23392830.2614   23392829.7874
 -10804900.47248  -8419398.10746  23233283.9064   23233285.3734
 -26349371.17949 -20531970.40848  20228931.0884   20228930.8834
   1164000.21249    907014.34548  20804213.3804   20804213.5954
 95  2  9  5 29  0.0000000  0  8G16G20G12G 4G 6G 9G 5G24
 -16332283.05249 -12726451.20947  22138367.8704   22138369.0374
   -238747.25949   -186036.23347  21849783.9604   21849784.1724
  -4037778.016 8  -3146316.501 8  23379998.325    23379996.588
  -3136153.61648  -2443745.21846  23702213.9674   23702214.4004
  -9994855.98548  -7788196.60946  23380799.3404   23380799.3984
 -10720719.02548  -8353802.16246  23249303.3934   23249303.2694
 -26363630.82149 -20543081.81648  20226217.6544   20226217.4804
   1213513.62149    945596.21948  20813635.4184   20813635.6524
 95  2  9  5 29 30.0000000  0  8G16G20G12G 4G 6G 9G 5G24
 -16405956.48849 -12783859.06847  22124348.4854   22124349.3214
   -317675.35249   -247538.63947  21834764.4974   21834765.2404
  -3933222.191 8  -3064844.435 8  23399894.545    23399892.998
  -3041370.97548  -2369888.66746  23720250.2024   23720250.7424
 -10058078.64548  -7837461.00946  23368768.3114   23368767.2534
 -10636411.29948  -8288107.79046  23265346.8094   23265347.6234
 -26377378.00249 -20553793.90248  20223601.5534   20223601.3684
   1263358.13749    984436.10048  20823120.4494   20823120.8014
 95  2  9  5 30  0.0000000  0  8G16G20G12G 4G 6G 9G 5G24
 -16479321.56749 -12841026.64947  22110387.2254   22110387.8564
   -396316.35949   -308817.34947  21819799.3774   21819799.7814
  -3828524.161 8  -2983261.552 8  23419818.001    23419816.306
  -2946566.95448  -2296015.37246  23738291.1864   23738290.8314
 -10121316.89548  -7886737.55346  23356734.3704   23356733.5644
 -10552003.62148  -8222335.54746  23281408.8644   23281408.5534
 -26390639.09249 -20564127.21448  20221077.9174   20221077.8014
   1313510.34149   1023515.73548  20832664.1794   20832664.4704
 95  2  9  5 30 30.0000000  0  8G16G20G12G 4G 6G 9G 5G24
 -16552363.95449 -12897942.78047  22096487.8054   22096488.9974
   -474677.90149   -369878.28747  21804887.6244   21804888.5154
  -3723673.351 8  -2901559.628 8  23439770.320    23439768.780
  -2851736.59048  -2222121.56646  23756336.5574   23756337.3214
 -10184566.85348  -7936023.22946  23344697.9714   23344698.0934
 -10467485.72748  -8156477.39446  23297492.1124   23297492.3464
 -26403410.04749 -20574078.59548  20218647.7264   20218647.5344
   1363981.22549   1062843.69848  20842268.4914   20842268.8184
 95  2  9  5 31  0.0000000  0  8G16G20G12G 4G 6G 9G 5G24
 -16625061.14549 -12954589.92647  22082654.0394   22082655.3164
   -552746.74349   -430711.15347  21790031.7164   21790032.1214
  -3618659.861 8  -2819730.949 8  23459753.838    23459752.194
  -2756864.08048  -2148194.96546  23774390.4044   23774390.6044
 -10247822.23248  -7985313.11846  23332660.8804   23332661.7044
 -10382849.96348  -8090527.46546  23313597.3964   23313598.6114
 -26415676.58949 -20583636.93248  20216313.5594   20216313.3584
   1414777.88649   1102425.50848  20851934.7604   20851934.9264
 95  2  9  5 31 30.0000000  0  8G16G20G12G 4G 6G 9G 5G24
 -16697409.54649 -13010965.27847  22068886.6434   22068888.0404
   -630513.32849   -491308.49247  21775233.2614   21775233.7034
  -3513483.931 8  -2737775.692 8  23479768.196    23479766.483
  -2661960.25148  -2074243.94146  23792450.2044   23792450.3424
 -10311049.66748  -8034581.23746  23320629.4234   23320630.2684
 -10298096.23048  -8024485.63546  23329725.8974   23329726.7594
 -26427447.02649 -20592808.70148  20214073.7894   20214073.6474
   1465889.79249   1142252.96648  20861661.0114   20861661.2294
 95  2  9  5 32  0.0000000  0  8G16G20G12G 4G 6G 9G 5G24
 -16769369.93849 -13067038.29847  22055192.9924   22055193.9194
   -707950.90049   -551649.45947  21760497.4584   21760497.7884
  -3408131.722 8  -2655683.092 8  23499816.050    23499814.398
  -2567001.95848  -2000250.45546  23810520.1044   23810519.3004
 -10374225.27748  -8083808.98746  23308607.1204   23308608.5364
 -10213212.61948  -7958342.58146  23345878.2594   23345878.5314
 -26438701.64649 -20601578.53948  20211932.0284   20211931.8754
   1517317.66549   1182326.63448  20871447.4364   20871447.7104
 95  2  9  5 32 30.0000000  0  8G16G20G12G 4G 6G 9G 5G24
 -16840940.21749 -13122807.33547  22041573.7394   22041574.5664
   -785056.17549   -611731.49047  21745824.8044   21745825.3074
  -3302621.025 8  -2573466.984 8  23519894.058    23519892.360
  -2472011.84448  -1926232.17746  23828596.0754   23828595.0744
 -10437360.74548  -8133005.43846  23296592.8644   23296593.0844
 -10128200.01048  -7892099.04046  23362056.2814   23362056.8394
 -26449422.54549 -20609932.48748  20209891.9374   20209891.6774
   1569038.25849   1222628.39148  20881289.5484   20881289.8384
 95  2  9  5 33  0.0000000  0  8G16G20G12G 4G 6G 9G 5G24
 -16912134.92349 -13178283.71947  22028025.8214   22028026.9414
   -861823.19949   -671549.95447  21731216.4764   21731216.8274
  -3196970.814 8  -2491142.163 8  23539998.721    23539997.091
  -2377013.54348  -1852207.50646  23846674.1434   23846672.8114
 -10500464.61048  -8182177.28646  23284584.7544   23284585.1954
 -10043076.22148  -7825768.87046  23378254.9784   23378255.4824
 -26459605.92749 -20617867.59048  20207954.1574   20207953.9454
   1621022.12449   1263135.29748  20891181.7504   20891182.0114
 95  2  9  5 33 30.0000000  0  8G16G20G12G 4G 6G 9G 5G24
 -16982971.80049 -13233481.27247  22014546.1224   22014546.8714
   -938261.23149   -731112.05747  21716670.9254   21716671.3984
  -3091185.205 8  -2408711.846 8  23560129.065    23560127.271
  -2282013.42448  -1778181.46846  23864751.2724   23864751.0724
 -10563536.51848  -8231324.22946  23272582.2824   23272582.7934
  -9957853.49748  -7759361.60346  23394472.0054   23394472.5314
 -26469243.97149 -20625377.76648  20206120.1284   20206119.9974
   1673269.43649   1303847.48848  20901124.0694   20901124.3314
 95  2  9  5 34  0.0000000  0  8G16G20G12G 4G 6G 9G 5G24
 -17053463.28849 -13288409.70047  22001131.8664   22001132.6664
  -1014384.76049   -790429.09447  21702185.2084   21702185.4764
  -2985273.570 8  -2326183.325 8  23580283.586    23580281.761
  -2187011.02948  -1704153.65346  23882830.0304   23882829.5334
 -10626607.64348  -8280470.55546  23260580.2844   23260581.3784
  -9872529.55548  -7692875.39646  23410709.1494   23410708.7944
 -26478340.59449 -20632466.06348  20204389.0684   20204388.8574
   1725772.51149   1344758.97548  20911115.0224   20911115.3434
 95  2  9  5 34 30.0000000  0  8G16G20G12G 4G 6G 9G 5G24
 -17123598.64849 -13343060.61247  21987785.6794   21987786.6214
  -1090169.54749   -849482.16647  21687763.7074   21687763.8824
  -2879219.342 8  -2243543.683 8  23600464.893    23600463.046
  -2091993.00948  -1630113.60146  23900911.1754   23900911.4564
 -10689666.84248  -8329607.58446  23248580.5634   23248581.3234
  -9787080.21048  -7626291.48846  23426969.3914   23426970.4464
 -26486888.45449 -20639126.75048  20202762.5854   20202762.3154
   1778555.66849   1385888.70648  20921159.4414   20921159.7254
 95  2  9  5 35  0.0000000  0  8G16G20G12G 4G 6G 9G 5G24
 -17193391.85549 -13397444.91447  21974504.1544   21974505.2994
  -1165610.98949   -908267.70347  21673407.7504   21673408.1384
  -2773026.332 8  -2160795.898 8  23620672.762    23620671.012
  -1996944.33748  -1556049.70346  23918998.3184   23918999.2394
 -10752718.34348  -8378738.62046  23236582.4004   23236583.1544
  -9701532.66148  -7559631.08546  23443248.1214   23443249.6674
 -26494907.48649 -20645375.36548  20201236.4904   20201236.2434
   1831626.95849   1427242.95348  20931258.5734   20931258.9814
 95  2  9  5 35 30.0000000  0  8G16G20G12G 4G 6G 9G 5G24
 -17262822.19949 -13451546.46747  21961292.0984   21961293.1274
  -1240704.74749   -966782.31647  21659117.9804   21659117.9514
  -2666685.751 8  -2077933.110 8  23640908.810    23640906.904
  -1901848.91448  -1481949.38546  23937094.4194   23937093.4924
 -10815756.09648  -8427858.94546  23224586.7364   23224586.9054
  -9615875.64448  -7492885.32746  23459548.8934   23459549.1794
 -26502411.24749 -20651222.47548  20199808.5604   20199808.4254
   1885011.01049   1468840.91048  20941417.1054   20941417.3754
 95  2  9  5 36  0.0000000  0  8G16G20G12G 4G 6G 9G 5G24
 -17331887.57749 -13505363.63347  21948149.2834   21948150.2454
  -1315449.22049  -1025024.76047  21644894.5714   21644894.7594
  -2560214.561 8  -1994968.571 8  23661169.433    23661167.911
  -1806724.39448  -1407826.37046  23955196.5474   23955196.5684
 -10878792.80848  -8476978.45846  23212591.3004   23212591.6214
  -9530122.33148  -7426064.51746  23475866.8484   23475867.1504
 -26509417.33549 -20656681.78448  20198475.3564   20198475.2694
   1938689.49149   1510668.29448  20951631.8564   20951632.0614
 95  2  9  5 36 30.0000000  0  8G16G20G12G 4G 6G 9G 5G24
 -17400567.82849 -13558880.69647  21935079.9774   21935080.7994
  -1389817.81649  -1082974.31747  21630742.6044   21630742.8364
  -2453600.685 8  -1911892.826 8  23681457.503    23681455.594
  -1711553.61448  -1333667.33046  23973306.4784   23973305.2014
 -10941801.48548  -8526076.12346  23200601.0634   23200601.7264
  -9444274.41148  -7359170.05646  23492202.8214   23492203.9184
 -26515900.12449 -20661733.32248  20197241.7984   20197241.6854
   1992680.41149   1552739.13548  20961906.0784   20961906.1774
 95  2  9  5 37  0.0000000  0  8G16G20G12G 4G 6G 9G 5G24
 -17468854.73349 -13612091.25347  21922085.5384   21922086.6374
  -1463817.71849  -1140636.57347  21616661.0824   21616661.3474
  -2346848.724 8  -1828709.517 8  23701771.778    23701770.011
  -1616344.16248  -1259478.13546  23991424.1314   23991422.9034
 -11004772.27948  -8575144.25946  23188618.2744   23188618.3164
  -9358349.08048  -7292215.23746  23508554.1654   23508553.4464
 -26521863.56449 -20666380.15548  20196107.0954   20196106.8544
   2046982.03949   1595052.08748  20972239.2974   20972239.3864
 95  2  9  5 37 30.0000000  0  8G24G16G20G12G 4G 6G 9G 5
   2101565.45349   1637584.61148  20982626.2004   20982626.5294
 -17536759.49449 -13665004.03647  21909163.6554   21909164.4374
  -1537487.34249  -1198041.47847  21602642.0834   21602642.3794
  -2239989.482 8  -1745442.576 8  23722106.373    23722104.544
  -1521136.30848  -1185290.20346  24009541.7274   24009542.4474
 -11067723.84448  -8624197.41846  23176638.9344   23176639.4184
  -9272377.03748  -7225224.03746  23524913.5244   23524914.6364
 -26527327.04949 -20670637.41848  20195067.3794   20195067.2214
 95  2  9  5 38  0.0000000  0  8G24G16G20G12G 4G 6G 9G 5
   2156433.81549   1680339.17248  20993067.3334   20993067.4464
 -17604275.61449 -13717613.97947  21896315.7884   21896316.6634
  -1610806.60549  -1255173.37347  21588689.7614   21588690.0114
  -2133013.751 8  -1662084.892 8  23742463.238    23742461.497
  -1425915.65148  -1111092.29146  24027661.4584   24027659.3924
 -11130637.34348  -8673220.92746  23164666.9824   23164666.7524
  -9186353.67848  -7158192.86746  23541284.1184   23541284.2914
 -26532256.04249 -20674478.19548  20194129.3754   20194129.1204
 95  2  9  5 38 30.0000000  0  8G24G16G20G 6G12G 4G 9G 5
   2211573.83249   1723305.41048  21003559.9684   21003560.3944
 -17671420.11349 -13769934.35947  21883538.5074   21883539.0944
  -1683796.60549  -1312048.70147  21574800.2944   21574800.6514
 -11193536.97748  -8722233.60546  23152697.4164   23152697.5904
  -2025940.746 8  -1578651.391 8  23762838.485    23762836.724
  -1330694.63248  -1036894.06945  24045781.3254   24045779.6044
  -9100296.17148  -7091135.11346  23557659.9144   23557659.4524
 -26536667.55049 -20677915.72348  20193289.8524   20193289.6824
 95  2  9  5 39  0.0000000  0  8G24G16G20G 6G12G 4G 9G 5
   2266988.76349   1766485.86848  21014105.0944   21014105.4124
 -17738186.90549 -13821960.40747  21870833.2774   21870833.9934
  -1756448.31649  -1368660.42647  21560975.0784   21560975.3704
 -11256414.84748  -8771229.33546  23140731.9904   23140732.3334
  -1918763.809 8  -1495136.894 8  23783233.681    23783231.859
  -1235475.31048   -962697.21845  24063901.4554   24063900.9724
  -9014192.71148  -7024041.52746  23574044.9604   23574045.4004
 -26540551.08549 -20680941.83748  20192550.8584   20192550.7414
 95  2  9  5 39 30.0000000  0  8G24G16G20G 6G12G 4G 9G 5
   2322709.74249   1809904.80748  21024708.5314   21024708.9034
 -17804543.20749 -13873666.59247  21858206.0724   21858207.0374
  -1828702.78049  -1424962.61047  21547225.6064   21547225.6384
 -11319232.25548  -8820177.95646  23128778.3304   23128778.2504
  -1811443.000 8  -1411510.316 8  23803656.126    23803654.236
  -1140205.50848   -888461.00846  24082030.6324   24082030.3534
  -8927983.84748  -6956865.81146  23590449.9314   23590448.6714
 -26543852.67749 -20683514.48848  20191922.5264   20191922.3674
 95  2  9  5 40  0.0000000  0  8G24G16G20G 6G12G 4G 9G 5
   2378671.92949   1853511.70648  21035357.6944   21035358.0404
 -17870538.22349 -13925091.26147  21845647.7054   21845648.1114
  -1900601.21949  -1480987.36347  21533543.6584   21533544.1624
 -11382053.71249  -8869129.72446  23116824.1524   23116824.2714
  -1704035.678 8  -1327816.304 8  23824095.064    23824093.302
  -1044942.38648   -814229.99446  24100158.9514   24100158.1544
  -8841709.94148  -6889639.42146  23606866.8524   23606867.0464
 -26546626.53849 -20685675.93048  20191394.7044   20191394.5794
 95  2  9  5 40 30.0000000  0  8G24G16G20G 6G12G 4G 9G 5
   2434867.48449   1897300.44748  21046051.3474   21046051.8174
 -17936162.06249 -13976226.71647  21833159.7364   21833160.5394
  -1972152.23249  -1536741.39747  21519927.9214   21519928.2024
 -11444890.05149  -8918093.08546  23104866.4844   23104866.0414
  -1596548.030 8  -1244059.721 8  23844549.319    23844547.524
   -949696.30048   -740012.26245  24118283.2194   24118281.9494
  -8755380.96648  -6822370.09346  23623295.1814   23623294.6674
 -26548877.49049 -20687429.93948  20190966.3714   20190966.1934
 95  2  9  5 41  0.0000000  0  8G24G16G20G 6G12G 4G 9G 5
   2491277.20549   1941256.06548  21056785.6584   21056786.0774
 -18001425.77749 -14027081.55347  21820740.5184   21820741.2104
  -2043371.21149  -1592236.70447  21506375.4224   21506375.4154
 -11507745.31349  -8967071.19646  23092905.6144   23092905.3864
  -1488998.368 8  -1160254.803 8  23865015.288    23865013.447
   -854485.10448   -665821.73945  24136401.7454   24136399.8074
  -8669014.31848  -6755071.39946  23639730.2504   23639730.7924
 -26550618.07349 -20688786.26448  20190635.1064   20190635.0464
 95  2  9  5 41 30.0000000  0  8G24G16G20G 6G12G 4G 9G 5
   2547981.19149   1985440.97948  21067576.1994   21067576.6014
 -18066236.71049 -14077583.56847  21808407.4144   21808407.9884
  -2114181.63749  -1647413.65647  21492900.5894   21492900.7744
 -11570549.91249  -9016009.83646  23080954.0934   23080954.2264
  -1381313.966 8  -1076344.894 8  23885507.087    23885505.243
   -759230.83748   -591597.65245  24154528.1074   24154526.6824
  -8582544.07848  -6687692.00046  23656184.3134   23656186.5454
 -26551775.40949 -20689688.10348  20190414.9324   20190414.8254
 95  2  9  5 42  0.0000000  0  8G24G16G20G 6G12G 4G 9G 5
   2604955.53649   2029836.56648  21078418.0694   21078418.3484
 -18130620.37149 -14127752.64247  21796155.4994   21796156.4594
  -2184627.45949  -1702306.50447  21479495.3744   21479495.6274
 -11633349.51849  -9064944.59046  23069003.7484   23069003.6264
  -1273530.490 8   -992357.794 8  23906017.417    23906015.673
   -663975.19248   -517372.45146  24172654.6274   24172654.8964
  -8496019.66548  -6620270.38646  23672649.8864   23672650.7574
 -26552397.44249 -20690172.81748  20190296.6444   20190296.6034
 95  2  9  5 42 30.0000000  0  8G24G16G20G 6G12G 4G 9G 5
   2662187.13749   2074432.61548  21089308.8674   21089309.2694
 -18194595.83049 -14177603.63947  21783981.3344   21783982.2034
  -2254716.40249  -1756921.26547  21466157.9594   21466158.0244
 -11696144.39749  -9113875.64446  23057054.3464   23057053.3584
  -1165658.616 8   -908301.800 8  23926544.801    23926543.225
   -568721.32448   -443148.65946  24190780.4984   24190781.3014
  -8409462.31248  -6552823.07846  23689121.2524   23689121.9584
 -26552498.05549 -20690251.22848  20190277.4304   20190277.3754
 95  2  9  5 43  0.0000000  0  8G24G16G20G 6G12G 4G 9G 5
   2719680.55149   2119232.67048  21100249.4344   21100249.9254
 -18258151.06249 -14227127.17847  21771887.2644   21771888.1344
  -2324427.26849  -1811241.41947  21452892.3564   21452892.4314
 -11758916.86349  -9162789.24046  23045109.3184   23045108.5034
  -1057690.148 8   -824170.526 8  23947090.575    23947088.726
   -473462.72248   -368921.15845  24208907.5224   24208906.2084
  -8322853.15148  -6485335.45046  23705602.2674   23705603.8744
 -26552066.89049 -20689915.26248  20190359.5504   20190359.4994
 95  2  9  5 43 30.0000000  0  8G24G16G20G 6G12G 4G 9G 5
   2777433.82049   2164235.21648  21111239.4944   21111239.8954
 -18321281.47249 -14276319.67947  21759873.9244   21759874.4084
  -2393742.12449  -1865252.99547  21439702.1664   21439702.6254
 -11821664.08849  -9211683.17146  23033168.6924   23033168.7394
   -949620.561 8   -739960.476 8  23967655.624    23967653.750
   -378197.03448   -294688.17045  24227035.8194   24227034.4244
  -8236185.55448  -6417802.25046  23722094.6254   23722095.0464
 -26551091.93749 -20689155.55448  20190545.0414   20190545.0164
 95  2  9  5 44  0.0000000  0  8G24G16G20G 6G12G 4G 9G 5
   2835431.00149   2209427.82348  21122276.1534   21122276.4594
 -18383989.34549 -14325182.94647  21747941.0264   21747941.6144
  -2462651.96249  -1918948.96647  21426589.0294   21426589.3074
 -11884381.07249  -9260553.52346  23021233.8954   23021234.2974
   -841453.125 8   -655674.175 8  23988239.171    23988237.338
   -282923.19148   -220448.80945  24245165.8274   24245164.9424
  -8149454.59148  -6350219.63646  23738598.8754   23738600.1954
 -26549573.21149 -20687972.11548  20190834.0824   20190833.8054
 95  2  9  5 44 30.0000000  0  8G24G16G20G 6G12G 4G 9G 5
   2893640.18249   2254785.61948  21133352.9794   21133353.2614
 -18446288.38349 -14373727.64247  21736085.9274   21736086.4044
  -2531159.38449  -1972331.37247  21413552.6554   21413553.0474
 -11947071.66149  -9309403.33146  23009304.7444   23009304.8524
   -733210.270 8   -571329.121 8  24008837.031    24008835.301
   -187668.89048   -146224.62145  24263292.1834   24263290.2354
  -8062672.15248  -6282596.94846  23755112.3494   23755113.0464
 -26547513.30149 -20686366.98748  20191226.1084   20191226.0074
 95  2  9  5 45  0.0000000  0  8G24G16G20G 6G12G 4G 9G 5
   2952057.74949   2300305.79348  21144469.5524   21144469.8684
 -18508186.75049 -14421960.12447  21724306.9704   21724307.5754
  -2599266.93549  -2025402.19047  21400592.0764   21400592.5784
 -12009754.45349  -9358247.05246  22997376.4304   22997376.1244
   -624905.941 8   -486936.125 8  24029446.506    24029444.749
    -92449.27648    -72027.48545  24281411.9344   24281411.3124
  -7975845.17448  -6214939.46246  23771635.2154   23771635.6904
 -26544918.77549 -20684345.29048  20191719.7204   20191719.6784
 95  2  9  5 45 30.0000000  0  8G24G16G20G 6G12G 4G 9G 5
   3010697.28349   2345998.93048  21155628.3014   21155628.7064
 -18569684.01649 -14469880.06147  21712604.3614   21712605.2354
  -2666966.43449  -2078155.04747  21387709.3914   21387709.5604
 -12072420.94149  -9407078.06346  22985451.2194   22985451.1294
   -516536.714 8   -402492.574 8  24050068.721    24050066.703
      2751.50748      2154.95445  24299527.9524   24299529.6244
  -7888979.31548  -6147251.74146  23788165.7334   23788166.1694
 -26541794.50749 -20681910.80048  20192314.2364   20192314.1474
 95  2  9  5 46  0.0000000  0  8G24G16G20G 6G12G 4G 9G 5
   3069558.96049   2391865.16848  21166829.2634   21166829.5054
 -18630772.83749 -14517481.73547  21700979.5734   21700980.2974
  -2734273.43649  -2130602.06047  21374901.3274   21374901.3874
 -12135074.71949  -9455899.18346  22973528.4874   22973528.8444
   -408109.367 8   -318003.748 8  24070701.628    24070699.931
     97932.71448     76322.14645  24317640.0504   24317640.5184
  -7802085.46948  -6079542.21246  23804700.9334   23804701.6154
 -26538149.03649 -20679070.18048  20193008.1004   20193007.8524
 95  2  9  5 46 30.0000000  0  8G24G16G20G 6G12G 4G 9G 5
   3128661.79849   2437919.32748  21178076.1364   21178076.5864
 -18691447.73649 -14564760.86947  21689433.4714   21689434.3744
  -2801188.20049  -2182743.43347  21362167.9434   21362168.2534
 -12197702.81549  -9504700.29146  22961610.8564   22961611.3224
   -299619.471 8   -233466.126 8  24091346.685    24091344.910
    193102.27248    150480.18145  24335750.1704   24335750.3044
  -7715165.97148  -6011812.71146  23821240.7364   23821240.2314
 -26533965.66949 -20675810.41548  20193804.1714   20193803.9844
